[[{"header":{"parameterUnit":"m.s-1","parameterCategory":1,"la1":30.6,"la2":29.2853,"lo1":-89.7004,"lo2":-87.6739,"dy":0.0162,"dx":0.0183,"nx":112,"ny":82,"refTime":"2024-08-24T00:00:00:Z","depth":0,"parameterNumber":2,"parameterNumberName":"U-component_of_WINDS"},"data":[0.0,0.0,0.0,0.0,0.0,0.0,0.0,0.0,0.0,0.0,0.0,0.0,0.0,0.0,0.0,0.0,0.0,0.0,0.0,0.0,0.0,0.0,0.0,0.0,0.0,0.0,0.0,0.0,0.0,0.0,0.0,0.0,0.0,0.0,0.0,0.0,0.0,0.0,0.0,0.0,0.0,0.0,0.0,0.0,0.0,0.0,0.0,0.0,0.0,0.0,0.0,0.0,0.0,0.0,0.0,0.0,0.0,0.0,0.0,0.0,0.0,0.0,0.0,0.0,0.0,0.0,0.0,0.0,0.0,0.0,0.0,0.0,0.0,0.0,0.0,0.0,0.0,0.0,0.0,0.0,0.0,0.0,0.0,0.0,0.0,0.0,0.0,0.0,0.0,0.0,0.0,-2.5662,-2.7999,-2.9347,-2.9304,-2.9074,-2.7636,-2.457,0.0,0.0,0.0,0.0,0.0,0.0,0.0,0.0,0.0,0.0,0.0,0.0,0.0,0.0,0.0,0.0,0.0,0.0,0.0,0.0,0.0,0.0,0.0,0.0,0.0,0.0,0.0,0.0,0.0,0.0,0.0,0.0,0.0,0.0,0.0,0.0,0.0,0.0,0.0,0.0,0.0,0.0,0.0,0.0,0.0,0.0,0.0,0.0,0.0,0.0,0.0,0.0,0.0,0.0,0.0,0.0,0.0,0.0,0.0,0.0,0.0,0.0,0.0,0.0,0.0,0.0,0.0,0.0,0.0,0.0,0.0,0.0,0.0,0.0,0.0,0.0,0.0,0.0,0.0,0.0,0.0,0.0,0.0,0.0,0.0,0.0,0.0,0.0,0.0,0.0,0.0,0.0,0.0,0.0,0.0,0.0,0.0,0.0,0.0,0.0,0.0,0.0,0.0,0.0,-2.2612,-2.7147,-2.859,-2.9127,-2.8837,-2.761,-2.5993,-2.3951,0.0,0.0,0.0,0.0,0.0,0.0,0.0,0.0,0.0,0.0,0.0,0.0,0.0,0.0,0.0,0.0,0.0,0.0,0.0,0.0,0.0,0.0,0.0,0.0,0.0,0.0,0.0,0.0,0.0,0.0,0.0,0.0,0.0,0.0,0.0,0.0,0.0,0.0,0.0,0.0,0.0,0.0,0.0,0.0,0.0,0.0,0.0,0.0,0.0,0.0,0.0,0.0,0.0,0.0,0.0,0.0,0.0,0.0,0.0,0.0,0.0,0.0,0.0,0.0,0.0,0.0,0.0,0.0,0.0,0.0,0.0,0.0,0.0,0.0,0.0,0.0,0.0,0.0,0.0,0.0,0.0,0.0,0.0,0.0,0.0,0.0,0.0,0.0,0.0,0.0,0.0,0.0,0.0,0.0,0.0,0.0,0.0,0.0,0.0,0.0,0.0,0.0,0.0,-2.2172,-2.4192,-2.8218,-2.8986,-2.9138,-2.8978,-2.7793,-2.6133,-2.4,-2.2045,0.0,0.0,0.0,0.0,0.0,0.0,0.0,0.0,0.0,0.0,0.0,0.0,0.0,0.0,0.0,0.0,0.0,0.0,0.0,0.0,0.0,0.0,0.0,0.0,0.0,0.0,0.0,0.0,0.0,0.0,0.0,0.0,0.0,0.0,0.0,0.0,0.0,0.0,0.0,0.0,0.0,0.0,0.0,0.0,0.0,0.0,0.0,0.0,0.0,0.0,0.0,0.0,0.0,0.0,0.0,0.0,0.0,0.0,0.0,0.0,0.0,0.0,0.0,0.0,0.0,0.0,0.0,0.0,0.0,0.0,0.0,0.0,0.0,0.0,0.0,0.0,0.0,0.0,0.0,0.0,0.0,0.0,0.0,0.0,0.0,0.0,0.0,0.0,0.0,0.0,0.0,0.0,0.0,0.0,0.0,0.0,0.0,0.0,0.0,0.0,0.0,0.0,-2.4095,-2.5688,-2.8381,-2.884,-2.8854,-2.8612,-2.7335,-2.5578,-2.3335,-2.0469,0.0,0.0,0.0,0.0,0.0,0.0,0.0,0.0,0.0,0.0,0.0,0.0,0.0,0.0,0.0,0.0,0.0,0.0,0.0,0.0,0.0,0.0,0.0,0.0,0.0,0.0,0.0,0.0,0.0,0.0,0.0,0.0,0.0,0.0,0.0,0.0,0.0,0.0,0.0,0.0,0.0,0.0,0.0,0.0,0.0,0.0,0.0,0.0,0.0,0.0,0.0,0.0,0.0,0.0,0.0,0.0,0.0,0.0,0.0,0.0,0.0,0.0,0.0,0.0,0.0,0.0,0.0,0.0,0.0,0.0,0.0,0.0,0.0,0.0,0.0,0.0,0.0,0.0,0.0,0.0,0.0,0.0,0.0,0.0,0.0,0.0,0.0,0.0,0.0,0.0,0.0,0.0,0.0,0.0,0.0,0.0,0.0,0.0,0.0,0.0,0.0,0.0,-2.3459,-2.6072,-2.7059,-2.7767,-2.7803,-2.6869,-2.4718,-2.2676,-2.0951,-1.7263,0.0,0.0,0.0,0.0,0.0,0.0,0.0,0.0,0.0,0.0,0.0,0.0,0.0,0.0,0.0,0.0,0.0,0.0,0.0,0.0,0.0,0.0,0.0,0.0,0.0,0.0,0.0,0.0,0.0,0.0,0.0,0.0,0.0,0.0,0.0,0.0,0.0,0.0,0.0,0.0,0.0,0.0,0.0,0.0,0.0,0.0,0.0,0.0,0.0,0.0,0.0,0.0,0.0,0.0,0.0,0.0,0.0,0.0,0.0,0.0,0.0,0.0,0.0,0.0,0.0,0.0,0.0,0.0,0.0,0.0,0.0,0.0,0.0,0.0,0.0,0.0,0.0,0.0,0.0,0.0,0.0,0.0,0.0,0.0,0.0,0.0,0.0,0.0,0.0,0.0,0.0,0.0,0.0,0.0,0.0,0.0,0.0,0.0,0.0,0.0,0.0,0.0,-2.2089,-2.4266,0.0,-2.656,-2.6563,-2.6192,-2.4284,-2.2447,-2.0901,0.0,0.0,0.0,0.0,0.0,0.0,0.0,0.0,0.0,0.0,0.0,0.0,0.0,0.0,0.0,0.0,0.0,0.0,0.0,0.0,0.0,0.0,0.0,0.0,0.0,0.0,0.0,0.0,0.0,0.0,0.0,0.0,0.0,0.0,0.0,0.0,0.0,0.0,0.0,0.0,0.0,0.0,0.0,0.0,0.0,0.0,0.0,0.0,0.0,0.0,0.0,0.0,0.0,0.0,0.0,0.0,0.0,0.0,0.0,0.0,0.0,0.0,0.0,0.0,0.0,0.0,0.0,0.0,0.0,0.0,0.0,0.0,0.0,0.0,0.0,0.0,0.0,0.0,0.0,0.0,0.0,0.0,0.0,0.0,0.0,0.0,0.0,0.0,0.0,0.0,0.0,0.0,0.0,0.0,0.0,0.0,0.0,0.0,0.0,0.0,0.0,0.0,-1.9204,-2.1331,-2.3323,0.0,-2.5454,-2.5508,-2.5273,-2.3402,-2.1499,-1.978,0.0,0.0,0.0,0.0,0.0,0.0,0.0,0.0,0.0,0.0,0.0,0.0,0.0,0.0,0.0,0.0,0.0,0.0,0.0,0.0,0.0,0.0,0.0,0.0,0.0,0.0,0.0,0.0,0.0,0.0,0.0,0.0,0.0,0.0,0.0,0.0,0.0,0.0,0.0,0.0,0.0,0.0,0.0,0.0,0.0,0.0,0.0,0.0,0.0,0.0,0.0,0.0,0.0,0.0,0.0,0.0,0.0,0.0,0.0,0.0,0.0,0.0,0.0,0.0,0.0,0.0,0.0,0.0,0.0,0.0,0.0,0.0,0.0,0.0,0.0,0.0,0.0,0.0,0.0,0.0,0.0,0.0,0.0,0.0,0.0,0.0,0.0,0.0,0.0,0.0,0.0,0.0,0.0,0.0,0.0,0.0,0.0,0.0,0.0,0.0,0.0,0.0,-1.819,-2.1412,-2.3718,-2.3788,-2.4491,-2.4646,-2.3853,-2.1703,-1.943,0.0,0.0,0.0,0.0,0.0,0.0,0.0,0.0,0.0,0.0,0.0,0.0,0.0,0.0,0.0,0.0,0.0,0.0,0.0,0.0,0.0,0.0,0.0,0.0,0.0,0.0,0.0,0.0,0.0,0.0,0.0,0.0,0.0,0.0,0.0,0.0,0.0,0.0,0.0,0.0,0.0,0.0,0.0,0.0,0.0,0.0,0.0,0.0,0.0,0.0,0.0,0.0,0.0,0.0,0.0,0.0,0.0,0.0,0.0,0.0,0.0,0.0,0.0,0.0,0.0,0.0,0.0,0.0,0.0,0.0,0.0,0.0,0.0,0.0,0.0,0.0,0.0,0.0,0.0,0.0,0.0,0.0,0.0,0.0,0.0,0.0,0.0,0.0,0.0,0.0,0.0,0.0,0.0,0.0,0.0,0.0,0.0,0.0,0.0,0.0,0.0,0.0,0.0,-1.7997,-2.0866,-2.285,-2.2877,-2.31,-2.3134,-2.2911,-2.1267,-1.955,-1.7875,0.0,0.0,0.0,0.0,0.0,0.0,0.0,0.0,0.0,0.0,0.0,0.0,0.0,0.0,0.0,0.0,0.0,0.0,0.0,0.0,0.0,0.0,0.0,0.0,0.0,0.0,0.0,0.0,0.0,0.0,0.0,0.0,0.0,0.0,0.0,0.0,0.0,0.0,0.0,0.0,0.0,0.0,0.0,0.0,0.0,0.0,0.0,0.0,0.0,0.0,0.0,0.0,0.0,0.0,0.0,0.0,0.0,0.0,0.0,0.0,0.0,0.0,0.0,0.0,0.0,0.0,0.0,0.0,0.0,0.0,0.0,0.0,0.0,0.0,0.0,0.0,0.0,0.0,0.0,0.0,0.0,0.0,0.0,0.0,0.0,0.0,0.0,0.0,0.0,0.0,0.0,0.0,0.0,0.0,0.0,0.0,0.0,0.0,0.0,0.0,0.0,0.0,-1.7891,-2.0615,-2.2474,-2.2501,-2.2501,-2.2501,-2.2501,-2.1374,-1.9935,-1.8163,0.0,0.0,0.0,0.0,0.0,0.0,0.0,0.0,0.0,0.0,0.0,0.0,0.0,0.0,0.0,0.0,0.0,0.0,0.0,0.0,0.0,0.0,0.0,0.0,0.0,0.0,0.0,0.0,0.0,0.0,0.0,0.0,0.0,0.0,0.0,0.0,0.0,0.0,0.0,0.0,0.0,0.0,0.0,0.0,0.0,0.0,0.0,0.0,0.0,0.0,0.0,0.0,0.0,0.0,0.0,0.0,0.0,0.0,0.0,0.0,0.0,0.0,0.0,0.0,0.0,0.0,0.0,0.0,0.0,0.0,0.0,0.0,0.0,0.0,0.0,0.0,0.0,0.0,0.0,0.0,0.0,0.0,0.0,0.0,0.0,0.0,0.0,0.0,0.0,0.0,0.0,0.0,0.0,0.0,0.0,0.0,0.0,0.0,0.0,0.0,0.0,0.0,-1.7972,-2.0599,-2.2405,-2.2474,-2.2487,-2.2487,-2.2487,-2.1822,-2.0462,-1.8324,0.0,0.0,0.0,0.0,0.0,0.0,0.0,0.0,0.0,0.0,0.0,0.0,0.0,0.0,0.0,0.0,0.0,0.0,0.0,0.0,0.0,0.0,0.0,0.0,0.0,0.0,0.0,0.0,0.0,0.0,0.0,0.0,0.0,0.0,0.0,0.0,0.0,0.0,0.0,0.0,0.0,0.0,0.0,0.0,0.0,0.0,0.0,0.0,0.0,0.0,0.0,0.0,0.0,0.0,0.0,0.0,0.0,0.0,0.0,0.0,-1.5211,0.0,0.0,0.0,0.0,0.0,0.0,0.0,0.0,0.0,0.0,0.0,0.0,0.0,0.0,0.0,0.0,0.0,0.0,0.0,0.0,0.0,0.0,0.0,0.0,0.0,0.0,0.0,0.0,0.0,0.0,0.0,0.0,0.0,0.0,0.0,0.0,0.0,0.0,0.0,0.0,0.0,-1.8539,-2.0831,-2.2324,-2.2338,-2.2352,-2.2352,-2.2352,-2.1671,-2.0785,-1.9729,-1.7708,0.0,0.0,0.0,0.0,0.0,0.0,0.0,0.0,0.0,0.0,0.0,0.0,0.0,0.0,0.0,0.0,0.0,0.0,0.0,0.0,0.0,0.0,0.0,0.0,0.0,0.0,0.0,0.0,0.0,0.0,0.0,0.0,0.0,0.0,0.0,0.0,0.0,0.0,0.0,0.0,0.0,0.0,0.0,0.0,0.0,0.0,0.0,0.0,0.0,0.0,0.0,0.0,0.0,0.0,0.0,0.0,0.0,0.0,0.0,0.0,-1.68,0.0,0.0,0.0,0.0,0.0,0.0,0.0,0.0,0.0,0.0,0.0,0.0,0.0,0.0,0.0,0.0,0.0,0.0,0.0,0.0,0.0,0.0,0.0,0.0,0.0,0.0,0.0,0.0,0.0,0.0,0.0,0.0,0.0,0.0,0.0,0.0,0.0,0.0,0.0,0.0,-1.8707,-2.0889,-2.2296,-2.2296,-2.2296,-2.2223,-2.2063,-2.1855,-2.1288,-2.0202,-1.886,0.0,0.0,0.0,0.0,0.0,0.0,0.0,0.0,0.0,0.0,0.0,0.0,0.0,0.0,0.0,0.0,0.0,0.0,0.0,0.0,0.0,0.0,0.0,0.0,0.0,0.0,0.0,0.0,0.0,0.0,0.0,0.0,0.0,0.0,0.0,0.0,0.0,0.0,0.0,0.0,0.0,0.0,0.0,0.0,0.0,0.0,0.0,0.0,0.0,0.0,0.0,0.0,0.0,-2.1859,-2.2188,-2.2697,-2.2158,-2.2443,-2.3257,-2.1036,-2.0453,-2.0868,-1.8653,0.0,0.0,0.0,0.0,0.0,0.0,0.0,0.0,0.0,0.0,0.0,0.0,0.0,0.0,0.0,0.0,0.0,0.0,0.0,0.0,0.0,0.0,0.0,0.0,-2.133,-2.1021,0.0,0.0,0.0,0.0,0.0,0.0,0.0,0.0,0.0,0.0,0.0,0.0,-1.9024,-2.0962,-2.2194,-2.2137,-2.224,-2.2152,-2.1753,-2.202,-2.168,-2.0466,-1.9909,-1.8699,0.0,0.0,0.0,0.0,0.0,0.0,0.0,0.0,0.0,0.0,0.0,0.0,0.0,0.0,0.0,0.0,0.0,0.0,0.0,0.0,0.0,0.0,0.0,0.0,0.0,0.0,0.0,0.0,0.0,0.0,0.0,0.0,-1.5462,-1.6111,0.0,0.0,0.0,0.0,0.0,0.0,0.0,0.0,0.0,0.0,0.0,0.0,0.0,-2.1665,-2.2936,-2.3618,-2.4575,-2.5824,-2.6417,-2.6746,-2.6821,-2.6731,-2.6477,-2.6087,-2.5704,0.0,-2.2418,-2.2059,0.0,0.0,0.0,0.0,0.0,0.0,0.0,0.0,0.0,0.0,0.0,0.0,0.0,0.0,0.0,0.0,0.0,0.0,0.0,0.0,0.0,0.0,-2.2123,-2.2026,-2.1858,-2.1678,0.0,-1.9325,-1.7361,-1.7266,-1.6136,0.0,0.0,0.0,0.0,0.0,0.0,0.0,-2.0268,-2.1292,-2.1751,-2.1462,-2.1945,-2.2049,-2.1416,-2.1676,-2.1657,-2.1193,-2.0498,-1.9965,-1.9615,-1.7901,0.0,0.0,0.0,0.0,0.0,0.0,0.0,0.0,0.0,0.0,0.0,0.0,0.0,0.0,0.0,0.0,0.0,0.0,0.0,0.0,0.0,0.0,0.0,0.0,0.0,0.0,0.0,0.0,0.0,-1.5595,-1.6981,-1.7964,-1.7624,-1.7139,0.0,0.0,0.0,0.0,0.0,0.0,0.0,0.0,0.0,-2.3252,-2.3881,-2.483,-2.6227,-2.6539,-2.7205,-2.8304,-2.8588,-2.8723,-2.8723,-2.8723,-2.8573,-2.8304,-2.8304,-2.7435,-2.5854,-2.3969,-2.2503,-2.135,0.0,0.0,0.0,0.0,-1.9959,-2.0094,-2.1055,-2.143,0.0,-1.9836,0.0,0.0,0.0,0.0,0.0,0.0,0.0,0.0,0.0,0.0,-2.2744,-2.2949,-2.2881,-2.2709,-2.2531,-2.1406,-2.0148,0.0,-1.8207,-1.7133,-1.6063,0.0,0.0,0.0,0.0,0.0,-2.0152,-2.1111,-2.16,-2.1339,-2.1721,-2.1753,-2.1087,-2.1323,-2.126,-2.0664,-2.0511,-2.0162,-1.9546,-1.8746,-1.751,0.0,0.0,0.0,0.0,0.0,0.0,0.0,0.0,0.0,0.0,0.0,0.0,0.0,0.0,0.0,0.0,0.0,0.0,0.0,0.0,0.0,0.0,0.0,0.0,0.0,0.0,0.0,0.0,-1.7239,-1.8796,-1.9937,-1.9836,-1.9417,0.0,0.0,0.0,0.0,0.0,0.0,-2.3954,-2.4313,-2.512,-2.6575,-2.678,-2.7491,-2.8746,-2.8746,-2.9183,-2.9963,-2.9963,-2.9963,-2.9963,-2.9963,-2.9888,-2.9724,-2.9724,-2.9352,-2.8517,-2.5756,-2.4395,-2.3955,-2.2871,-2.2019,-2.1466,-2.2127,-2.2402,-2.247,-2.3121,-2.3523,-2.3516,-2.2072,-2.1248,-2.0582,-1.9075,0.0,0.0,0.0,0.0,-2.1365,-2.2024,-2.2547,-2.3047,-2.349,-2.3595,-2.3475,-2.3032,-2.2927,-2.247,0.0,-2.0137,-1.9138,-1.7195,0.0,0.0,0.0,0.0,-1.9244,-2.0019,-2.0811,-2.1228,-2.0991,-2.1354,-2.1323,-2.0645,-2.091,-2.0796,-2.0115,-2.0308,-2.0091,-1.9294,-1.928,-1.8422,-1.6545,0.0,0.0,0.0,0.0,0.0,0.0,0.0,0.0,0.0,0.0,0.0,0.0,0.0,0.0,0.0,0.0,0.0,0.0,0.0,0.0,0.0,0.0,0.0,0.0,0.0,0.0,0.0,0.0,0.0,-2.1814,-2.2513,0.0,0.0,0.0,0.0,-2.2871,-2.3576,-2.4538,-2.5888,-2.7174,-2.7907,-2.801,-2.8613,-2.9304,-3.0011,-3.0011,-3.035,-3.1014,-3.1014,-3.1014,-3.1014,-3.1014,-3.0674,-3.007,-3.007,-2.9687,-2.8978,-2.7846,-2.6583,-2.5256,-2.4679,-2.3963,-2.3348,-2.4022,-2.426,-2.4341,-2.4891,-2.4681,-2.4137,-2.4048,-2.2767,-2.125,-2.1162,-2.0794,0.0,0.0,-2.1958,-2.2748,-2.334,-2.3535,-2.3565,-2.3595,-2.3595,-2.3595,-2.3565,-2.355,-2.3161,0.0,-2.158,-2.1235,-2.0156,0.0,-1.9945,-1.9718,-1.9515,-1.9637,-2.039,-2.0516,-2.0429,-2.0096,-2.0647,-2.0763,-2.0096,-2.0344,-2.0395,-2.0025,-2.0023,-2.0008,-1.996,-1.9355,-1.8671,-1.791,-1.5909,0.0,0.0,0.0,0.0,0.0,0.0,0.0,0.0,0.0,0.0,0.0,0.0,0.0,0.0,0.0,0.0,0.0,0.0,0.0,0.0,0.0,0.0,0.0,0.0,0.0,0.0,0.0,0.0,-2.3755,-2.4533,0.0,-2.3914,-2.4125,-2.4677,-2.5565,-2.6163,-2.7056,-2.842,-2.8849,-2.9259,-2.971,-2.9944,-3.0207,-3.0544,-3.0544,-3.0734,-3.1117,-3.1117,-3.1117,-3.1117,-3.1117,-3.0955,-3.0734,-3.0734,-3.0365,-2.9717,-2.937,-2.8394,-2.7129,-2.6918,-2.6179,-2.5215,-2.5475,-2.5564,-2.5534,-2.5285,-2.5344,-2.5418,-2.4967,-2.4364,-2.3805,-2.3805,-2.368,-2.3555,-2.3814,-2.4095,-2.4274,-2.4156,-2.4119,-2.4037,-2.3678,-2.3595,-2.3595,-2.3595,-2.3595,-2.3475,-2.3011,-2.2613,-2.1984,-2.0785,-2.0921,-2.1019,-2.0535,-2.0719,-2.084,-2.0719,-2.0872,-2.0756,-2.0071,-2.0412,-2.0496,-2.0025,-2.0098,-2.0098,-1.9884,-1.9509,-1.925,-1.9166,-1.8517,-1.7839,-1.7179,-1.6052,-1.4637,0.0,0.0,0.0,0.0,0.0,0.0,0.0,0.0,0.0,0.0,0.0,0.0,0.0,0.0,0.0,0.0,0.0,0.0,0.0,0.0,0.0,0.0,0.0,0.0,0.0,0.0,-2.4057,-2.5375,-2.6363,-2.6625,-2.5839,-2.6468,-2.7176,-2.7844,-2.8171,-2.8854,-3.0017,-3.0002,-3.0132,-3.0598,-3.0598,-3.0642,-3.0732,-3.0732,-3.0791,-3.0925,-3.0925,-3.0925,-3.0925,-3.0925,-3.0925,-3.0925,-3.0925,-3.0676,-3.0265,-3.0265,-2.962,-2.858,-2.8221,-2.7556,-2.6751,-2.6545,-2.6472,-2.6388,-2.5912,-2.5883,-2.5985,-2.556,-2.5258,-2.5106,-2.5106,-2.5106,-2.5116,-2.5116,-2.5178,-2.5123,-2.4775,-2.4688,-2.4594,-2.4015,-2.3895,-2.3879,-2.3655,-2.3595,-2.3595,-2.3595,-2.3287,-2.2658,-2.1624,-2.1764,-2.1819,-2.1203,-2.1449,-2.155,-2.1158,-2.1098,-2.0889,-2.0295,-2.0238,-2.0137,-1.9919,-1.9902,-1.9866,-1.9762,-1.9391,-1.9133,-1.9031,-1.8386,-1.7712,-1.7055,-1.6219,-1.5168,-1.3875,0.0,0.0,0.0,0.0,0.0,0.0,0.0,0.0,0.0,0.0,0.0,0.0,0.0,0.0,0.0,0.0,0.0,0.0,0.0,0.0,0.0,0.0,0.0,-2.1124,-2.3399,-2.5447,-2.67,-2.7969,-2.8492,-2.7855,-2.8376,-2.9,-2.9581,-2.9624,-2.9914,-3.0569,-3.0598,-3.0598,-3.0598,-3.0598,-3.0598,-3.0598,-3.0598,-3.0598,-3.0598,-3.0598,-3.0598,-3.0598,-3.0598,-3.0598,-3.0598,-3.0598,-3.0598,-3.0598,-3.0598,-3.0205,-2.9523,-2.8536,-2.8035,-2.781,-2.7226,-2.7018,-2.6977,-2.6846,-2.6358,-2.5847,-2.5847,-2.5454,-2.495,-2.495,-2.4995,-2.5053,-2.5053,-2.5165,-2.5261,-2.5232,-2.5313,-2.5239,-2.4586,-2.4521,-2.4433,-2.3752,-2.3625,-2.3625,-2.361,-2.361,-2.3415,-2.2838,-2.2718,-2.2508,-2.1859,-2.1754,0.0,-2.1724,-2.1171,-2.0748,-2.0703,-2.0124,-1.9723,-1.9708,-1.9708,-1.9708,-1.9708,-1.9678,-1.9678,-1.9678,-1.9016,-1.8356,-1.7697,-1.6473,-1.5829,-1.5799,0.0,0.0,0.0,0.0,0.0,0.0,0.0,0.0,0.0,0.0,0.0,0.0,0.0,0.0,0.0,0.0,0.0,0.0,0.0,0.0,0.0,0.0,-2.1876,-2.2538,-2.4663,-2.6638,-2.7964,-2.8846,-2.9483,-2.9769,-2.9987,-3.0162,-3.0306,-3.0321,-3.0423,-3.0598,-3.0598,-3.0598,-3.0598,-3.0598,-3.0598,-3.0598,-3.0598,-3.0598,-3.0598,-3.0598,-3.0598,-3.0598,-3.0598,-3.0598,-3.0598,-3.0598,-3.0598,-3.0598,-3.0598,-3.0496,-3.0263,-2.9479,-2.8619,-2.7721,-2.7561,-2.7239,-2.6846,-2.6806,-2.6689,-2.6544,-2.6544,-2.6428,-2.6283,-2.6283,-2.6283,-2.6308,-2.6308,-2.6334,-2.6269,-2.5887,-2.5805,-2.5693,-2.5132,-2.4994,-2.4864,-2.4169,-2.4036,-2.3933,-2.3584,-2.3516,-2.3478,-2.337,-2.334,-2.3281,-2.3101,-2.3071,0.0,-2.2478,-2.2269,-2.1769,-2.0793,-2.0543,-2.0228,-1.9753,-1.9708,-1.9708,-1.9708,-1.9241,-1.8972,-1.8972,-1.8326,-1.7893,-1.7713,-1.6891,-1.6248,0.0,0.0,0.0,0.0,0.0,0.0,0.0,0.0,0.0,0.0,0.0,0.0,0.0,0.0,0.0,0.0,0.0,0.0,0.0,0.0,0.0,0.0,-2.2351,-2.3548,-2.4102,-2.5595,-2.7108,-2.8405,-2.8903,-2.9421,-3.0115,-2.9886,-3.0062,-3.0915,-3.0715,-3.0799,-3.138,-3.1119,-3.0974,-3.0974,-3.0974,-3.0974,-3.0974,-3.0974,-3.0974,-3.0959,-3.0728,-3.0598,-3.0598,-3.0598,-3.0598,-3.0598,-3.0598,-3.0598,-3.0598,-3.0598,-3.0598,0.0,0.0,0.0,0.0,0.0,-2.7897,-2.7576,-2.7273,-2.7186,-2.7142,-2.6866,-2.6806,-2.6806,-2.6806,-2.6806,-2.6806,-2.6806,-2.6806,-2.6718,-2.6418,-2.6367,-2.6257,-2.5673,-2.5575,-2.5447,-2.4746,-2.4416,-2.4115,-2.3851,-2.3622,0.0,-2.356,-2.3588,-2.3595,-2.3595,-2.3595,-2.3475,-2.3116,-2.2868,-2.2403,-2.162,-2.1051,-2.0539,-2.0154,-1.9854,0.0,0.0,0.0,-1.8986,-1.8717,-1.8326,0.0,0.0,0.0,0.0,0.0,0.0,0.0,0.0,-1.7699,-1.8059,0.0,0.0,0.0,0.0,0.0,0.0,0.0,0.0,0.0,0.0,0.0,0.0,0.0,0.0,0.0,0.0,-2.4072,-2.5064,-2.5624,-2.627,-2.7104,-2.8244,-2.8395,-2.8666,-2.9421,-2.8958,-2.9334,-3.1111,-3.0768,-3.1019,-3.2309,0.0,0.0,0.0,0.0,-3.1596,-3.1596,-3.1596,-3.1596,-3.1596,-3.1061,-3.0816,-3.0816,-3.0743,-3.0714,-3.0714,-3.0641,-3.0598,-3.0598,-3.0598,-3.0598,-3.0539,-2.9871,-2.9595,-2.9523,-2.8913,-2.8709,-2.8622,-2.8014,0.0,0.0,-2.7099,-2.6895,-2.6881,-2.6835,-2.6806,-2.6806,-2.6806,-2.6806,-2.6806,-2.6806,-2.6899,-2.6831,-2.6232,-2.6186,-2.6075,-2.5413,-2.4811,-2.4341,-2.4217,-2.3844,-2.3555,-2.3502,-2.356,-2.3595,-2.3595,-2.3595,-2.3595,-2.3595,-2.3137,-2.2778,-2.2703,0.0,0.0,-2.0703,-2.0154,-1.9783,-1.9708,-1.9768,-1.954,-1.8957,-1.9001,-1.9316,-1.9917,-1.9932,-2.0516,-2.1695,-2.1769,-2.1799,-2.1754,-1.9373,-1.9899,0.0,0.0,0.0,0.0,0.0,0.0,0.0,0.0,0.0,0.0,0.0,0.0,0.0,0.0,0.0,-2.3951,-2.4772,-2.5461,-2.6214,-2.6459,-2.6824,-2.7591,-2.7703,-2.7953,-2.8666,-2.8991,-2.9331,-2.9704,-3.005,-3.0628,-3.15,-3.142,-3.1624,-3.2292,-3.2292,-3.2292,-3.2292,-3.2292,-3.2292,-3.2324,0.0,0.0,-3.2121,-3.1584,-3.1337,-3.1308,-3.083,-3.0598,-3.0598,-3.0598,-3.0598,-3.0539,-2.9871,-2.9595,-2.9523,-2.8913,-2.8709,-2.8694,-2.8536,-2.8507,-2.839,-2.7752,-2.7521,-2.7434,-2.6939,-2.6806,0.0,-2.6806,-2.6806,-2.6806,-2.6806,-2.6806,-2.6803,-2.6686,-2.6683,-2.6494,-2.5824,-2.5577,-2.5209,-2.4306,-2.4059,-2.3841,-2.3408,-2.348,-2.3595,-2.3595,-2.3595,-2.3595,-2.3595,-2.349,-2.3236,-2.2748,-2.2463,-2.1874,-2.0778,-2.0569,-2.0288,-1.9738,-2.0213,-2.0434,-2.0314,-2.0842,-2.1186,-2.1306,-2.1306,-2.144,-2.1695,-2.2239,-2.2508,-2.2493,-2.1984,-2.2343,0.0,0.0,0.0,0.0,0.0,0.0,0.0,0.0,0.0,0.0,0.0,-2.1265,-2.2109,0.0,-2.4499,-2.5679,-2.6237,-2.6685,-2.7078,-2.6914,-2.6801,-2.6977,-2.7007,-2.7367,-2.8299,-2.8334,-2.8844,-3.0105,-3.0164,-3.0613,-3.1633,-3.1392,-3.1377,-3.1797,-3.1797,-3.1979,-3.2392,-3.2392,-3.2604,-3.2991,-3.2672,-3.2481,-3.2481,-3.2133,-3.1988,-3.1959,-3.0967,-3.0556,-3.0542,-3.0228,-3.0099,-3.007,-2.9725,-2.9821,-3.006,-2.9769,-2.9653,-2.961,-2.9261,-2.9145,-2.9058,-2.8419,-2.8202,-2.8086,-2.7447,-2.7258,-2.72,-2.6866,-2.6806,-2.6806,-2.6806,-2.6806,-2.6806,-2.6806,-2.6806,-2.6718,-2.6358,-2.605,-2.5629,-2.5063,-2.4484,-2.3998,-2.3745,-2.3548,-2.3458,-2.3458,-2.3458,-2.3458,-2.3458,-2.3458,-2.3339,-2.3027,-2.2714,-2.2233,-2.1559,-2.1243,-2.0993,-2.0707,-2.1021,-2.1201,-2.1201,-2.1456,-2.1764,-2.2092,-2.2092,-2.2276,-2.2605,-2.296,-2.3152,-2.3167,-2.349,-2.3999,0.0,0.0,0.0,0.0,0.0,0.0,0.0,0.0,-2.0105,-2.1284,-2.2282,-2.334,-2.459,-2.5522,-2.6321,-2.7065,-2.7483,-2.7681,-2.7718,-2.7332,-2.6895,-2.6643,-2.6527,-2.6929,-2.8019,-2.771,-2.8336,-3.0521,-3.0286,-3.0598,-3.1792,-3.1325,-3.1119,-3.1297,-3.1297,-3.1615,-3.2228,-3.2277,-3.2599,-3.3217,-3.2667,-3.2438,-3.2424,-3.2276,-3.2219,-3.2144,-3.097,-3.0448,-3.0406,-2.9792,-2.954,-2.9526,-2.9432,-2.9701,-3.0176,-3.0176,-3.0176,-3.0104,-2.9572,-2.9401,-2.93,-2.867,-2.8498,-2.8326,-2.7581,-2.7324,-2.7223,-2.6767,-2.6621,-2.6621,-2.6621,-2.6621,-2.6621,-2.6621,-2.6621,-2.6674,-2.6779,-2.6384,-2.5963,-2.5832,-2.5063,-2.4391,-2.4274,-2.3795,-2.3378,-2.3312,-2.3297,-2.3297,-2.3297,-2.3297,-2.3297,-2.3297,-2.2825,-2.2435,-2.2317,-2.1774,-2.152,-2.1635,-2.1754,-2.1814,-2.1814,-2.1832,-2.2102,-2.2642,-2.2657,-2.291,-2.3466,-2.3523,-2.3604,-2.3739,-2.4268,-2.4902,-1.5814,-1.6451,-1.7639,-1.9083,-1.9516,-2.0442,0.0,0.0,-2.2999,-2.447,-2.5252,-2.5721,-2.5889,-2.6419,-2.6866,-2.7149,-2.7236,-2.7322,-2.752,-2.7211,-2.6996,-2.6934,-2.6696,-2.6747,-2.7359,-2.7756,-2.8333,-2.91,-2.9593,-3.0177,-3.1007,-3.0979,-3.1235,-3.1979,-3.1979,-3.2015,-3.2123,-3.2123,-3.2159,-3.2266,-3.2162,-3.2135,-3.2121,-3.1518,-3.1272,-3.121,-3.0541,-3.0215,-3.0195,-2.957,-2.9312,-2.9304,-2.8806,-2.8652,-2.8716,-2.8716,-2.8716,-2.8716,-2.8648,-2.8621,-2.8525,-2.7933,-2.7711,-2.7493,-2.6376,-2.6021,-2.6013,-2.6007,-2.6002,-2.6002,-2.6002,-2.6002,-2.6002,-2.6002,-2.6002,-2.6138,-2.6674,-2.6747,-2.6515,-2.5919,-2.5701,-2.5425,-2.482,-2.4219,-2.3725,-2.3364,-2.3297,-2.3297,-2.3297,-2.3297,-2.3297,-2.3297,-2.3223,-2.2958,-2.2361,-2.1692,-2.1324,-2.1344,-2.1895,-2.222,-2.222,-2.2802,-2.3142,-2.3216,-2.3216,-2.3245,-2.3319,-2.3341,-2.3615,-2.4115,-2.4227,-2.4726,-1.9263,-1.9636,0.0,0.0,-2.1861,-2.2871,-2.4121,-2.4133,-2.4145,-2.5107,-2.5733,-2.6202,-2.6526,-2.7095,-2.7629,0.0,-2.8057,-2.8173,-2.825,-2.768,-2.7335,-2.7457,-2.6899,-2.6839,-2.767,-2.7971,-2.8473,-2.9365,-2.9654,-2.9934,-3.0241,-3.0279,-3.0432,-3.0759,-3.0759,-3.0959,-3.1415,-3.1415,-3.1636,-3.211,-3.211,-3.211,-3.211,-3.1829,-3.1245,-3.0493,-3.0254,-2.9701,-2.8983,-2.9131,-2.9,-2.8703,-2.8451,-2.8193,-2.7953,-2.8363,-2.8492,-2.8492,-2.8492,-2.8492,-2.8451,-2.822,-2.8107,-2.7958,-2.7118,-2.6616,-2.6269,-2.5944,-2.5617,-2.537,-2.537,-2.537,-2.5453,-2.5839,-2.5893,-2.6056,-2.6674,-2.6806,-2.6733,-2.6442,-2.6079,-2.5705,-2.5429,-2.4839,-2.4379,-2.425,-2.3587,-2.3068,-2.3068,-2.3068,-2.3068,-2.3068,-2.3068,-2.2988,-2.2776,-2.2512,-2.2372,-2.2464,-2.2715,-2.2877,-2.2877,-2.3076,-2.3179,-2.3179,-2.3179,-2.3179,-2.3179,-2.3613,-2.3945,-2.4225,-2.5005,-2.5579,-2.138,0.0,0.0,-2.2462,-2.358,-2.4458,-2.4242,-2.4482,-2.4856,-2.542,-2.5829,-2.6274,-2.6789,-2.735,-2.7811,-2.821,-2.84,-2.8555,-2.8712,-2.7968,-2.7483,-2.7681,-2.6895,-2.6724,-2.7711,-2.7847,-2.8411,-2.9691,-2.9641,-2.9616,-2.9779,-2.974,-2.9702,-2.9792,-2.974,-2.9934,-3.0481,-3.057,-3.0833,-3.1267,-3.1341,-3.1341,-3.1267,-3.1267,-3.0723,-2.9802,-2.9802,-2.9274,-2.84,-2.8727,-2.8697,-2.8357,-2.8061,-2.7722,-2.747,-2.7756,-2.7887,-2.7953,-2.7953,-2.7953,-2.7953,-2.7953,-2.7953,-2.7847,-2.7224,-2.6733,-2.629,-2.5708,-2.5273,-2.4939,-2.4778,-2.4766,-2.4851,-2.5286,-2.5411,-2.5578,-2.615,-2.6299,-2.6299,-2.6299,-2.5914,-2.5586,-2.5586,-2.5174,-2.4798,-2.4661,-2.3817,-2.3175,-2.3178,-2.3004,-2.2888,-2.2888,-2.2888,-2.2947,-2.3037,-2.3037,-2.3105,-2.3187,-2.3187,-2.3187,-2.3187,-2.3105,-2.3037,-2.3037,-2.3037,-2.3037,-2.3037,-2.3779,-2.4197,-2.4388,-2.5556,-2.6186,0.0,0.0,-2.2426,-2.3493,-2.4121,-2.465,-2.5155,-2.5276,-2.5432,-2.5961,-2.6093,-2.6274,-2.6789,-2.691,-2.709,-2.7618,-2.7753,-2.7921,-2.8438,-2.7777,-2.7273,-2.7483,-2.6562,-2.6225,0.0,-2.7199,-2.7996,-2.9666,-2.9277,-2.9202,-2.9767,-2.956,-2.9509,-2.9792,-2.956,-2.9419,-2.9457,-2.9689,-2.9624,-2.9197,-2.938,-2.938,-2.9209,-2.9209,-2.9157,-2.9145,-2.9145,-2.9094,-2.9045,-2.8516,-2.8435,-2.8487,-2.7455,-2.7139,-2.7228,-2.6539,-2.6396,-2.6555,-2.6555,-2.6555,-2.6555,-2.6555,-2.6555,-2.6454,-2.5841,-2.5652,-2.5532,-2.5052,-2.4909,-2.4796,-2.4262,-2.4118,-2.4118,-2.4147,-2.4147,-2.4321,-2.4922,-2.5035,-2.5035,-2.5035,-2.505,-2.5008,-2.5008,-2.4954,-2.4685,-2.4123,-2.3946,-2.3876,-2.3864,-2.3302,-2.2888,-2.2888,-2.2888,-2.2888,-2.2925,-2.2925,-2.2925,-2.2925,-2.291,-2.291,-2.291,-2.2925,-2.2925,-2.2925,-2.2925,-2.2925,-2.2902,-2.3586,-2.421,-2.4795,-2.5473,-2.6152,0.0,0.0,-2.3433,-2.4097,-2.4662,-2.5083,-2.5264,-2.5312,-2.536,-2.554,-2.53,-2.5324,-2.6214,-2.6093,-2.6262,-2.7486,-2.7678,-2.7909,-2.8438,-2.8041,-2.7638,-2.7322,-2.7091,0.0,0.0,0.0,0.0,-2.8708,-2.8621,-2.8757,-2.9314,-2.9248,-2.9248,-2.9339,-2.9248,-2.9197,-2.9197,-2.9287,-2.926,-2.9091,-2.917,-2.917,-2.9091,-2.9091,-2.9091,-2.9091,-2.9091,-2.9091,-2.9079,-2.8895,-2.8639,-2.8359,-2.8001,-2.7459,-2.6864,-2.662,-2.6359,-2.6119,-2.6258,-2.6396,-2.6499,-2.6499,-2.6499,-2.6461,-2.626,-2.5933,-2.5589,-2.5407,-2.4836,-2.4251,-2.4091,-2.3747,-2.3543,-2.3985,-2.4102,-2.4263,-2.4879,-2.5007,-2.5007,-2.5007,-2.5007,-2.5007,-2.5007,-2.4983,-2.4751,-2.4109,-2.3593,-2.3187,-2.282,-2.2582,-2.2304,-2.1926,-2.1908,-2.2063,-2.2417,-2.244,-2.2555,-2.2865,-2.2888,-2.2752,-2.244,-2.244,-2.2263,-2.1908,-2.2263,-2.244,-2.2454,-2.3827,-2.4607,-2.4892,-2.5952,-2.6562,-2.3384,-2.3926,-2.4206,-2.4915,-2.5336,-2.5588,-2.5588,-2.5444,-2.5252,-2.5059,-2.4614,-2.4458,-2.5143,-2.4831,-2.5059,-2.6851,-2.714,-2.7464,-2.8378,-2.8159,-2.7803,-2.7527,-2.737,-2.7297,0.0,0.0,0.0,-2.849,-2.8404,-2.8514,-2.9067,-2.9013,-2.9013,-2.9091,-2.9013,-2.9,-2.9,-2.9052,-2.9052,-2.9,-2.8934,-2.8907,-2.8907,-2.8907,-2.8907,-2.8907,-2.8907,-2.8907,-2.8907,-2.8907,-2.8726,-2.8474,-2.8278,-2.7704,-2.6943,-2.6711,-2.6294,-2.591,-2.6062,-2.6201,-2.6292,-2.6292,-2.6292,-2.6292,-2.6361,-2.6111,-2.5761,-2.5661,-2.5096,-2.4481,-2.4104,-2.3715,-2.348,-2.3684,-2.375,-2.3855,-2.425,-2.4323,-2.4323,-2.4323,-2.4323,-2.4323,-2.4323,-2.4323,-2.4262,-2.4059,-2.3478,-2.2908,-2.2517,-2.25,-2.2351,-2.2022,-2.1968,-2.2024,-2.2197,-2.2207,-2.2253,-2.237,-2.2356,-2.224,-2.1921,-2.1898,-2.1742,-2.1417,-2.1939,-2.2207,-2.2207,-2.3769,-2.4541,-2.4609,-2.5655,-2.615,-2.3734,-2.4242,-2.4879,-2.5889,-2.6117,-2.6093,-2.6093,-2.5661,-2.5119,-2.4556,-2.4061,-2.3722,0.0,0.0,-2.3652,-2.5721,-2.6105,-2.6707,-2.8318,-2.8114,-2.7828,0.0,0.0,0.0,0.0,0.0,0.0,-2.9015,0.0,-2.8488,-2.9028,-2.8882,-2.8882,-2.9052,-2.8882,-2.8803,-2.8803,-2.8961,-2.8961,-2.8803,-2.8578,-2.851,-2.851,-2.851,-2.851,-2.851,-2.851,-2.851,-2.851,-2.851,-2.8618,-2.8743,-2.8232,-2.7797,-2.7422,-2.6688,-2.6224,-2.5912,-2.5875,-2.5875,-2.591,-2.591,-2.591,-2.5945,-2.6131,-2.6166,-2.6089,-2.5732,-2.559,-2.536,-2.4311,-2.4042,-2.3866,-2.3283,-2.312,-2.3108,-2.3108,-2.3108,-2.3108,-2.3108,-2.3078,-2.3078,-2.3078,-2.3078,-2.3318,-2.3914,-2.3484,-2.3076,-2.2978,-2.295,-2.2963,-2.2936,-2.291,-2.2734,-2.2258,-2.2204,-2.1986,-2.1515,-2.1488,-2.1464,-2.144,-2.144,-2.144,-2.1415,-2.1945,-2.2204,-2.2204,-2.3419,-2.3987,-2.4001,-2.4679,-2.5021,-2.4771,-2.56,-2.6345,-2.6609,-2.6406,-2.6093,-2.6093,-2.5384,-2.4578,-2.4061,-2.3264,-2.2594,-2.2594,0.0,0.0,-2.5228,-2.6153,0.0,-2.8871,-2.8979,0.0,0.0,0.0,-2.9164,-2.8807,-2.8731,0.0,0.0,-2.8391,-2.8113,-2.8633,-2.8618,-2.859,-2.8669,-2.859,-2.8578,-2.8578,-2.863,-2.863,-2.8578,-2.851,-2.851,-2.851,-2.851,-2.851,-2.851,-2.851,-2.851,-2.851,-2.851,-2.855,-2.8566,-2.8433,-2.8059,-2.7567,-2.6998,-2.6492,-2.5985,-2.5598,-2.5653,-2.591,-2.591,-2.591,-2.591,-2.5945,-2.598,-2.5955,-2.583,-2.5599,-2.5315,-2.5041,-2.4478,-2.3966,-2.3816,-2.3421,-2.3108,-2.3108,-2.3108,-2.3108,-2.3108,-2.3017,-2.2939,-2.2939,-2.2878,-2.286,-2.303,-2.3,-2.2827,-2.2515,-2.247,-2.2344,-2.1922,-2.1871,-2.1984,-2.2246,-2.2259,-2.2366,-2.257,-2.2582,-2.2454,-2.2089,-2.2075,-2.1877,-2.1476,-2.1994,-2.2259,-2.2286,-2.3447,-2.3987,-2.4001,-2.4679,-2.5245,-2.5769,-2.6597,-2.7186,-2.6958,-2.6657,-2.6274,-2.5564,-2.4771,-2.3917,-2.2963,-2.2077,0.0,-2.1506,0.0,0.0,0.0,0.0,0.0,-2.8727,-2.9148,-2.9388,0.0,-2.9905,0.0,-2.9677,-2.9641,-2.9641,0.0,-2.8667,-2.8198,-2.8498,-2.851,-2.851,-2.851,-2.851,-2.851,-2.851,-2.851,-2.851,-2.851,-2.851,-2.851,-2.851,-2.851,-2.851,-2.851,0.0,-2.851,-2.851,-2.851,-2.851,-2.851,-2.851,-2.8186,-2.7642,-2.7354,-2.6741,-2.6057,-2.5757,-2.5658,-2.5653,-2.5653,-2.5653,-2.5641,-2.5723,-2.5758,-2.5793,-2.5875,-2.5758,-2.5496,-2.5283,-2.4843,-2.437,-2.3897,-2.3536,-2.3194,-2.2989,-2.2909,-2.2909,-2.2909,-2.2848,-2.28,-2.28,-2.2739,-2.272,-2.272,-2.2769,-2.2737,-2.2486,-2.2585,-2.2548,-2.2246,-2.2209,-2.2223,-2.2281,-2.2296,-2.2319,-2.2335,-2.2336,-2.2213,-2.1952,-2.1952,-2.1814,-2.1521,-2.2028,-2.2296,-2.2296,-2.3189,-2.3592,-2.3605,-2.3977,-2.4337,-2.6521,-2.7165,-2.7499,-2.6859,-2.6631,-2.6168,-2.467,-2.3939,-2.311,-2.159,0.0,-2.0478,-2.0398,0.0,-2.1825,-2.3445,0.0,-2.6502,-2.8258,-2.8967,-2.952,-3.0122,-3.0254,-3.0302,-3.0302,-3.023,-3.0194,-3.0194,-2.9208,-2.8619,-2.8619,-2.8546,-2.851,-2.851,-2.851,-2.851,-2.851,-2.851,-2.851,-2.851,-2.851,-2.851,-2.851,-2.851,-2.851,-2.851,-2.851,0.0,-2.851,-2.851,-2.851,-2.851,-2.851,-2.8234,-2.7813,-2.7753,-2.7128,-2.6298,-2.6238,-2.5853,-2.5396,-2.5336,-2.5312,-2.5347,-2.55,-2.5571,-2.5606,-2.5758,-2.5828,-2.5765,-2.5298,-2.5114,-2.4865,-2.3919,-2.3587,-2.3366,-2.2899,-2.277,-2.272,-2.272,-2.2678,-2.2647,-2.2647,-2.2659,-2.2616,-2.2616,-2.2659,-2.2647,-2.2647,-2.2878,-2.3047,-2.3047,-2.3047,-2.286,-2.2385,-2.2335,-2.2163,-2.1716,-2.1678,-2.1678,-2.1707,-2.1707,-2.1707,-2.1707,-2.2184,-2.2422,-2.2422,-2.2869,-2.3108,-2.3108,-2.3108,-2.3138,-2.598,-2.6556,-2.7013,-2.5766,-2.5143,-2.4619,-2.3777,-2.2855,0.0,0.0,0.0,-1.9793,-1.9375,-2.0081,0.0,-2.2891,0.0,0.0,0.0,0.0,-2.9653,0.0,0.0,0.0,0.0,0.0,0.0,0.0,0.0,-2.916,-2.916,-2.8751,-2.851,-2.851,-2.851,-2.851,-2.851,-2.851,-2.851,-2.851,-2.851,-2.851,-2.851,-2.851,-2.851,-2.851,-2.851,0.0,-2.851,-2.851,-2.851,-2.851,-2.851,-2.845,-2.8318,-2.7846,-2.757,-2.7342,-2.691,-2.6418,-2.5889,-2.5444,-2.5312,-2.5312,-2.5347,-2.5347,-2.5347,-2.5382,-2.5535,-2.5629,-2.5531,-2.5328,-2.505,-2.4865,-2.414,-2.3464,-2.3366,-2.2997,-2.272,-2.272,-2.2586,-2.2451,-2.2451,-2.2371,-2.229,-2.229,-2.2371,-2.2451,-2.2451,-2.2647,-2.2769,-2.2769,-2.2769,-2.2732,-2.2633,-2.2633,-2.2644,-2.2665,-2.2653,-2.2713,-2.2819,-2.2819,-2.2819,-2.2819,-2.2907,-2.2957,-2.2957,-2.3058,-2.3108,-2.3108,-2.3108,-2.3395,-2.6042,-2.6239,-2.6203,-2.5055,-2.4417,-2.3693,-2.2446,0.0,0.0,0.0,0.0,-1.9114,-1.822,0.0,0.0,0.0,0.0,0.0,0.0,0.0,0.0,0.0,0.0,0.0,0.0,0.0,0.0,0.0,0.0,-2.9593,-2.9316,-2.8799,-2.851,-2.851,-2.851,-2.851,-2.851,-2.851,-2.851,-2.851,-2.851,-2.851,-2.851,-2.851,-2.851,-2.851,-2.851,0.0,-2.851,-2.851,-2.851,-2.851,-2.851,-2.851,-2.8474,-2.8222,-2.7957,-2.7642,-2.739,-2.6791,-2.6057,-2.5793,-2.5528,-2.5312,-2.5312,-2.5312,-2.5312,-2.5312,-2.5382,-2.5453,-2.5453,-2.5307,-2.5121,-2.4842,-2.422,-2.3648,-2.3648,-2.3223,-2.2858,-2.2858,-2.2565,-2.2309,-2.2309,-2.2247,-2.2197,-2.2197,-2.2247,-2.2309,-2.2309,-2.2371,-2.2494,-2.2678,-2.272,-2.272,-2.272,-2.272,-2.2739,-2.28,-2.28,-2.283,-2.2878,-2.2878,-2.2878,-2.2878,-2.2969,-2.2987,-2.2987,-2.3078,-2.3108,-2.3108,-2.3108,-2.3275,-2.5803,-2.5643,-2.5139,-2.4108,-2.352,-2.2724,-2.0941,-2.0212,0.0,0.0,-1.8294,-1.8321,-1.7368,0.0,0.0,0.0,0.0,0.0,0.0,0.0,0.0,0.0,0.0,0.0,0.0,0.0,0.0,0.0,0.0,0.0,-2.916,-2.8739,-2.851,-2.851,-2.851,-2.851,-2.851,-2.851,-2.851,-2.851,-2.851,-2.851,-2.851,-2.851,-2.851,-2.851,-2.851,0.0,0.0,-2.851,-2.851,-2.851,-2.851,-2.851,-2.851,-2.851,-2.8246,-2.7885,-2.7885,-2.726,-2.643,-2.631,-2.5841,-2.5312,-2.5312,-2.5312,-2.5312,-2.5312,-2.5312,-2.5312,-2.5312,-2.5312,-2.5168,-2.465,-2.4218,-2.3926,-2.383,-2.3481,-2.318,-2.318,-2.2758,-2.2354,-2.2354,-2.227,-2.2197,-2.2197,-2.2197,-2.2197,-2.2197,-2.2197,-2.229,-2.2555,-2.2598,-2.2598,-2.2598,-2.2598,-2.2616,-2.2616,-2.2647,-2.2647,-2.272,-2.272,-2.272,-2.272,-2.28,-2.2848,-2.2848,-2.2969,-2.3017,-2.3047,-2.3047,-2.314,-2.4323,-2.4209,-2.367,-2.2438,-2.1787,-2.1043,-1.9445,0.0,0.0,-1.7451,-1.7341,-1.7341,-1.723,-1.7334,0.0,0.0,0.0,0.0,0.0,0.0,0.0,0.0,0.0,0.0,0.0,0.0,0.0,0.0,0.0,0.0,-2.8643,-2.8534,-2.851,-2.851,-2.851,-2.851,-2.851,-2.851,-2.851,-2.851,-2.851,-2.851,-2.851,-2.851,-2.851,-2.851,-2.851,0.0,0.0,-2.851,-2.851,-2.851,-2.851,-2.851,-2.851,-2.851,-2.8474,-2.8438,-2.8438,-2.8053,-2.745,-2.697,-2.6117,-2.5312,-2.5312,-2.5312,-2.5312,-2.5312,-2.5312,-2.5312,-2.5312,-2.5312,-2.5168,-2.465,-2.4482,-2.4326,-2.3902,-2.3758,-2.3734,-2.3734,-2.33,-2.2939,-2.2939,-2.251,-2.2197,-2.2197,-2.2197,-2.2197,-2.2197,-2.2197,-2.2228,-2.2259,-2.2259,-2.2259,-2.2259,-2.2259,-2.2309,-2.242,-2.242,-2.2525,-2.269,-2.272,-2.272,-2.272,-2.2708,-2.2708,-2.2708,-2.2739,-2.28,-2.2909,-2.2909,-2.3274,-2.2952,-2.2909,-2.2468,-2.1683,-2.0927,-2.0161,-1.9117,0.0,-1.7657,-1.6816,-1.695,-1.6978,-1.6244,-1.6415,-1.6796,-1.7236,-1.7682,-1.88,0.0,0.0,0.0,0.0,0.0,0.0,0.0,0.0,0.0,0.0,0.0,0.0,-2.857,-2.851,-2.851,-2.851,-2.851,-2.851,-2.851,-2.851,-2.851,-2.851,-2.851,-2.851,-2.851,-2.851,-2.851,-2.851,-2.851,0.0,0.0,-2.851,-2.851,-2.851,-2.851,-2.851,-2.851,-2.851,-2.851,-2.851,-2.851,-2.8162,-2.7654,-2.7438,-2.6671,-2.5721,-2.5408,-2.5312,-2.5312,-2.5312,-2.5312,-2.5312,-2.5312,-2.5312,-2.5252,-2.5047,-2.4987,-2.4939,-2.4735,-2.4446,-2.4218,-2.4218,-2.3809,-2.3493,-2.3493,-2.3312,-2.3168,-2.3168,-2.3168,-2.3168,-2.3168,-2.3168,-2.3047,-2.2702,-2.2378,-2.2197,-2.2197,-2.2197,-2.2216,-2.2278,-2.2278,-2.2309,-2.2414,-2.2414,-2.2414,-2.2414,-2.2494,-2.2525,-2.2525,-2.2978,-2.32,-2.3263,-2.354,-2.3843,-2.1927,-2.198,-2.1621,-2.1268,-2.0527,-1.9691,0.0,0.0,-1.7083,-1.6219,-1.6358,-1.6415,-1.5555,-1.5748,-1.6026,-1.6026,-1.6329,-1.7273,-1.9424,0.0,0.0,0.0,0.0,0.0,0.0,0.0,0.0,0.0,0.0,0.0,-2.8558,-2.851,-2.851,-2.851,-2.851,-2.851,-2.851,-2.851,-2.851,-2.851,-2.851,-2.851,-2.851,-2.851,-2.851,-2.851,-2.851,0.0,0.0,-2.851,-2.851,-2.851,-2.851,-2.851,-2.851,-2.851,-2.851,-2.851,-2.851,-2.827,-2.7933,-2.7726,-2.72,-2.6478,-2.5949,-2.5564,-2.5312,-2.5312,-2.5312,-2.5312,-2.5312,-2.5312,-2.5312,-2.5312,-2.5312,-2.5312,-2.5312,-2.5011,-2.4759,-2.4759,-2.4338,-2.3989,-2.3989,-2.3902,-2.3806,-2.3806,-2.3806,-2.3806,-2.3806,-2.3806,-2.3661,-2.3288,-2.2915,-2.2534,-2.2221,-2.2342,-2.2354,-2.2197,-2.2342,-2.2426,-2.2426,-2.2582,-2.2654,-2.2654,-2.2781,-2.28,-2.28,-2.3347,-2.3594,-2.3671,-2.3994,-2.4251,-2.134,-2.1507,-2.12,-2.119,-2.0527,-1.958,0.0,-1.7344,-1.6453,-1.5596,-1.541,-1.541,-1.541,-1.541,-1.541,-1.541,-1.6373,-1.7769,-1.9729,0.0,0.0,0.0,0.0,0.0,0.0,0.0,0.0,0.0,0.0,0.0,-2.8495,-2.851,-2.851,-2.851,-2.851,-2.851,-2.851,-2.851,-2.851,-2.851,-2.851,-2.851,-2.851,-2.851,-2.851,0.0,0.0,0.0,0.0,-2.851,-2.851,-2.851,-2.851,-2.851,-2.851,-2.851,-2.851,-2.851,-2.851,-2.851,-2.8414,-2.7858,-2.7678,-2.757,-2.7042,-2.6129,-2.5312,-2.5312,-2.5312,-2.5312,-2.5312,-2.5312,-2.5312,-2.5312,-2.5312,-2.5312,-2.5312,-2.53,-2.53,-2.53,-2.4879,-2.4472,-2.4472,-2.4097,-2.3806,-2.3806,-2.3806,-2.3806,-2.3806,-2.3806,-2.3806,-2.3794,-2.3794,-2.336,-2.2282,-2.2678,-2.2782,-2.2221,-2.271,-2.2999,-2.2999,-2.3505,-2.3782,-2.3782,-2.3782,-2.3794,-2.3794,-2.3794,-2.386,-2.4001,-2.4013,-2.4405,-1.881,-1.9094,-1.8997,-1.8997,-1.8603,-1.7998,-1.7262,-1.6689,-1.6113,-1.5527,-1.541,-1.541,-1.541,-1.541,-1.5615,-1.618,-1.6602,0.0,0.0,0.0,0.0,0.0,0.0,0.0,0.0,0.0,0.0,0.0,0.0,0.0,-2.6682,-2.7834,-2.851,-2.851,-2.851,-2.851,-2.851,-2.851,-2.851,-2.851,-2.851,-2.8179,-2.7603,-2.7603,-2.7255,0.0,0.0,0.0,0.0,-2.6659,-2.6659,-2.6659,-2.6659,-2.6659,-2.6741,-2.7389,-2.7603,-2.7684,-2.8299,-2.851,-2.8486,-2.8318,-2.8017,-2.7654,-2.7486,-2.6707,-2.5769,-2.5408,-2.5312,-2.5312,-2.5312,-2.5312,-2.5312,-2.5312,-2.5312,-2.5312,-2.5312,-2.5312,-2.5312,-2.5312,-2.5168,-2.5059,-2.5059,-2.4927,-2.4819,-2.4819,-2.4819,-2.4819,-2.4819,-2.4819,-2.4675,-2.4326,-2.4602,-2.4398,-2.3396,-2.3457,-2.3481,-2.3312,-2.3457,-2.3553,-2.3553,-2.371,-2.3806,-2.3806,-2.3806,-2.3806,-2.3806,-2.4109,-2.4504,-2.4888,-2.4888,-2.5007,0.0,-1.7696,-1.7974,-1.794,-1.7662,-1.7275,-1.6804,-1.6387,-1.5947,-1.543,-1.5362,-1.5391,-1.5332,-1.5362,-1.5586,-1.6112,-1.6377,0.0,0.0,0.0,0.0,0.0,0.0,0.0,0.0,0.0,0.0,0.0,0.0,0.0,-2.5841,-2.6876,-2.7458,-2.7458,-2.7846,-2.8007,-2.8007,-2.7672,-2.7458,-2.7458,-2.7458,-2.7214,-2.667,-2.667,-2.6329,0.0,0.0,0.0,0.0,-2.5777,-2.5777,-2.5777,-2.5777,-2.5777,-2.5861,-2.6464,-2.667,-2.6753,-2.7296,-2.7458,-2.7458,-2.7458,-2.725,-2.6948,-2.6762,-2.6406,-2.5985,-2.5456,-2.5312,-2.5312,-2.5312,-2.5312,-2.5312,-2.5312,-2.5312,-2.5312,-2.5312,-2.5312,-2.5312,-2.5312,-2.5312,-2.5312,-2.5312,-2.5312,-2.5312,-2.5312,-2.5312,-2.5312,-2.5312,-2.5312,-2.518,-2.4855,-2.5107,-2.5047,-2.441,-2.4169,-2.4011,-2.3818,-2.3986,-2.4049,-2.4049,-2.4242,-2.4384,-2.4384,-2.4384,-2.4384,-2.435,-2.4662,-2.4987,-2.5312,-2.5312,-2.5312,0.0,-1.697,-1.7667,-1.7557,-1.7362,-1.7058,-1.6658,-1.6268,0.0,-1.5321,-1.5284,-1.5352,-1.5292,-1.5322,-1.541,-1.5586,0.0,0.0,0.0,0.0,0.0,0.0,0.0,0.0,0.0,0.0,0.0,0.0,0.0,0.0,-2.5579,-2.5746,-2.5777,-2.5694,-2.6547,-2.7062,-2.7092,-2.6246,-2.5777,-2.5777,-2.5777,-2.5777,-2.5694,-2.5694,-2.5652,0.0,0.0,0.0,0.0,-2.561,-2.561,-2.561,-2.561,-2.561,-2.561,-2.5694,-2.5694,-2.5704,-2.5777,-2.5777,-2.5777,-2.5777,-2.5777,-2.569,-2.5169,-2.5456,-2.5899,-2.5338,-2.5182,-2.5171,-2.5135,-2.5123,-2.5123,-2.5123,-2.5123,-2.5123,-2.5123,-2.5123,-2.5123,-2.5123,-2.5194,-2.5194,-2.5194,-2.5276,-2.5312,-2.5312,-2.5312,-2.5312,-2.5312,-2.5312,-2.5312,-2.5312,-2.5312,-2.5312,-2.5312,-2.482,-2.4374,-2.3938,-2.4326,-2.4578,-2.4578,-2.5047,-2.5312,-2.5312,-2.5312,-2.5312,-2.5312,-2.5312,-2.5312,-2.5312,-2.5312,-2.5312,-1.3638,0.0,-1.4916,-1.4764,-1.4917,-1.5089,0.0,-1.5186,-1.5232,-1.5205,0.0,-1.5288,-1.5844,-1.5497,-1.5643,0.0,0.0,0.0,0.0,0.0,0.0,0.0,0.0,0.0,0.0,0.0,0.0,0.0,0.0,-2.4284,-2.3767,-2.5073,-2.5495,-2.4829,-2.5041,-2.5463,-2.6121,-2.5913,-2.5777,-2.5777,-2.5777,-2.5453,-2.4829,-2.4829,-2.4402,0.0,0.0,0.0,-2.3724,-2.3724,-2.3724,-2.3724,-2.3724,-2.3724,-2.381,-2.4531,-2.4829,-2.4914,-2.5579,-2.5777,-2.5777,-2.5777,-2.5777,-2.569,-2.5169,-2.5106,-2.5071,-2.4252,-2.3995,-2.3932,-2.3638,-2.3537,-2.3537,-2.3537,-2.3537,-2.3537,-2.3537,-2.3537,-2.3537,-2.3537,-2.4011,-2.4373,-2.4373,-2.4898,-2.5312,-2.5312,-2.5312,-2.5312,-2.5312,-2.5312,-2.5312,-2.5312,-2.5312,-2.5312,-2.5312,-2.5192,-2.5071,-2.4951,-2.5059,-2.5119,-2.5119,-2.524,-2.5312,-2.5312,-2.5312,-2.5312,-2.5312,-2.5312,-2.5312,-2.5312,-2.5312,-2.5312,-1.2625,-1.3531,-1.4458,-1.4468,-1.4724,-1.5029,-1.5279,0.0,0.0,0.0,0.0,-1.5112,-1.5435,0.0,0.0,0.0,0.0,0.0,0.0,0.0,0.0,0.0,0.0,0.0,0.0,0.0,0.0,0.0,0.0,-2.3299,-2.2794,-2.3714,-2.4006,-2.3551,-2.356,-2.4059,-2.52,-2.4776,-2.4563,-2.4563,-2.4563,-2.4317,-2.3864,-2.3864,-2.356,0.0,0.0,0.0,-2.3091,-2.3091,-2.3091,-2.3091,-2.3091,-2.3091,-2.3178,-2.3691,-2.3864,-2.395,-2.4402,-2.4563,-2.4563,-2.4563,-2.4563,-2.4522,-2.423,-2.4115,-2.4086,-2.3935,-2.3737,-2.3536,-2.3324,-2.3132,-2.2995,-2.2995,-2.2995,-2.2995,-2.2995,-2.2995,-2.2995,-2.2995,-2.3316,-2.361,-2.361,-2.395,-2.424,-2.424,-2.424,-2.424,-2.424,-2.424,-2.424,-2.424,-2.4564,-2.4755,-2.4755,-2.5087,-2.5312,-2.5312,-2.5312,-2.5312,-2.5312,-2.5312,-2.5312,-2.5312,-2.5312,-2.5312,-2.5312,-2.5312,-2.5312,-2.5312,-2.5312,-2.5312,-1.2432,-1.3707,-1.5004,-1.4918,-1.5168,-1.5506,-1.5807,0.0,0.0,0.0,0.0,0.0,0.0,0.0,0.0,0.0,0.0,0.0,0.0,0.0,0.0,0.0,0.0,0.0,0.0,0.0,0.0,0.0,0.0,-2.2397,-2.2397,-2.2397,-2.2397,-2.2397,-2.2397,-2.295,-2.4155,-2.3387,-2.3003,-2.3003,-2.3003,-2.3003,-2.3003,-2.3003,-2.3003,-2.3003,0.0,0.0,-2.3003,-2.3003,-2.3003,-2.3003,-2.3003,-2.3003,-2.3013,-2.3057,-2.3047,-2.3003,-2.3003,-2.3003,-2.3003,-2.3003,-2.3003,-2.3003,-2.3003,-2.3003,-2.3109,-2.3751,-2.3647,-2.3392,-2.3367,-2.3019,-2.2692,-2.273,-2.2676,-2.2611,-2.2611,-2.2611,-2.2611,-2.2611,-2.2734,-2.2809,-2.2809,-2.292,-2.2995,-2.2995,-2.2995,-2.2995,-2.2995,-2.2995,-2.2995,-2.2995,-2.3573,-2.3927,-2.3927,-2.4564,-2.4933,-2.4933,-2.5158,-2.5312,-2.5312,-2.5312,-2.5312,-2.5312,-2.5312,-2.5312,-2.5312,-2.5312,-2.5312,-2.5312,-2.5312,-2.5312,-1.2946,-1.4096,-1.478,-1.3424,-1.3884,-1.4643,-1.4464,0.0,0.0,0.0,0.0,0.0,0.0,0.0,0.0,0.0,0.0,0.0,0.0,0.0,0.0,0.0,0.0,0.0,0.0,0.0,0.0,0.0,0.0,-2.2397,-2.2397,-2.2397,-2.2397,-2.2397,-2.2397,-2.2476,-2.274,-2.2564,-2.253,-2.253,-2.253,-2.253,-2.253,-2.253,-2.253,-2.253,0.0,-2.253,-2.253,-2.253,-2.253,-2.253,-2.253,-2.253,-2.252,-2.275,-2.2706,-2.253,-2.253,-2.253,-2.253,-2.253,-2.253,-2.253,-2.253,-2.253,-2.2545,-2.2621,-2.2541,-2.2404,-2.2195,-2.1688,-2.1282,-2.1441,-2.1222,-2.0972,-2.0972,-2.0972,-2.0972,-2.0972,-2.1499,-2.1983,-2.1983,-2.2547,-2.2995,-2.2995,-2.2995,-2.2995,-2.2995,-2.2995,-2.2995,-2.2995,-2.3106,-2.318,-2.318,-2.3279,-2.3353,-2.3353,-2.4576,-2.5312,-2.5312,-2.5312,-2.5312,-2.5312,-2.5312,-2.5312,-2.5312,-2.5312,-2.5312,-2.5312,-2.5312,-2.5312,-1.256,-1.3516,-1.4313,-1.3791,-1.4909,-1.6107,-1.5979,0.0,0.0,0.0,0.0,0.0,0.0,0.0,0.0,0.0,0.0,0.0,0.0,0.0,0.0,0.0,0.0,0.0,0.0,0.0,0.0,0.0,0.0,0.0,-2.1998,-2.1998,-2.1998,-2.1998,-2.1998,-2.1998,-2.1998,-2.1998,-2.2132,-2.2397,-2.2397,-2.2397,-2.2397,-2.2397,-2.2397,-2.2397,0.0,-2.2397,-2.2397,-2.2397,-2.2397,-2.2397,-2.2397,-2.2397,-2.2388,-2.253,-2.253,-2.2397,-2.2397,-2.2397,-2.2397,-2.2397,-2.2397,-2.2397,-2.2397,-2.2397,-2.2397,-2.2397,-2.2191,-2.1959,-2.1853,-2.1457,-2.11,-2.1183,-2.0878,-2.0641,-2.073,-2.0585,-2.0459,-2.0566,-2.0905,-2.1165,-2.1165,-2.1461,-2.168,-2.168,-2.168,-2.168,-2.168,-2.168,-2.168,-2.168,-2.2096,-2.236,-2.236,-2.2734,-2.2995,-2.2995,-2.4059,-2.4636,-2.4636,-2.5087,-2.5312,-2.5312,-2.5312,-2.5312,-2.5312,-2.5312,-2.5312,-2.5312,-2.5312,-2.5312,-1.233,-1.3176,-1.413,-1.4543,0.0,-1.7009,-1.7293,0.0,0.0,0.0,0.0,0.0,0.0,0.0,0.0,0.0,0.0,0.0,0.0,0.0,0.0,0.0,0.0,0.0,0.0,0.0,0.0,0.0,0.0,0.0,-2.1696,-2.1696,-2.1696,-2.1696,-2.1696,-2.1696,-2.1696,-2.1696,-2.1865,-2.2264,-2.2264,-2.2264,-2.2264,-2.2264,-2.2264,-2.2264,-2.2264,-2.2264,-2.2264,-2.2264,-2.2264,-2.2264,-2.2264,-2.2264,-2.2309,-2.2264,-2.2264,-2.2309,-2.2264,-2.2264,-2.2264,-2.2264,-2.2264,-2.2264,-2.2264,-2.2264,-2.2264,-2.2264,-2.1995,-2.1804,-2.1925,-2.158,-2.1278,-2.1329,-2.104,-2.0749,-2.0816,-2.0569,-2.038,-2.043,-2.045,-2.045,-2.0527,-2.0489,-2.045,-2.0527,-2.0527,-2.0527,-2.0527,-2.0566,-2.0605,-2.0605,-2.1165,-2.1499,-2.1499,-2.2096,-2.2435,-2.2435,-2.3305,-2.3829,-2.3829,-2.442,-2.4755,-2.4755,-2.4755,-2.4862,-2.5016,-2.5016,-2.5123,-2.5312,-2.5312,-2.5312,-1.3002,-1.3827,-1.4561,-1.4964,-1.5166,0.0,-1.6697,-1.634,0.0,-1.6752,0.0,0.0,0.0,0.0,0.0,0.0,0.0,0.0,0.0,0.0,0.0,0.0,0.0,0.0,0.0,0.0,0.0,0.0,0.0,0.0,-2.1696,-2.1696,-2.1696,-2.1696,-2.1696,-2.1696,-2.1696,-2.1696,-2.1741,-2.1731,-2.1731,-2.1731,-2.1731,-2.1731,-2.1731,-2.1731,-2.1731,-2.1731,-2.1731,-2.1731,-2.1731,-2.1731,-2.1731,-2.1919,-2.2097,-2.183,-2.1919,-2.2097,-2.183,-2.1731,-2.1731,-2.1731,-2.1731,-2.1731,-2.1731,-2.1731,-2.1731,-2.1731,-2.1713,-2.1828,-2.2217,-2.1873,-2.1435,-2.1702,-2.1433,-2.1068,-2.0702,-2.0588,-2.0455,-2.0017,-1.9942,-2.002,-2.0264,-2.0108,-2.002,-2.0264,-2.0303,-2.0303,-2.0303,-2.0489,-2.0605,-2.0605,-2.0644,-2.0683,-2.0683,-2.076,-2.0789,-2.0789,-2.2199,-2.3058,-2.3058,-2.3143,-2.318,-2.318,-2.318,-2.35,-2.4192,-2.4192,-2.4564,-2.5312,-2.5312,-2.5312,-1.2478,-1.3506,-1.4607,-1.5001,-1.567,0.0,0.0,-1.7614,-1.81,-1.8669,0.0,0.0,0.0,0.0,0.0,0.0,0.0,0.0,0.0,0.0,0.0,0.0,0.0,0.0,0.0,0.0,0.0,0.0,0.0,0.0,0.0,-2.1696,-2.1696,-2.1696,-2.1696,-2.1696,-2.1696,-2.1696,-2.1696,-2.1696,-2.1696,-2.1696,-2.1696,-2.1696,-2.1696,-2.1696,-2.1696,-2.1696,-2.1696,-2.1696,-2.1696,-2.1696,-2.1696,-2.1785,-2.183,-2.1741,-2.1785,-2.183,-2.1741,-2.1696,-2.1696,-2.1696,-2.1696,-2.1696,-2.1696,-2.1696,-2.1696,-2.1696,-2.1696,-2.1741,-2.1909,-2.1799,-2.1599,-2.1732,-2.1417,-2.1117,-2.1086,-2.0885,-2.0733,-2.0724,-2.0519,-2.0379,-2.0459,-2.0161,-1.9942,-2.002,-2.0059,-2.0059,-2.0059,-2.0137,-2.0216,-2.042,-2.0527,-2.0566,-2.042,-2.0411,-2.0333,-2.0177,-2.1499,-2.2247,-2.2247,-2.2734,-2.2995,-2.2995,-2.2995,-2.3353,-2.4108,-2.443,-2.5006,-2.5805,-2.6154,-2.6285,-1.2487,-1.3369,-1.4469,-1.512,0.0,0.0,-1.7669,-1.8614,-1.9457,0.0,0.0,0.0,0.0,0.0,0.0,0.0,0.0,0.0,0.0,0.0,0.0,0.0,0.0,0.0,0.0,0.0,0.0,0.0,0.0,0.0,0.0,-2.1696,-2.1696,-2.1696,-2.1696,-2.1696,-2.1696,-2.1696,-2.1696,-2.1696,-2.1696,-2.1696,-2.1696,-2.1696,-2.1696,-2.1696,-2.1696,-2.1696,-2.1696,-2.1696,-2.1696,-2.1696,-2.1696,-2.1696,-2.1696,-2.1696,-2.1696,-2.1696,-2.1696,-2.1696,-2.1696,-2.1696,-2.1696,-2.1696,-2.1696,-2.1696,-2.1696,-2.1696,-2.1696,-2.1696,-2.1696,-2.1696,-2.1696,-2.1696,-2.1476,-2.1273,-2.1284,-2.1068,-2.0922,-2.0978,-2.0767,-2.0602,-2.0643,-2.0326,-2.0099,-2.017,-2.0066,-2.0019,-2.0151,-2.0146,-2.0237,-2.0539,-2.0708,-2.0748,-2.0589,-2.0589,-2.0509,-2.0309,-2.1125,-2.1495,-2.1203,-2.1718,-2.2084,-2.223,-2.223,-2.2675,-2.3534,-2.3902,-2.4641,-2.5742,-2.608,-2.642,-1.3286,-1.3608,-1.4214,0.0,0.0,0.0,-1.8265,-1.9026,-1.954,0.0,0.0,0.0,0.0,0.0,0.0,0.0,0.0,0.0,0.0,0.0,0.0,0.0,0.0,0.0,0.0,0.0,0.0,0.0,0.0,0.0,0.0,-2.1696,-2.1696,-2.1696,-2.1696,-2.1696,-2.1696,-2.1696,-2.1696,-2.1696,-2.1696,-2.1696,-2.1696,-2.1696,-2.1696,-2.1696,-2.1696,-2.1696,-2.1696,-2.1696,-2.1696,-2.1696,-2.1696,-2.1696,-2.1696,-2.1696,-2.1696,-2.1696,-2.1696,-2.1696,-2.1696,-2.1696,-2.1696,-2.1696,-2.1696,-2.1696,-2.1696,-2.1696,-2.1696,-2.1696,-2.1696,-2.1696,-2.1696,-2.1696,-2.1696,-2.1577,-2.12,-2.1117,-2.0998,-2.0604,-2.053,-2.0563,-2.0764,-2.0638,-2.0554,-2.0755,-2.0462,-2.035,-2.075,-2.0658,-2.0746,-2.114,-2.1178,-2.1178,-2.1178,-2.1178,-2.1178,-2.1178,-2.1178,-2.08,-1.995,-1.9912,-2.011,-2.0616,-2.0616,-2.1173,-2.2309,-2.2319,-2.3192,-2.4898,-2.491,-2.5388,-1.2808,-1.3801,0.0,0.0,0.0,0.0,0.0,-1.9448,0.0,0.0,0.0,0.0,0.0,0.0,0.0,0.0,0.0,0.0,0.0,0.0,0.0,0.0,0.0,0.0,0.0,0.0,0.0,0.0,0.0,0.0,0.0,-2.1696,-2.1696,-2.1696,-2.1696,-2.1696,-2.1696,-2.1696,-2.1696,-2.1696,-2.1696,-2.1696,-2.1696,-2.1696,-2.1696,-2.1696,-2.1696,-2.1696,-2.1696,-2.1696,-2.1696,-2.1696,-2.1696,-2.1696,-2.1696,-2.1696,-2.1696,-2.1696,-2.1696,-2.1696,-2.1696,-2.1696,-2.1696,-2.1696,-2.1696,-2.1696,-2.1696,-2.1696,-2.1696,-2.1696,-2.1696,-2.1696,-2.1696,-2.1696,-2.1696,-2.1659,-2.1531,-2.1504,-2.1476,-2.1357,-2.1135,-2.0934,-2.101,-2.0747,-2.0521,-2.0596,-2.0495,-2.0467,-2.0578,-2.0694,-2.08,-2.0922,-2.1085,-2.1127,-2.0941,-2.0941,-2.0857,-2.074,-2.0698,-2.0754,-2.081,-2.08,-2.0857,-2.103,-2.103,-2.144,-2.2309,-2.2692,-2.3412,-2.4476,-2.485,-2.5546,-1.3185,-1.4231,0.0,0.0,0.0,0.0,0.0,0.0,0.0,0.0,0.0,0.0,0.0,0.0,0.0,0.0,0.0,0.0,0.0,0.0,0.0,0.0,0.0,0.0,0.0,0.0,0.0,0.0,0.0,0.0,0.0,-2.1696,-2.1696,-2.1696,-2.1696,-2.1696,-2.1696,-2.1696,-2.1696,-2.1696,-2.1696,-2.1696,-2.1696,-2.1696,-2.1696,-2.1696,-2.1696,-2.1696,-2.1696,-2.1696,-2.1696,-2.1696,-2.1696,-2.1696,-2.1696,-2.1696,-2.1696,-2.1696,-2.1696,-2.1696,-2.1696,-2.1696,-2.1696,-2.1696,-2.1696,-2.1696,-2.1696,-2.1696,-2.1696,-2.1696,-2.1696,-2.1696,-2.1696,-2.1696,-2.1696,-2.1696,-2.1696,-2.1696,-2.1696,-2.1696,-2.1485,-2.1355,-2.1355,-2.1163,-2.0955,-2.0955,-2.0955,-2.09,-2.0778,-2.0983,-2.1161,-2.1161,-2.1308,-2.1317,-2.117,-2.1161,-2.1127,-2.0955,-2.0955,-2.1093,-2.1413,-2.1086,-2.0992,-2.1151,-2.1151,-2.1471,-2.2038,-2.2384,-2.2962,-2.3833,-2.4152,-2.4798,-1.4047,0.0,0.0,0.0,0.0,0.0,0.0,0.0,0.0,0.0,0.0,0.0,0.0,0.0,0.0,0.0,0.0,0.0,0.0,0.0,0.0,0.0,0.0,0.0,0.0,0.0,0.0,0.0,0.0,0.0,0.0,-2.1696,-2.1696,-2.1696,-2.1696,-2.1696,-2.1696,-2.1696,-2.1696,-2.1696,-2.1696,-2.1696,-2.1696,-2.1696,-2.1696,-2.1696,-2.1696,-2.1696,-2.1696,-2.1696,-2.1696,-2.1696,-2.1696,-2.1696,-2.1696,-2.1696,-2.1696,-2.1696,-2.1696,-2.1696,-2.1696,-2.1696,-2.1696,-2.1696,-2.1696,-2.1696,-2.1696,-2.1696,-2.1696,-2.1696,-2.1696,-2.1696,-2.1696,-2.1696,-2.1696,-2.1696,-2.1696,-2.1696,-2.1696,-2.1696,-2.1696,-2.1696,-2.1696,-2.1696,-2.1696,-2.1696,-2.1696,-2.1559,-2.1209,-2.1458,-2.1696,-2.1696,-2.1696,-2.1696,-2.1696,-2.1696,-2.1696,-2.1696,-2.1696,-2.1696,-2.1696,-2.0982,-2.0796,-2.1163,-2.1163,-2.1312,-2.1696,-2.1696,-2.2122,-2.2965,-2.2965,-2.3497,0.0,-1.4799,0.0,0.0,0.0,0.0,0.0,0.0,0.0,0.0,0.0,0.0,0.0,0.0,0.0,0.0,0.0,0.0,0.0,0.0,0.0,0.0,0.0,0.0,0.0,0.0,0.0,0.0,0.0,0.0,-2.1696,-2.1696,-2.1696,-2.1696,-2.1696,-2.1696,-2.1696,-2.1696,-2.1696,0.0,-2.1696,-2.1696,-2.1696,-2.1696,-2.1696,-2.1696,-2.1696,-2.1696,-2.1696,-2.1696,-2.1696,-2.1696,-2.1696,-2.1696,-2.1696,-2.1696,-2.1696,-2.1696,-2.1696,-2.1696,-2.1696,-2.1696,-2.1696,-2.1696,-2.1696,-2.1696,-2.1696,-2.1696,-2.1696,-2.1696,-2.1696,-2.1696,-2.1696,-2.1696,-2.1696,-2.1696,-2.1696,-2.1696,-2.1696,-2.1696,-2.1696,-2.1696,-2.1696,-2.1696,-2.1696,-2.1696,-2.1696,-2.1659,-2.1568,-2.1632,-2.1696,-2.1696,-2.1696,-2.1696,-2.1696,-2.1696,-2.1696,-2.1696,-2.1696,-2.1696,-2.1696,-2.1522,-2.1467,-2.1559,-2.1559,-2.1604,-2.1696,-2.1696,-2.182,-2.1989,-2.1989,-2.2501,0.0,0.0,0.0,0.0,0.0,0.0,0.0,0.0,0.0,0.0,0.0,0.0,0.0,0.0,0.0,0.0,0.0,0.0,0.0,0.0,0.0,0.0,0.0,0.0,0.0,0.0,0.0,0.0,0.0,-2.1696,-2.1696,-2.1696,-2.1696,-2.1696,-2.1696,-2.1696,-2.1696,-2.1696,-2.1696,-2.1696,-2.1696,-2.1696,-2.1696,-2.1696,-2.1696,-2.1696,-2.1696,-2.1696,-2.1696,-2.1696,-2.1696,-2.1696,-2.1696,-2.1696,-2.1696,-2.1696,-2.1696,-2.1696,-2.1696,-2.1696,-2.1696,-2.1696,-2.1696,-2.1696,-2.1696,-2.1696,-2.1696,-2.1696,-2.1696,-2.1696,-2.1696,-2.1696,-2.1696,-2.1696,-2.1696,-2.1696,-2.1696,-2.1696,-2.1696,-2.1696,-2.1696,-2.1696,-2.1696,-2.1696,-2.1696,-2.1696,-2.1696,-2.1696,-2.1696,-2.1696,-2.1696,-2.1696,-2.1696,-2.1696,-2.1696,-2.1696,-2.1696,-2.1696,-2.1696,-2.1696,-2.1696,-2.1696,-2.1696,-2.1696,-2.1696,-2.1696,-2.1696,-2.1696,-2.1696,-2.1696,-2.1696,-2.1945,0.0,0.0,0.0,0.0,0.0,0.0,0.0,0.0,0.0,0.0,0.0,0.0,0.0,0.0,0.0,0.0,0.0,0.0,0.0,0.0,0.0,0.0,0.0,0.0,0.0,0.0,0.0,0.0,0.0,-2.1696,-2.1696,-2.1696,-2.1696,-2.1696,-2.1696,-2.1696,-2.1696,-2.1696,-2.1696,-2.1696,-2.1696,-2.1696,-2.1696,-2.1696,-2.1696,-2.1696,-2.1696,-2.1696,-2.1696,-2.1696,-2.1696,-2.1696,-2.1696,-2.1696,-2.1696,-2.1696,-2.1696,-2.1696,-2.1696,-2.1696,-2.1696,-2.1696,-2.1696,-2.1696,-2.1696,-2.1696,-2.1696,-2.1696,-2.1696,-2.1696,-2.1696,-2.1696,-2.1696,-2.1696,-2.1696,-2.1696,-2.1696,-2.1696,-2.1696,-2.1696,-2.1696,-2.1696,-2.1696,-2.1696,-2.1696,-2.1696,-2.1696,-2.1696,-2.1696,-2.1696,-2.1696,-2.1696,-2.1696,-2.1696,-2.1696,-2.1696,-2.1696,-2.1696,-2.1696,-2.1696,-2.1696,-2.1696,-2.1696,-2.1696,-2.1696,-2.1696,-2.1696,-2.1696,-2.1696,-2.1696,-2.1696,-2.1696,0.0,0.0,0.0,0.0,0.0,0.0,0.0,0.0,0.0,0.0,0.0,0.0,0.0,0.0,0.0,0.0,0.0,0.0,0.0,0.0,0.0,0.0,0.0,0.0,0.0,0.0,0.0,0.0,-2.1696,-2.1696,-2.1696,-2.1696,-2.1696,-2.1696,-2.1696,-2.1696,-2.1696,-2.1696,-2.1696,-2.1696,-2.1696,-2.1696,-2.1696,-2.1696,-2.1696,-2.1696,-2.1696,-2.1696,-2.1696,-2.1696,-2.1696,-2.1696,-2.1696,-2.1696,-2.1696,-2.1696,-2.1696,-2.1696,-2.1696,-2.1696,-2.1696,-2.1696,-2.1696,-2.1696,-2.1696,-2.1696,-2.1696,-2.1696,-2.1696,-2.1696,-2.1696,-2.1696,-2.1696,-2.1696,-2.1696,-2.1696,-2.1696,-2.1696,-2.1696,-2.1696,-2.1696,-2.1696,-2.1696,-2.1696,-2.1696,-2.1696,-2.1696,-2.1696,-2.1696,-2.1696,-2.1696,-2.1696,-2.1696,-2.1696,-2.1696,-2.1696,-2.1696,-2.1696,-2.1696,-2.1696,-2.1696,-2.1696,-2.1696,-2.1696,-2.1696,-2.1696,-2.1696,-2.1696,-2.1696,-2.1696,-2.1696,-2.1696,-1.158,0.0,0.0,0.0,0.0,0.0,0.0,0.0,0.0,0.0,0.0,0.0,0.0,0.0,0.0,0.0,0.0,0.0,0.0,0.0,0.0,0.0,0.0,0.0,0.0,0.0,0.0,0.0,-2.1696,-2.1696,-2.1696,-2.1696,-2.1696,-2.1696,-2.1696,-2.1696,-2.1696,-2.1696,-2.1696,-2.1696,-2.1696,-2.1696,-2.1696,-2.1696,-2.1696,-2.1696,-2.1696,-2.1696,-2.1696,-2.1696,-2.1696,-2.1696,-2.1696,-2.1696,-2.1696,-2.1696,-2.1696,-2.1696,-2.1696,-2.1696,-2.1696,-2.1696,-2.1696,-2.1696,-2.1696,-2.1696,-2.1696,-2.1696,-2.1696,-2.1696,-2.1696,-2.1696,-2.1696,-2.1696,-2.1696,-2.1696,-2.1696,-2.1696,-2.1696,-2.1696,-2.1696,-2.1696,-2.1696,-2.1696,-2.1696,-2.1696,-2.1696,-2.1696,-2.1696,-2.1696,-2.1696,-2.1696,-2.1696,-2.1696,-2.1696,-2.1696,-2.1696,-2.1696,-2.1696,-2.1696,-2.1696,-2.1696,-2.1696,-2.1696,-2.1696,-2.1696,-2.1696,-2.1696,-2.1696,-2.1696,-2.1696,-2.1696,0.0,0.0,0.0,0.0,0.0,0.0,0.0,0.0,0.0,0.0,0.0,0.0,0.0,0.0,0.0,0.0,0.0,0.0,0.0,0.0,0.0,0.0,0.0,0.0,0.0,0.0,0.0,0.0,-2.1531,-2.1577,-2.1687,-2.1696,-2.1696,-2.1696,-2.1696,-2.1696,-2.1696,-2.1696,-2.1696,-2.1696,-2.1696,-2.1696,-2.1696,-2.1696,-2.1696,-2.1696,-2.1696,-2.1696,-2.1696,-2.1696,-2.1696,-2.1696,-2.1696,-2.1696,-2.1696,-2.1696,-2.1696,-2.1696,-2.1696,-2.1696,-2.1696,-2.1696,-2.1696,-2.1696,-2.1696,-2.1696,-2.1696,-2.1696,-2.1696,-2.1696,-2.1696,-2.1696,-2.1696,-2.1696,-2.1696,-2.1696,-2.1696,-2.1696,-2.1696,-2.1696,-2.1696,-2.1696,-2.1696,-2.1696,-2.1696,-2.1696,-2.1696,-2.1696,-2.1696,-2.1696,-2.1696,-2.1696,-2.1696,-2.1696,-2.1696,-2.1696,-2.1696,-2.1696,-2.1696,-2.1696,-2.1696,-2.1696,-2.1696,-2.1696,-2.1696,-2.1696,-2.1696,-2.1696,-2.1696,-2.1696,-2.1696,-2.1696,0.0,0.0,0.0,0.0,0.0,0.0,0.0,0.0,0.0,0.0,0.0,0.0,0.0,0.0,0.0,0.0,0.0,0.0,0.0,0.0,0.0,0.0,0.0,0.0,0.0,0.0,0.0,0.0,-2.1135,-2.1319,-2.1668,-2.1696,-2.1696,-2.1696,-2.1696,-2.1696,-2.1696,-2.1696,-2.1696,-2.1696,-2.1696,-2.1696,-2.1696,-2.1696,-2.1696,-2.1696,-2.1696,-2.1696,-2.1696,-2.1696,-2.1696,-2.1696,-2.1696,-2.1696,-2.1696,-2.1696,-2.1696,-2.1696,-2.1696,-2.1696,-2.1696,-2.1696,-2.1696,-2.1696,-2.1696,-2.1696,-2.1696,-2.1696,-2.1696,-2.1696,-2.1696,-2.1696,-2.1696,-2.1696,-2.1696,-2.1696,-2.1696,-2.1696,-2.1696,-2.1696,-2.1696,-2.1696,-2.1696,-2.1696,-2.1696,-2.1696,-2.1696,-2.1696,-2.1696,-2.1696,-2.1696,-2.1696,-2.1696,-2.1696,-2.1696,-2.1696,-2.1696,-2.1696,-2.1696,-2.1696,-2.1696,-2.1696,-2.1696,-2.1696,-2.1696,-2.1696,-2.1696,-2.1696,-2.1696,-2.1696,-2.1696,-2.1696,0.0,0.0,0.0,0.0,0.0,0.0,0.0,0.0,0.0,0.0,0.0,0.0,0.0,0.0,0.0,0.0,0.0,0.0,0.0,0.0,0.0,0.0,0.0,0.0,0.0,0.0,0.0,0.0,0.0,-2.1172,-2.1319,-2.1549,-2.1696,-2.1696,-2.1696,-2.1696,-2.1696,-2.1696,-2.1696,-2.1696,-2.1696,-2.1696,-2.1696,-2.1696,-2.1696,-2.1696,-2.1696,-2.1696,-2.1696,-2.1696,-2.1696,-2.1696,-2.1696,-2.1696,-2.1696,-2.1696,-2.1696,-2.1696,-2.1696,-2.1696,-2.1696,-2.1696,-2.1696,-2.1696,-2.1696,-2.1696,-2.1696,-2.1696,-2.1696,-2.1696,-2.1696,-2.1696,-2.1696,-2.1696,-2.1696,-2.1696,-2.1696,-2.1696,-2.1696,-2.1696,-2.1696,-2.1696,-2.1696,-2.1696,-2.1696,-2.1696,-2.1696,-2.1696,-2.1696,-2.1696,-2.1696,-2.1696,-2.1696,-2.1696,-2.1696,-2.1696,-2.1696,-2.1696,-2.1696,-2.1696,-2.1696,-2.1696,-2.1696,-2.1696,-2.1696,-2.1696,-2.1696,-2.1696,-2.1696,-2.1696,-2.1696,-2.1696,0.0,0.0,0.0,0.0,0.0,0.0,0.0,0.0,0.0,0.0,0.0,0.0,0.0,0.0,0.0,0.0,0.0,0.0,0.0,0.0,0.0,0.0,0.0,0.0,0.0,0.0,0.0,0.0,0.0,0.0,-2.0906,-2.13,-2.1549,-2.1687,-2.1696,-2.1696,-2.1696,-2.1696,-2.1696,-2.1696,-2.1696,-2.1696,-2.1696,-2.1696,-2.1696,-2.1696,-2.1696,-2.1696,-2.1696,-2.1696,-2.1696,-2.1696,-2.1696,-2.1696,-2.1696,-2.1696,-2.1696,-2.1696,-2.1696,-2.1696,-2.1696,-2.1696,-2.1696,-2.1696,-2.1696,-2.1696,-2.1696,-2.1696,-2.1696,-2.1696,-2.1696,-2.1696,-2.1696,-2.1696,-2.1696,-2.1696,-2.1696,-2.1696,-2.1696,-2.1696,-2.1696,-2.1696,-2.1696,-2.1696,-2.1696,-2.1696,-2.1696,-2.1696,-2.1696,-2.1696,-2.1696,-2.1696,-2.1696,-2.1696,-2.1696,-2.1696,-2.1696,-2.1696,-2.1696,-2.1696,-2.1696,-2.1696,-2.1696,-2.1696,-2.1696,-2.1696,-2.1696,-2.1696,-2.1696,-2.1696,-2.1696,-2.1696,0.0,0.0,0.0,0.0,0.0,0.0,0.0,0.0,0.0,0.0,0.0,0.0,0.0,0.0,0.0,0.0,0.0,0.0,0.0,0.0,0.0,0.0,0.0,0.0,0.0,0.0,0.0,0.0,-1.9884,-2.0058,-2.0484,-2.0879,-2.1282,-2.1659,-2.1668,-2.1678,-2.1696,-2.1696,-2.1696,-2.1696,-2.1696,-2.1696,-2.1696,-2.1696,-2.1696,-2.1696,-2.1696,-2.1696,-2.1696,-2.1696,-2.1696,-2.1696,-2.1696,-2.1696,-2.1696,-2.1696,-2.1696,-2.1696,-2.1696,-2.1696,-2.1696,-2.1696,-2.1696,-2.1696,-2.1696,-2.1696,-2.1696,-2.1696,-2.1696,-2.1696,-2.1696,-2.1696,-2.1696,-2.1696,-2.1696,-2.1696,-2.1696,-2.1696,-2.1696,-2.1696,-2.1696,-2.1696,-2.1696,-2.1696,-2.1696,-2.1696,-2.1696,-2.1696,-2.1696,-2.1696,-2.1696,-2.1696,-2.1696,-2.1696,-2.1696,-2.1696,-2.1696,-2.1696,-2.1696,-2.1696,-2.1696,-2.1696,-2.1696,-2.1696,-2.1696,-2.1696,-2.1696,-2.1696,-2.1696,-2.1696,-2.1696,-2.1696,-0.7295,0.0,0.0,0.0,0.0,0.0,0.0,0.0,0.0,0.0,0.0,0.0,0.0,0.0,0.0,0.0,0.0,0.0,0.0,0.0,0.0,0.0,0.0,0.0,0.0,0.0,0.0,0.0,-1.976,-1.9939,-2.0049,-2.0466,-2.0869,-2.1273,-2.1282,-2.1429,-2.1687,-2.1696,-2.1696,-2.1696,-2.1696,-2.1696,-2.1696,-2.1696,-2.1696,-2.1696,-2.1696,-2.1696,-2.1696,-2.1696,-2.1696,-2.1696,-2.1696,-2.1696,-2.1696,-2.1696,-2.1696,-2.1696,-2.1696,-2.1696,-2.1696,-2.1696,-2.1696,-2.1696,-2.1696,-2.1696,-2.1696,-2.1696,-2.1696,-2.1696,-2.1696,-2.1696,-2.1696,-2.1696,-2.1696,-2.1696,-2.1696,-2.1696,-2.1696,-2.1696,-2.1696,-2.1696,-2.1696,-2.1696,-2.1696,-2.1696,-2.1696,-2.1696,-2.1696,-2.1696,-2.1696,-2.1696,-2.1696,-2.1696,-2.1696,-2.1696,-2.1696,-2.1696,-2.1696,-2.1696,-2.1696,-2.1696,-2.1696,-2.1696,-2.1696,-2.1696,-2.1696,-2.1696,-2.1696,-2.1696,-2.1696,-2.1696,0.0,0.0,0.0,0.0,0.0,0.0,0.0,-1.3335,0.0,0.0,0.0,0.0,0.0,0.0,0.0,0.0,0.0,0.0,0.0,0.0,0.0,0.0,0.0,0.0,0.0,-1.9301,-1.9301,-1.9301,-1.9531,-1.9701,-1.9875,-2.0104,-2.0415,-2.0851,-2.1016,-2.1227,-2.1475,-2.1604,-2.1696,-2.1696,-2.1696,-2.1696,-2.1696,-2.1696,-2.1696,-2.1696,-2.1696,-2.1696,-2.1696,-2.1696,-2.1696,-2.1696,-2.1696,-2.1696,-2.1696,-2.1696,-2.1696,-2.1696,-2.1696,-2.1696,-2.1696,-2.1696,-2.1696,-2.1696,-2.1696,-2.1696,-2.1696,-2.1696,-2.1696,-2.1696,-2.1696,-2.1696,-2.1696,-2.1696,-2.1696,-2.1696,-2.1696,-2.1696,-2.1696,-2.1696,-2.1696,-2.1696,-2.1696,-2.1696,-2.1696,-2.1696,-2.1696,-2.1696,-2.1696,-2.1696,-2.1696,-2.1696,-2.1696,-2.1696,-2.1696,-2.1696,-2.1696,-2.1696,-2.1696,-2.1696,-2.1696,-2.1696,-2.1696,-2.1696,-2.1696,-2.1696,-2.1696,-2.1696,-2.1696,-2.1696,-2.1696,-2.1696,0.0,0.0,0.0,0.0,0.0,0.0,-1.2562,-1.2895,0.0,0.0,0.0,0.0,0.0,0.0,0.0,0.0,0.0,0.0,0.0,0.0,0.0,0.0,0.0,0.0,-1.9271,-1.9262,-1.9262,-1.9262,-1.9262,-1.9427,-1.9761,-1.982,-2.0003,-2.0438,-2.0796,-2.1016,-2.1108,-2.1431,-2.165,-2.1696,-2.1696,-2.1696,-2.1696,-2.1696,-2.1696,-2.1696,-2.1696,-2.1696,-2.1696,-2.1696,-2.1696,-2.1696,-2.1696,-2.1696,-2.1696,-2.1696,-2.1696,-2.1696,-2.1696,-2.1696,-2.1696,-2.1696,-2.1696,-2.1696,-2.1696,-2.1696,-2.1696,-2.1696,-2.1696,-2.1696,-2.1696,-2.1696,-2.1696,-2.1696,-2.1696,-2.1696,-2.1696,-2.1696,-2.1696,-2.1696,-2.1696,-2.1696,-2.1696,-2.1696,-2.1696,-2.1696,-2.1696,-2.1696,-2.1696,-2.1696,-2.1696,-2.1696,-2.1696,-2.1696,-2.1696,-2.1696,-2.1696,-2.1696,-2.1696,-2.1696,-2.1696,-2.1696,-2.1696,-2.1696,-2.1696,-2.1696,-2.1696,-2.1696,-2.1696,-2.1696,-2.1696,-2.1696,-0.8004,-0.8432,-0.9063,0.0,0.0,0.0,0.0,-1.1281,0.0,0.0,0.0,0.0,0.0,0.0,0.0,0.0,0.0,0.0,0.0,0.0,0.0,0.0,0.0,0.0,-1.9033,-1.9073,-1.9073,-1.9073,-1.9073,-1.9069,-1.915,-1.935,-1.9613,-1.9994,-2.0076,-2.0466,-2.1099,-2.119,-2.1401,-2.1696,-2.1696,-2.1696,-2.1696,-2.1696,-2.1696,-2.1696,-2.1696,-2.1696,-2.1696,-2.1696,-2.1696,-2.1696,-2.1696,-2.1696,-2.1696,-2.1696,-2.1696,-2.1696,-2.1696,-2.1696,-2.1696,-2.1696,-2.1696,-2.1696,-2.1696,-2.1696,-2.1696,-2.1696,-2.1696,-2.1696,-2.1696,-2.1696,-2.1696,-2.1696,-2.1696,-2.1696,-2.1696,-2.1696,-2.1696,-2.1696,-2.1696,-2.1696,-2.1696,-2.1696,-2.1696,-2.1696,-2.1696,-2.1696,-2.1696,-2.1696,-2.1696,-2.1696,-2.1696,-2.1696,-2.1696,-2.1696,-2.1696,-2.1696,-2.1696,-2.1696,-2.1696,-2.1696,-2.1696,-2.1696,-2.1696,-2.1696,-2.1696,-2.1696,-2.1696,-2.1696,-2.1696,-2.1696,0.0,0.0,-0.9096,-0.9153,0.0,0.0,0.0,0.0,-1.1144,0.0,0.0,0.0,0.0,0.0,0.0,0.0,0.0,0.0,0.0,0.0,0.0,0.0,0.0,0.0,-1.8309,-1.8518,-1.8755,-1.8834,-1.8851,-1.8851,-1.8851,-1.8962,-1.9092,-1.9309,-1.9498,-1.9787,-2.0217,-2.058,-2.0878,-2.1094,-2.1426,-2.1571,-2.1571,-2.1651,-2.1696,-2.1687,-2.1607,-2.1571,-2.1517,-2.1419,-2.1365,-2.1365,-2.1597,-2.1696,-2.1696,-2.1696,-2.1696,-2.1696,-2.1696,-2.1696,-2.1696,-2.1696,-2.1696,-2.1696,-2.1696,-2.1696,-2.1696,-2.1696,-2.1696,-2.1696,-2.1696,-2.1696,-2.1696,-2.1696,-2.1696,-2.1696,-2.1696,-2.1696,-2.1696,-2.1696,-2.1696,-2.1696,-2.1696,-2.1696,-2.1696,-2.1696,-2.1696,-2.1696,-2.1696,-2.1696,-2.1696,-2.1696,-2.1696,-2.1696,-2.1696,-2.1696,-2.1696,-2.1696,-2.1696,-2.1696,-2.1696,-2.1696,-2.1696,-2.1696,-2.1696,-2.1696,-2.1696,-2.1696,-2.1696,-2.1696,-2.1696,-2.1696,0.0,0.0,0.0,0.0,0.0,-1.0217,0.0,0.0,0.0,-1.1479,0.0,0.0,0.0,0.0,0.0,0.0,0.0,0.0,0.0,0.0,0.0,0.0,0.0,0.0,0.0,-1.7787,-1.8127,-1.8434,-1.8368,-1.8386,-1.8537,-1.8656,-1.87,-1.87,-1.9002,-1.9238,-1.9309,-2.002,-2.0411,-2.05,-2.106,-2.1302,-2.1347,-2.1472,-2.1553,-2.1553,-2.1383,-2.1302,-2.1293,-2.1096,-2.0997,-2.1042,-2.141,-2.1553,-2.1553,-2.1597,-2.1651,-2.1651,-2.1696,-2.1696,-2.1696,-2.1696,-2.1696,-2.1696,-2.1696,-2.1696,-2.1696,-2.1696,-2.1696,-2.1696,-2.1696,-2.1696,-2.1696,-2.1696,-2.1696,-2.1696,-2.1696,-2.1696,-2.1696,-2.1696,-2.1696,-2.1696,-2.1696,-2.1696,-2.1696,-2.1696,-2.1696,-2.1696,-2.1696,-2.1696,-2.1696,-2.1696,-2.1696,-2.1696,-2.1696,-2.1696,-2.1696,-2.1696,-2.1696,-2.1696,-2.1696,-2.1696,-2.1696,-2.1696,-2.1696,-2.1696,-2.1696,-2.1696,-2.1696,-2.1696,-2.1696,-2.1696,0.0,0.0,0.0,0.0,-1.0252,0.0,0.0,0.0,-1.0438,-1.0558,0.0,0.0,0.0,0.0,0.0,0.0,0.0,0.0,0.0,0.0,0.0,0.0,0.0,0.0,0.0,-1.6768,-1.6901,-1.7601,-1.7195,-1.7226,-1.7869,-1.8395,-1.87,-1.87,-1.8736,-1.8931,-1.9309,-1.9702,-2.0101,-2.0491,-2.0864,-2.1042,-2.1042,-2.1087,-2.1087,-2.1087,-2.1042,-2.1042,-2.1042,-2.0997,-2.0997,-2.0997,-2.1042,-2.1087,-2.1087,-2.1338,-2.1437,-2.1482,-2.1651,-2.1696,-2.1696,-2.1696,-2.1696,-2.1696,-2.1696,-2.1696,-2.1696,-2.1696,-2.1696,-2.1696,-2.1696,-2.1696,-2.1696,-2.1696,-2.1696,-2.1696,-2.1696,-2.1696,-2.1696,-2.1696,-2.1696,-2.1696,-2.1696,-2.1696,-2.1696,-2.1696,-2.1696,-2.1696,-2.1696,-2.1696,-2.1696,-2.1696,-2.1696,-2.1696,-2.1696,-2.1696,-2.1696,-2.1696,-2.1696,-2.1696,-2.1696,-2.1696,-2.1696,-2.1696,-2.1696,-2.1696,-2.1696,-2.1696,-2.1696,-2.1696,-2.1696,-2.1696,0.0,0.0,0.0,0.0,0.0,0.0,0.0,0.0,-0.9718,0.0,0.0,0.0,0.0,0.0,0.0,0.0,0.0,0.0,0.0,0.0,0.0,0.0,0.0,0.0,0.0,0.0,0.0,0.0,-1.6423,-1.6603,-1.7579,-1.7865,-1.8096,-1.8282,-1.8282,-1.836,-1.8557,-1.9165,-1.9557,-1.9765,-2.0491,-2.0826,-2.0826,-2.0952,-2.0997,-2.0988,-2.0871,-2.0826,-2.0826,-2.0645,-2.06,-2.06,-2.06,-2.0781,-2.0997,-2.1141,-2.115,-2.1195,-2.1275,-2.1275,-2.1275,-2.1275,-2.1275,-2.1275,-2.1275,-2.1275,-2.1275,-2.1275,-2.1275,-2.1275,-2.1275,-2.1275,-2.132,-2.1419,-2.1472,-2.1419,-2.1203,-2.1338,-2.1472,-2.1526,-2.1607,-2.1696,-2.1696,-2.1696,-2.1696,-2.1696,-2.1696,-2.1696,-2.1696,-2.1696,-2.1696,-2.1696,-2.1696,-2.1696,-2.1696,-2.1696,-2.1696,-2.1696,-2.1696,-2.1696,-2.1696,-2.1696,-2.1696,-2.1696,-2.1696,-2.1696,-2.1696,-2.1696,-2.1696,-2.1696,-2.1696,-2.1696,-1.0653,0.0,0.0,0.0,0.0,0.0,0.0,0.0,0.0,0.0,0.0,0.0,0.0,0.0,0.0,0.0,0.0,0.0,0.0,0.0,0.0,0.0,0.0,0.0,0.0,0.0,0.0,0.0,0.0,-1.5917,-1.7244,-1.7454,-1.7646,-1.7983,-1.8,-1.8,-1.8,-1.8793,-1.9213,-1.923,-2.0155,-2.0609,-2.0609,-2.0736,-2.0817,-2.0826,-2.0645,-2.0609,-2.0564,-2.0382,-2.0292,-2.0292,-2.0292,-2.051,-2.0826,-2.0907,-2.0907,-2.0907,-2.0997,-2.0997,-2.0997,-2.0997,-2.0997,-2.0997,-2.0997,-2.0997,-2.0997,-2.0997,-2.0997,-2.0997,-2.0997,-2.0997,-2.1042,-2.1186,-2.1239,-2.115,-2.0934,-2.1024,-2.1248,-2.1437,-2.1607,-2.1696,-2.1696,-2.1696,-2.1696,-2.1696,-2.1696,-2.1696,-2.1696,-2.1696,-2.1696,-2.1696,-2.1696,-2.1696,-2.1696,-2.1696,-2.1696,-2.1696,-2.1696,-2.1696,-2.1696,-2.1696,-2.1696,-2.1696,-2.1651,-2.1607,-2.1607,-2.1553,-2.1508,-2.1508,-2.1597,-2.1651,0.0,0.0,0.0,-1.0557,0.0,0.0,0.0,0.0,-1.0118,0.0,0.0,0.0,0.0,0.0,0.0,0.0,0.0,0.0,0.0,0.0,0.0,0.0,0.0,0.0,0.0,0.0,0.0,0.0,0.0,0.0,-1.6841,-1.7278,-1.7646,-1.7983,-1.8,-1.8,-1.8,-1.8793,-1.9213,-1.923,-1.9977,-2.0292,-2.0292,-2.0337,-2.0337,-2.0337,-2.0337,-2.0292,-2.0292,-2.0292,-2.0292,-2.0292,-2.0292,-2.0292,-2.0337,-2.0609,-2.0699,-2.0744,-2.0907,-2.0997,-2.0997,-2.0997,-2.0997,-2.0997,-2.0997,-2.0997,-2.0997,-2.0997,-2.0997,-2.0997,-2.0997,-2.0997,-2.0997,-2.0997,-2.0997,-2.0997,-2.0997,-2.088,-2.0987,-2.1562,-2.1696,-2.1696,-2.1696,-2.1696,-2.1696,-2.1696,-2.1696,-2.1696,-2.1696,-2.1696,-2.1696,-2.1696,-2.1696,-2.1696,-2.1696,-2.1696,-2.1696,-2.1696,-2.1696,-2.1696,-2.1696,-2.1696,-2.1696,-2.1696,-2.1526,-2.1392,-2.1392,-2.1141,-2.1042,-2.1042,-2.1293,-2.1517,0.0,0.0,-1.1962,-1.1032,0.0,0.0,0.0,0.0,0.0,0.0,0.0,0.0,0.0,0.0,0.0,0.0,0.0,0.0,0.0,0.0,0.0,0.0,0.0,0.0,0.0,0.0,0.0,0.0,-1.403,0.0,0.0,-1.6893,-1.7278,-1.7646,-1.7863,-1.8,-1.8,-1.8793,-1.9213,-1.923,-1.9932,-2.0292,-2.0292,-2.0292,-2.0292,-2.0292,-2.0292,-2.0292,-2.0292,-2.0292,-2.0292,-2.0292,-2.0292,-2.0292,-2.0292,-2.0382,-2.0428,-2.0428,-2.051,-2.0555,-2.0555,-2.0555,-2.0555,-2.0555,-2.0555,-2.0555,-2.0555,-2.0555,-2.0555,-2.0555,-2.0555,-2.0555,-2.0555,-2.0555,-2.0555,-2.0555,-2.0555,-2.0654,-2.0798,-2.1015,-2.1141,-2.1275,-2.1419,-2.1419,-2.1508,-2.1687,-2.1696,-2.1696,-2.1696,-2.1696,-2.1696,-2.1696,-2.1696,-2.1696,-2.1696,-2.1696,-2.1696,-2.1696,-2.1696,-2.1651,-2.1526,-2.1482,-2.1428,-2.123,-2.1186,-2.115,-2.115,-2.1042,-2.0997,-2.0997,-2.097,-2.106,-1.1934,-1.2113,0.0,-1.1437,-1.1224,0.0,-1.0226,0.0,0.0,0.0,0.0,0.0,0.0,0.0,0.0,0.0,0.0,0.0,0.0,0.0,0.0,0.0,0.0,0.0,0.0,0.0,-1.2124,-1.3953,0.0,0.0,0.0,0.0,-1.6966,-1.7058,-1.7386,-1.77,-1.8,-1.8093,-1.8327,-1.8697,-1.9424,-1.9774,-1.9774,-2.0155,-2.0292,-2.0292,-2.0292,-2.0292,-2.0292,-2.0292,-2.0292,-2.0292,-2.0292,-2.0292,-2.0292,-2.0292,-2.0292,-2.0292,-2.0292,-2.0292,-2.0292,-2.0292,-2.0292,-2.0292,-2.0292,-2.0292,-2.0292,-2.0292,-2.0292,-2.0292,-2.0292,-2.0292,-2.0292,-2.0292,-2.0292,-2.0292,-2.0292,-2.0428,-2.0609,-2.0699,-2.0781,-2.0961,-2.1141,-2.1186,-2.123,-2.1419,-2.1419,-2.1383,-2.1383,-2.1419,-2.1463,-2.1463,-2.1463,-2.1463,-2.1463,-2.1463,-2.1463,-2.1463,-2.1463,-2.1374,-2.1248,-2.1248,-2.1195,-2.0997,-2.0907,-2.0907,-2.0907,-2.0826,-2.0727,-2.0727,-2.06,-2.0645]},{"header":{"parameterUnit":"m.s-1","parameterCategory":1,"la1":30.6,"la2":29.2853,"lo1":-89.7004,"lo2":-87.6739,"dy":0.0162,"dx":0.0183,"nx":112,"ny":82,"refTime":"2024-08-24T00:00:00:Z","depth":0,"parameterNumber":3,"parameterNumberName":"V-component_of_WINDS"},"data":[0.0,0.0,0.0,0.0,0.0,0.0,0.0,0.0,0.0,0.0,0.0,0.0,0.0,0.0,0.0,0.0,0.0,0.0,0.0,0.0,0.0,0.0,0.0,0.0,0.0,0.0,0.0,0.0,0.0,0.0,0.0,0.0,0.0,0.0,0.0,0.0,0.0,0.0,0.0,0.0,0.0,0.0,0.0,0.0,0.0,0.0,0.0,0.0,0.0,0.0,0.0,0.0,0.0,0.0,0.0,0.0,0.0,0.0,0.0,0.0,0.0,0.0,0.0,0.0,0.0,0.0,0.0,0.0,0.0,0.0,0.0,0.0,0.0,0.0,0.0,0.0,0.0,0.0,0.0,0.0,0.0,0.0,0.0,0.0,0.0,0.0,0.0,0.0,0.0,0.0,0.0,0.868,0.9266,0.9606,0.9734,0.9622,0.918,0.8251,0.0,0.0,0.0,0.0,0.0,0.0,0.0,0.0,0.0,0.0,0.0,0.0,0.0,0.0,0.0,0.0,0.0,0.0,0.0,0.0,0.0,0.0,0.0,0.0,0.0,0.0,0.0,0.0,0.0,0.0,0.0,0.0,0.0,0.0,0.0,0.0,0.0,0.0,0.0,0.0,0.0,0.0,0.0,0.0,0.0,0.0,0.0,0.0,0.0,0.0,0.0,0.0,0.0,0.0,0.0,0.0,0.0,0.0,0.0,0.0,0.0,0.0,0.0,0.0,0.0,0.0,0.0,0.0,0.0,0.0,0.0,0.0,0.0,0.0,0.0,0.0,0.0,0.0,0.0,0.0,0.0,0.0,0.0,0.0,0.0,0.0,0.0,0.0,0.0,0.0,0.0,0.0,0.0,0.0,0.0,0.0,0.0,0.0,0.0,0.0,0.0,0.0,0.0,0.0,0.7758,0.9347,0.9775,1.0136,1.071,1.0254,0.9783,0.9435,0.0,0.0,0.0,0.0,0.0,0.0,0.0,0.0,0.0,0.0,0.0,0.0,0.0,0.0,0.0,0.0,0.0,0.0,0.0,0.0,0.0,0.0,0.0,0.0,0.0,0.0,0.0,0.0,0.0,0.0,0.0,0.0,0.0,0.0,0.0,0.0,0.0,0.0,0.0,0.0,0.0,0.0,0.0,0.0,0.0,0.0,0.0,0.0,0.0,0.0,0.0,0.0,0.0,0.0,0.0,0.0,0.0,0.0,0.0,0.0,0.0,0.0,0.0,0.0,0.0,0.0,0.0,0.0,0.0,0.0,0.0,0.0,0.0,0.0,0.0,0.0,0.0,0.0,0.0,0.0,0.0,0.0,0.0,0.0,0.0,0.0,0.0,0.0,0.0,0.0,0.0,0.0,0.0,0.0,0.0,0.0,0.0,0.0,0.0,0.0,0.0,0.0,0.0,0.7716,0.8389,0.9716,0.9945,1.0104,1.044,1.0322,0.9966,0.9363,0.8407,0.0,0.0,0.0,0.0,0.0,0.0,0.0,0.0,0.0,0.0,0.0,0.0,0.0,0.0,0.0,0.0,0.0,0.0,0.0,0.0,0.0,0.0,0.0,0.0,0.0,0.0,0.0,0.0,0.0,0.0,0.0,0.0,0.0,0.0,0.0,0.0,0.0,0.0,0.0,0.0,0.0,0.0,0.0,0.0,0.0,0.0,0.0,0.0,0.0,0.0,0.0,0.0,0.0,0.0,0.0,0.0,0.0,0.0,0.0,0.0,0.0,0.0,0.0,0.0,0.0,0.0,0.0,0.0,0.0,0.0,0.0,0.0,0.0,0.0,0.0,0.0,0.0,0.0,0.0,0.0,0.0,0.0,0.0,0.0,0.0,0.0,0.0,0.0,0.0,0.0,0.0,0.0,0.0,0.0,0.0,0.0,0.0,0.0,0.0,0.0,0.0,0.0,0.8949,0.954,1.0365,1.0533,1.0609,1.0698,1.0596,1.0205,0.9398,0.8662,0.0,0.0,0.0,0.0,0.0,0.0,0.0,0.0,0.0,0.0,0.0,0.0,0.0,0.0,0.0,0.0,0.0,0.0,0.0,0.0,0.0,0.0,0.0,0.0,0.0,0.0,0.0,0.0,0.0,0.0,0.0,0.0,0.0,0.0,0.0,0.0,0.0,0.0,0.0,0.0,0.0,0.0,0.0,0.0,0.0,0.0,0.0,0.0,0.0,0.0,0.0,0.0,0.0,0.0,0.0,0.0,0.0,0.0,0.0,0.0,0.0,0.0,0.0,0.0,0.0,0.0,0.0,0.0,0.0,0.0,0.0,0.0,0.0,0.0,0.0,0.0,0.0,0.0,0.0,0.0,0.0,0.0,0.0,0.0,0.0,0.0,0.0,0.0,0.0,0.0,0.0,0.0,0.0,0.0,0.0,0.0,0.0,0.0,0.0,0.0,0.0,0.0,1.0261,1.1404,1.173,1.211,1.2415,1.2672,1.1691,1.0846,1.0417,0.8796,0.0,0.0,0.0,0.0,0.0,0.0,0.0,0.0,0.0,0.0,0.0,0.0,0.0,0.0,0.0,0.0,0.0,0.0,0.0,0.0,0.0,0.0,0.0,0.0,0.0,0.0,0.0,0.0,0.0,0.0,0.0,0.0,0.0,0.0,0.0,0.0,0.0,0.0,0.0,0.0,0.0,0.0,0.0,0.0,0.0,0.0,0.0,0.0,0.0,0.0,0.0,0.0,0.0,0.0,0.0,0.0,0.0,0.0,0.0,0.0,0.0,0.0,0.0,0.0,0.0,0.0,0.0,0.0,0.0,0.0,0.0,0.0,0.0,0.0,0.0,0.0,0.0,0.0,0.0,0.0,0.0,0.0,0.0,0.0,0.0,0.0,0.0,0.0,0.0,0.0,0.0,0.0,0.0,0.0,0.0,0.0,0.0,0.0,0.0,0.0,0.0,0.0,0.9835,1.0804,0.0,1.1652,1.1792,1.1902,1.1421,1.0827,1.0166,0.0,0.0,0.0,0.0,0.0,0.0,0.0,0.0,0.0,0.0,0.0,0.0,0.0,0.0,0.0,0.0,0.0,0.0,0.0,0.0,0.0,0.0,0.0,0.0,0.0,0.0,0.0,0.0,0.0,0.0,0.0,0.0,0.0,0.0,0.0,0.0,0.0,0.0,0.0,0.0,0.0,0.0,0.0,0.0,0.0,0.0,0.0,0.0,0.0,0.0,0.0,0.0,0.0,0.0,0.0,0.0,0.0,0.0,0.0,0.0,0.0,0.0,0.0,0.0,0.0,0.0,0.0,0.0,0.0,0.0,0.0,0.0,0.0,0.0,0.0,0.0,0.0,0.0,0.0,0.0,0.0,0.0,0.0,0.0,0.0,0.0,0.0,0.0,0.0,0.0,0.0,0.0,0.0,0.0,0.0,0.0,0.0,0.0,0.0,0.0,0.0,0.0,0.9006,1.0174,1.1124,0.0,1.187,1.1894,1.1751,1.1319,1.0631,0.9701,0.0,0.0,0.0,0.0,0.0,0.0,0.0,0.0,0.0,0.0,0.0,0.0,0.0,0.0,0.0,0.0,0.0,0.0,0.0,0.0,0.0,0.0,0.0,0.0,0.0,0.0,0.0,0.0,0.0,0.0,0.0,0.0,0.0,0.0,0.0,0.0,0.0,0.0,0.0,0.0,0.0,0.0,0.0,0.0,0.0,0.0,0.0,0.0,0.0,0.0,0.0,0.0,0.0,0.0,0.0,0.0,0.0,0.0,0.0,0.0,0.0,0.0,0.0,0.0,0.0,0.0,0.0,0.0,0.0,0.0,0.0,0.0,0.0,0.0,0.0,0.0,0.0,0.0,0.0,0.0,0.0,0.0,0.0,0.0,0.0,0.0,0.0,0.0,0.0,0.0,0.0,0.0,0.0,0.0,0.0,0.0,0.0,0.0,0.0,0.0,0.0,0.0,0.9723,1.1565,1.2844,1.2715,1.3056,1.3139,1.2716,1.1601,1.0385,0.0,0.0,0.0,0.0,0.0,0.0,0.0,0.0,0.0,0.0,0.0,0.0,0.0,0.0,0.0,0.0,0.0,0.0,0.0,0.0,0.0,0.0,0.0,0.0,0.0,0.0,0.0,0.0,0.0,0.0,0.0,0.0,0.0,0.0,0.0,0.0,0.0,0.0,0.0,0.0,0.0,0.0,0.0,0.0,0.0,0.0,0.0,0.0,0.0,0.0,0.0,0.0,0.0,0.0,0.0,0.0,0.0,0.0,0.0,0.0,0.0,0.0,0.0,0.0,0.0,0.0,0.0,0.0,0.0,0.0,0.0,0.0,0.0,0.0,0.0,0.0,0.0,0.0,0.0,0.0,0.0,0.0,0.0,0.0,0.0,0.0,0.0,0.0,0.0,0.0,0.0,0.0,0.0,0.0,0.0,0.0,0.0,0.0,0.0,0.0,0.0,0.0,0.0,0.9873,1.1507,1.2601,1.2551,1.2673,1.2692,1.257,1.1668,1.0698,0.973,0.0,0.0,0.0,0.0,0.0,0.0,0.0,0.0,0.0,0.0,0.0,0.0,0.0,0.0,0.0,0.0,0.0,0.0,0.0,0.0,0.0,0.0,0.0,0.0,0.0,0.0,0.0,0.0,0.0,0.0,0.0,0.0,0.0,0.0,0.0,0.0,0.0,0.0,0.0,0.0,0.0,0.0,0.0,0.0,0.0,0.0,0.0,0.0,0.0,0.0,0.0,0.0,0.0,0.0,0.0,0.0,0.0,0.0,0.0,0.0,0.0,0.0,0.0,0.0,0.0,0.0,0.0,0.0,0.0,0.0,0.0,0.0,0.0,0.0,0.0,0.0,0.0,0.0,0.0,0.0,0.0,0.0,0.0,0.0,0.0,0.0,0.0,0.0,0.0,0.0,0.0,0.0,0.0,0.0,0.0,0.0,0.0,0.0,0.0,0.0,0.0,0.0,0.9943,1.1515,1.2554,1.2505,1.2505,1.2505,1.2505,1.1878,1.105,1.0016,0.0,0.0,0.0,0.0,0.0,0.0,0.0,0.0,0.0,0.0,0.0,0.0,0.0,0.0,0.0,0.0,0.0,0.0,0.0,0.0,0.0,0.0,0.0,0.0,0.0,0.0,0.0,0.0,0.0,0.0,0.0,0.0,0.0,0.0,0.0,0.0,0.0,0.0,0.0,0.0,0.0,0.0,0.0,0.0,0.0,0.0,0.0,0.0,0.0,0.0,0.0,0.0,0.0,0.0,0.0,0.0,0.0,0.0,0.0,0.0,0.0,0.0,0.0,0.0,0.0,0.0,0.0,0.0,0.0,0.0,0.0,0.0,0.0,0.0,0.0,0.0,0.0,0.0,0.0,0.0,0.0,0.0,0.0,0.0,0.0,0.0,0.0,0.0,0.0,0.0,0.0,0.0,0.0,0.0,0.0,0.0,0.0,0.0,0.0,0.0,0.0,0.0,1.0039,1.1624,1.2676,1.2554,1.2529,1.2529,1.2529,1.2158,1.143,1.021,0.0,0.0,0.0,0.0,0.0,0.0,0.0,0.0,0.0,0.0,0.0,0.0,0.0,0.0,0.0,0.0,0.0,0.0,0.0,0.0,0.0,0.0,0.0,0.0,0.0,0.0,0.0,0.0,0.0,0.0,0.0,0.0,0.0,0.0,0.0,0.0,0.0,0.0,0.0,0.0,0.0,0.0,0.0,0.0,0.0,0.0,0.0,0.0,0.0,0.0,0.0,0.0,0.0,0.0,0.0,0.0,0.0,0.0,0.0,0.0,1.1778,0.0,0.0,0.0,0.0,0.0,0.0,0.0,0.0,0.0,0.0,0.0,0.0,0.0,0.0,0.0,0.0,0.0,0.0,0.0,0.0,0.0,0.0,0.0,0.0,0.0,0.0,0.0,0.0,0.0,0.0,0.0,0.0,0.0,0.0,0.0,0.0,0.0,0.0,0.0,0.0,0.0,1.0623,1.1966,1.2856,1.2832,1.2808,1.2808,1.2808,1.2386,1.185,1.1219,1.007,0.0,0.0,0.0,0.0,0.0,0.0,0.0,0.0,0.0,0.0,0.0,0.0,0.0,0.0,0.0,0.0,0.0,0.0,0.0,0.0,0.0,0.0,0.0,0.0,0.0,0.0,0.0,0.0,0.0,0.0,0.0,0.0,0.0,0.0,0.0,0.0,0.0,0.0,0.0,0.0,0.0,0.0,0.0,0.0,0.0,0.0,0.0,0.0,0.0,0.0,0.0,0.0,0.0,0.0,0.0,0.0,0.0,0.0,0.0,0.0,1.3454,0.0,0.0,0.0,0.0,0.0,0.0,0.0,0.0,0.0,0.0,0.0,0.0,0.0,0.0,0.0,0.0,0.0,0.0,0.0,0.0,0.0,0.0,0.0,0.0,0.0,0.0,0.0,0.0,0.0,0.0,0.0,0.0,0.0,0.0,0.0,0.0,0.0,0.0,0.0,0.0,1.0801,1.2061,1.2905,1.2905,1.2905,1.2992,1.3224,1.2809,1.254,1.2562,1.1501,0.0,0.0,0.0,0.0,0.0,0.0,0.0,0.0,0.0,0.0,0.0,0.0,0.0,0.0,0.0,0.0,0.0,0.0,0.0,0.0,0.0,0.0,0.0,0.0,0.0,0.0,0.0,0.0,0.0,0.0,0.0,0.0,0.0,0.0,0.0,0.0,0.0,0.0,0.0,0.0,0.0,0.0,0.0,0.0,0.0,0.0,0.0,0.0,0.0,0.0,0.0,0.0,0.0,1.8342,1.8618,1.9045,1.8593,1.8832,1.9472,1.7652,1.7162,1.7549,1.5721,0.0,0.0,0.0,0.0,0.0,0.0,0.0,0.0,0.0,0.0,0.0,0.0,0.0,0.0,0.0,0.0,0.0,0.0,0.0,0.0,0.0,0.0,0.0,0.0,1.5928,1.5591,0.0,0.0,0.0,0.0,0.0,0.0,0.0,0.0,0.0,0.0,0.0,0.0,1.115,1.2286,1.3041,1.3138,1.3002,1.3113,1.3692,1.3296,1.3253,1.3772,1.3022,1.2231,0.0,0.0,0.0,0.0,0.0,0.0,0.0,0.0,0.0,0.0,0.0,0.0,0.0,0.0,0.0,0.0,0.0,0.0,0.0,0.0,0.0,0.0,0.0,0.0,0.0,0.0,0.0,0.0,0.0,0.0,0.0,0.0,1.3323,1.4036,0.0,0.0,0.0,0.0,0.0,0.0,0.0,0.0,0.0,0.0,0.0,0.0,0.0,1.8179,1.9246,1.9862,2.0666,2.1669,2.2117,2.2393,2.2456,2.238,2.2167,2.1841,2.1568,0.0,1.877,1.8469,0.0,0.0,0.0,0.0,0.0,0.0,0.0,0.0,0.0,0.0,0.0,0.0,0.0,0.0,0.0,0.0,0.0,0.0,0.0,0.0,0.0,0.0,1.8116,1.7364,1.7543,1.7672,0.0,1.4695,1.2788,1.2487,1.175,0.0,0.0,0.0,0.0,0.0,0.0,0.0,1.2603,1.3176,1.3658,1.4071,1.3382,1.3248,1.4142,1.3776,1.3697,1.4194,1.3794,1.3466,1.3356,1.216,0.0,0.0,0.0,0.0,0.0,0.0,0.0,0.0,0.0,0.0,0.0,0.0,0.0,0.0,0.0,0.0,0.0,0.0,0.0,0.0,0.0,0.0,0.0,0.0,0.0,0.0,0.0,0.0,0.0,1.3557,1.4761,1.5685,1.5152,1.4638,0.0,0.0,0.0,0.0,0.0,0.0,0.0,0.0,0.0,2.008,2.0577,2.1301,2.2252,2.2517,2.3031,2.3697,2.3935,2.4048,2.4048,2.4048,2.3923,2.3697,2.3697,2.297,2.1694,2.0112,1.8882,1.7915,0.0,0.0,0.0,0.0,1.6748,1.6861,1.7629,1.7942,0.0,1.6681,0.0,0.0,0.0,0.0,0.0,0.0,0.0,0.0,0.0,0.0,1.8958,1.8834,1.8946,1.897,1.845,1.7295,1.5991,0.0,1.4002,1.3028,1.1247,0.0,0.0,0.0,0.0,0.0,1.3433,1.3644,1.386,1.4258,1.3705,1.3692,1.4663,1.4281,1.434,1.5186,1.4834,1.4615,1.4662,1.3839,1.3046,0.0,0.0,0.0,0.0,0.0,0.0,0.0,0.0,0.0,0.0,0.0,0.0,0.0,0.0,0.0,0.0,0.0,0.0,0.0,0.0,0.0,0.0,0.0,0.0,0.0,0.0,0.0,0.0,1.5119,1.6484,1.7523,1.7282,1.6842,0.0,0.0,0.0,0.0,0.0,0.0,2.0731,2.1182,2.1981,2.3254,2.3434,2.3897,2.4715,2.4715,2.4925,2.5365,2.5365,2.5365,2.5365,2.5365,2.5302,2.5163,2.5163,2.4848,2.4141,2.1659,2.0515,2.019,1.9233,1.8517,1.8172,1.8691,1.8881,1.8981,1.9573,1.9914,1.9952,1.8726,1.8067,1.7463,1.622,0.0,0.0,0.0,0.0,1.7928,1.848,1.892,1.9296,1.971,1.9798,1.9698,1.9284,1.9196,1.8647,0.0,1.6162,1.5189,1.2782,0.0,0.0,0.0,0.0,1.3885,1.4246,1.4236,1.4352,1.4732,1.4235,1.4281,1.5311,1.488,1.5005,1.6001,1.5724,1.5557,1.5589,1.5199,1.4458,1.3428,0.0,0.0,0.0,0.0,0.0,0.0,0.0,0.0,0.0,0.0,0.0,0.0,0.0,0.0,0.0,0.0,0.0,0.0,0.0,0.0,0.0,0.0,0.0,0.0,0.0,0.0,0.0,0.0,0.0,1.9556,1.9917,0.0,0.0,0.0,0.0,2.0013,2.063,2.1519,2.2704,2.3726,2.4312,2.4402,2.4928,2.5473,2.6089,2.6089,2.6383,2.69,2.69,2.69,2.69,2.69,2.6606,2.614,2.614,2.5807,2.5134,2.3573,2.2405,2.1523,2.0846,2.0331,2.0029,2.0562,2.0766,2.0881,2.1589,2.1503,2.1028,2.0951,1.9835,1.8513,1.8436,1.7996,0.0,0.0,1.8589,1.9045,1.9585,1.9748,1.9773,1.9798,1.9798,1.9798,1.9773,1.9761,1.9434,0.0,1.8067,1.7505,1.5854,0.0,1.5235,1.413,1.4408,1.4865,1.5261,1.532,1.5534,1.6057,1.5243,1.5051,1.6057,1.5645,1.5579,1.6144,1.6178,1.6166,1.6163,1.5638,1.5086,1.4536,1.2941,0.0,0.0,0.0,0.0,0.0,0.0,0.0,0.0,0.0,0.0,0.0,0.0,0.0,0.0,0.0,0.0,0.0,0.0,0.0,0.0,0.0,0.0,0.0,0.0,0.0,0.0,0.0,0.0,2.1342,2.1848,0.0,2.1485,2.1485,2.1833,2.2568,2.3249,2.4096,2.5089,2.5636,2.6057,2.6401,2.6609,2.6784,2.6904,2.6904,2.6953,2.699,2.699,2.699,2.699,2.699,2.6909,2.6716,2.6716,2.6396,2.5832,2.5307,2.4466,2.3479,2.3246,2.2607,2.1871,2.2048,2.2125,2.2099,2.2029,2.208,2.2144,2.1799,2.1273,2.0784,2.0784,2.063,2.0476,2.0655,2.0807,2.0869,2.0586,2.0509,2.0394,1.9912,1.9798,1.9798,1.9798,1.9798,1.9698,1.9309,1.8933,1.8284,1.6944,1.7055,1.7059,1.6225,1.6591,1.6876,1.6591,1.6271,1.6071,1.6181,1.5557,1.5445,1.6144,1.6022,1.6022,1.6318,1.5975,1.5798,1.5869,1.5366,1.4837,1.4287,1.3321,1.212,0.0,0.0,0.0,0.0,0.0,0.0,0.0,0.0,0.0,0.0,0.0,0.0,0.0,0.0,0.0,0.0,0.0,0.0,0.0,0.0,0.0,0.0,0.0,0.0,0.0,0.0,2.2141,2.2898,2.3582,2.3816,2.3317,2.3728,2.4255,2.4797,2.531,2.5923,2.6733,2.6896,2.7131,2.749,2.749,2.7469,2.7369,2.7369,2.7302,2.718,2.718,2.718,2.718,2.718,2.718,2.718,2.718,2.6961,2.6659,2.6659,2.6091,2.5174,2.4695,2.406,2.3408,2.3228,2.3164,2.3141,2.2825,2.2799,2.2889,2.2515,2.2297,2.2115,2.2115,2.2115,2.2074,2.2074,2.2032,2.1887,2.1395,2.1226,2.1006,2.033,2.0139,2.0037,1.9849,1.9798,1.9798,1.9798,1.9497,1.897,1.7984,1.8182,1.8268,1.7634,1.7919,1.8042,1.7597,1.7085,1.6691,1.6618,1.6098,1.591,1.6275,1.6297,1.634,1.6436,1.6056,1.5878,1.5969,1.5462,1.4928,1.4374,1.3609,1.2643,1.154,0.0,0.0,0.0,0.0,0.0,0.0,0.0,0.0,0.0,0.0,0.0,0.0,0.0,0.0,0.0,0.0,0.0,0.0,0.0,0.0,0.0,0.0,0.0,2.0804,2.2695,2.4201,2.42,2.5184,2.5654,2.5136,2.555,2.6112,2.6693,2.6732,2.6935,2.7464,2.749,2.749,2.749,2.749,2.749,2.749,2.749,2.749,2.749,2.749,2.749,2.749,2.749,2.749,2.749,2.749,2.749,2.749,2.749,2.7196,2.6582,2.5135,2.464,2.4659,2.414,2.3903,2.392,2.4067,2.3733,2.3221,2.3221,2.2869,2.2465,2.2465,2.2358,2.2263,2.2263,2.2166,2.2056,2.203,2.1907,2.1604,2.1045,2.0851,2.0592,1.9975,1.9823,1.9823,1.9811,1.9811,1.9648,1.9121,1.902,1.8845,1.8342,1.8254,0.0,1.8229,1.7765,1.7448,1.741,1.6886,1.6513,1.65,1.65,1.65,1.65,1.6475,1.6475,1.6475,1.5957,1.5437,1.4916,1.3792,1.3223,1.3198,0.0,0.0,0.0,0.0,0.0,0.0,0.0,0.0,0.0,0.0,0.0,0.0,0.0,0.0,0.0,0.0,0.0,0.0,0.0,0.0,0.0,0.0,2.5055,2.4382,2.5707,2.6754,2.6712,2.7314,2.7493,2.6863,2.6942,2.7098,2.7288,2.7301,2.7333,2.749,2.749,2.749,2.749,2.749,2.749,2.749,2.749,2.749,2.749,2.749,2.749,2.749,2.749,2.749,2.749,2.749,2.749,2.749,2.749,2.7398,2.719,2.6426,2.56,2.4905,2.4762,2.4419,2.4067,2.4083,2.3979,2.3848,2.3848,2.3744,2.3613,2.3613,2.3613,2.3584,2.3584,2.3556,2.3394,2.2853,2.268,2.2482,2.1847,2.1679,2.1471,2.0871,2.0756,2.0577,2.0054,1.9952,1.9876,1.961,1.9585,1.9535,1.9384,1.9359,0.0,1.882,1.8644,1.8267,1.7486,1.7237,1.6974,1.6538,1.65,1.65,1.65,1.6145,1.5919,1.5919,1.5412,1.5047,1.4896,1.4205,1.3634,0.0,0.0,0.0,0.0,0.0,0.0,0.0,0.0,0.0,0.0,0.0,0.0,0.0,0.0,0.0,0.0,0.0,0.0,0.0,0.0,0.0,0.0,2.6756,2.7816,2.7727,2.8177,2.8504,2.8467,2.8715,2.8661,2.796,2.8176,2.8218,2.7897,2.8145,2.8284,2.8255,2.802,2.7889,2.7889,2.7889,2.7889,2.7889,2.7889,2.7889,2.7876,2.7607,2.749,2.749,2.749,2.749,2.749,2.749,2.749,2.749,2.749,2.749,0.0,0.0,0.0,0.0,0.0,2.5118,2.4775,2.4557,2.4478,2.4439,2.4191,2.4083,2.4083,2.4083,2.4083,2.4083,2.4083,2.4083,2.4005,2.3579,2.343,2.323,2.2564,2.238,2.217,2.1607,2.1272,2.0963,2.0552,2.022,0.0,1.9901,1.9837,1.9798,1.9798,1.9798,1.9698,1.9397,1.9146,1.8757,1.8141,1.7664,1.7272,1.6911,1.666,0.0,0.0,0.0,1.5932,1.5706,1.5412,0.0,0.0,0.0,0.0,0.0,0.0,0.0,0.0,1.4884,1.5153,0.0,0.0,0.0,0.0,0.0,0.0,0.0,0.0,0.0,0.0,0.0,0.0,0.0,0.0,0.0,0.0,2.9008,2.9936,3.0537,3.0087,2.9709,2.9633,2.9597,2.9362,2.8661,2.9212,2.9334,2.8696,2.9262,2.9565,2.9412,0.0,0.0,0.0,0.0,2.8512,2.8512,2.8512,2.8512,2.8512,2.7968,2.7686,2.7686,2.762,2.7594,2.7594,2.7529,2.749,2.749,2.749,2.749,2.7438,2.6896,2.6706,2.6641,2.6033,2.5793,2.5715,2.528,0.0,0.0,2.44,2.4217,2.4204,2.4109,2.4083,2.4083,2.4083,2.4083,2.4083,2.4083,2.4008,2.379,2.3259,2.3015,2.2817,2.2238,2.1711,2.1299,2.1144,2.059,2.0118,2.0029,1.9901,1.9798,1.9798,1.9798,1.9798,1.9798,1.9371,1.907,1.9008,0.0,0.0,1.741,1.6911,1.6563,1.65,1.655,1.6396,1.5906,1.5944,1.6208,1.6676,1.6688,1.7177,1.8204,1.8267,1.8292,1.8254,1.6292,1.6697,0.0,0.0,0.0,0.0,0.0,0.0,0.0,0.0,0.0,0.0,0.0,0.0,0.0,0.0,0.0,2.9184,3.0051,3.0749,3.124,3.1186,3.0925,3.0375,3.0299,3.0042,2.9362,2.9891,3.0241,3.0095,3.0713,3.0829,3.022,3.0078,2.9749,2.914,2.914,2.914,2.914,2.914,2.914,2.9104,0.0,0.0,2.8922,2.8438,2.8216,2.819,2.7699,2.749,2.749,2.749,2.749,2.7438,2.6896,2.6706,2.6641,2.6033,2.5793,2.578,2.5694,2.5667,2.5563,2.4988,2.4835,2.4756,2.4256,2.4083,0.0,2.4083,2.4083,2.4083,2.4083,2.4083,2.4028,2.3923,2.3868,2.3699,2.31,2.2879,2.2499,2.1457,2.1146,2.0862,2.0259,1.9965,1.9798,1.9798,1.9798,1.9798,1.9798,1.971,1.9497,1.9045,1.8807,1.8355,1.7473,1.7297,1.7024,1.6525,1.6961,1.7184,1.7084,1.7488,1.7777,1.7877,1.7877,1.799,1.8204,1.8619,1.8845,1.8832,1.8406,1.8707,0.0,0.0,0.0,0.0,0.0,0.0,0.0,0.0,0.0,0.0,0.0,2.7157,2.8108,0.0,3.0525,3.1782,3.2184,3.2372,3.263,3.236,3.1869,3.1102,3.0999,3.0865,3.0547,3.1125,3.1478,3.1448,3.2065,3.2259,3.1841,3.1529,3.124,3.0841,3.0841,3.068,3.0272,3.0272,3.0073,2.9706,2.9418,2.931,2.931,2.8996,2.8865,2.8839,2.8563,2.8432,2.8419,2.8126,2.8006,2.798,2.7719,2.7386,2.7066,2.6746,2.6641,2.6602,2.6347,2.6242,2.6164,2.5589,2.5393,2.5288,2.4713,2.4543,2.4491,2.4191,2.4083,2.4083,2.4083,2.4083,2.4083,2.4083,2.4083,2.4005,2.3733,2.3404,2.3026,2.2369,2.1757,2.1185,2.0823,2.0335,1.9991,1.9991,1.9991,1.9991,1.9991,1.9991,1.9889,1.9623,1.9357,1.8989,1.8454,1.8103,1.7733,1.7375,1.7639,1.779,1.779,1.8124,1.8425,1.8702,1.8702,1.8817,1.9094,1.9309,1.9384,1.9396,1.971,2.0137,0.0,0.0,0.0,0.0,0.0,0.0,0.0,0.0,2.5733,2.7242,2.8519,2.9874,3.1474,3.2158,3.2869,3.4025,3.4015,3.388,3.3849,3.3231,3.2554,3.1823,3.1614,3.153,3.167,3.2301,3.2741,3.2801,3.3415,3.3686,3.3429,3.301,3.2721,3.2551,3.2551,3.2242,3.1602,3.158,3.1275,3.0705,3.0263,3.0051,3.0038,2.9967,2.9914,2.9909,2.9842,2.9791,2.975,2.9149,2.8903,2.8889,2.8734,2.8371,2.7894,2.7894,2.7894,2.7828,2.7396,2.7237,2.7144,2.656,2.6343,2.6242,2.5551,2.5369,2.522,2.4474,2.4287,2.4287,2.4287,2.4287,2.4287,2.4287,2.4287,2.4229,2.4112,2.3704,2.3326,2.3208,2.2369,2.1626,2.1523,2.0914,2.0412,2.022,2.0207,2.0207,2.0207,2.0207,2.0207,2.0207,1.9798,1.9502,1.94,1.8803,1.838,1.8275,1.8376,1.8426,1.8426,1.8646,1.8961,1.9381,1.9394,1.961,2.0042,1.9914,1.9938,2.0052,2.0545,2.1035,2.0287,2.1103,2.2628,2.4425,2.4979,2.6164,0.0,0.0,2.9371,3.132,3.2321,3.2921,3.3136,3.3739,3.4232,3.4208,3.4163,3.4119,3.3985,3.3305,3.2749,3.2673,3.1957,3.1735,3.2318,3.3005,3.3617,3.4222,3.488,3.4945,3.4211,3.4105,3.379,3.3115,3.3115,3.308,3.2975,3.2975,3.294,3.2835,3.28,3.2772,3.2758,3.2283,3.2032,3.2038,3.1489,3.1288,3.1199,3.0554,3.0287,3.0213,2.9635,2.9348,2.9286,2.9286,2.9286,2.9286,2.9216,2.9188,2.909,2.8549,2.8384,2.816,2.6958,2.6595,2.6356,2.5225,2.4892,2.4892,2.4892,2.4892,2.4892,2.4892,2.4892,2.475,2.4229,2.4031,2.3822,2.3287,2.3091,2.2843,2.2348,2.1759,2.1082,2.031,2.0207,2.0207,2.0207,2.0207,2.0207,2.0207,2.0143,1.9913,1.9438,1.8898,1.8577,1.8554,1.8992,1.9273,1.9273,1.9735,2.0029,2.0092,2.0092,2.0118,2.0182,2.0156,2.0438,2.0963,2.1014,2.1212,2.4656,2.5133,0.0,0.0,2.798,2.9273,3.0874,3.0889,3.0905,3.2136,3.2936,3.3537,3.3952,3.4524,3.5048,0.0,3.5431,3.5339,3.5278,3.4258,3.3456,3.3382,3.2271,3.1914,3.2976,3.3335,3.3933,3.4996,3.534,3.5359,3.5019,3.4986,3.4854,3.4539,3.4539,3.4308,3.3837,3.3837,3.363,3.3178,3.3178,3.3178,3.3178,3.296,3.2925,3.2987,3.2729,3.2627,3.2616,3.1931,3.1441,3.1051,3.0778,3.0432,3.0042,2.9628,2.9504,2.9504,2.9504,2.9504,2.9462,2.9223,2.9169,2.9015,2.8143,2.7622,2.7143,2.6286,2.5786,2.5481,2.5481,2.5481,2.5398,2.5061,2.5005,2.4835,2.4229,2.4083,2.4018,2.3757,2.343,2.3145,2.2897,2.2414,2.1903,2.1549,2.0914,2.0498,2.0498,2.0498,2.0498,2.0498,2.0498,2.0382,2.0062,1.9829,1.9663,1.9528,1.9746,1.9887,1.9887,2.0193,2.0372,2.0372,2.0372,2.0372,2.0372,2.0617,2.0861,2.1105,2.1785,2.2137,2.7365,0.0,0.0,2.875,3.0181,3.1305,3.1028,3.1336,3.1886,3.2536,3.3059,3.3629,3.4366,3.4771,3.5278,3.6107,3.6106,3.6059,3.6258,3.5003,3.4015,3.388,3.2554,3.2061,3.3171,3.326,3.3858,3.5385,3.5325,3.5295,3.5489,3.5522,3.5554,3.5504,3.5522,3.5282,3.4681,3.4629,3.4394,3.3973,3.3905,3.3905,3.3973,3.3973,3.4047,3.4133,3.4133,3.4125,3.4147,3.3487,3.2867,3.2335,3.1997,3.1541,3.0981,3.0357,3.0103,3.0042,3.0042,3.0042,3.0042,3.0042,3.0042,2.9927,2.9386,2.8856,2.8254,2.7328,2.6691,2.6281,2.6111,2.6041,2.596,2.5564,2.5467,2.53,2.4708,2.4578,2.4578,2.4578,2.4218,2.3911,2.3911,2.3321,2.2923,2.3098,2.2113,2.1283,2.0961,2.0804,2.0699,2.0699,2.0699,2.0662,2.0562,2.0562,2.0486,2.0334,2.0334,2.0334,2.0334,2.0486,2.0562,2.0562,2.0562,2.0562,2.0562,2.0992,2.1314,2.1482,2.2461,2.3015,0.0,0.0,2.8704,3.0002,3.0874,3.1551,3.2198,3.2351,3.2552,3.3229,3.3398,3.3629,3.4366,3.452,3.4751,3.5429,3.5522,3.5737,3.6399,3.5156,3.4134,3.4015,3.2801,3.2169,0.0,3.2631,3.3365,3.5355,3.4891,3.4801,3.5474,3.5621,3.5638,3.5504,3.5621,3.5688,3.5655,3.5539,3.5619,3.5894,3.572,3.572,3.591,3.591,3.5926,3.5911,3.5911,3.5928,3.5867,3.5214,3.4802,3.4481,3.3231,3.2631,3.2378,3.191,3.1597,3.1438,3.1438,3.1438,3.1438,3.1438,3.1438,3.1318,3.066,3.0436,3.0026,2.8192,2.7665,2.7478,2.6828,2.6669,2.6669,2.6642,2.6642,2.6484,2.5864,2.5755,2.5755,2.5755,2.5714,2.5727,2.5727,2.4791,2.4258,2.4817,2.3894,2.2707,2.1629,2.1027,2.0699,2.0699,2.0699,2.0699,2.0687,2.0687,2.0687,2.0687,2.0674,2.0674,2.0674,2.0687,2.0687,2.0687,2.0687,2.0687,2.0712,2.1237,2.1799,2.2375,2.2936,2.3496,0.0,0.0,2.9925,3.0843,3.1567,3.2105,3.2336,3.2398,3.2459,3.269,3.2382,3.2413,3.3552,3.3398,3.3614,3.526,3.5506,3.5722,3.6399,3.5569,3.4667,3.4195,3.3679,0.0,0.0,0.0,0.0,3.5058,3.4953,3.5119,3.5799,3.5878,3.5878,3.5829,3.5878,3.5894,3.5894,3.5846,3.5893,3.6005,3.5941,3.5941,3.6005,3.6005,3.6005,3.6005,3.6005,3.6005,3.599,3.5762,3.5366,3.4864,3.4425,3.3683,3.2807,3.2653,3.2261,3.1826,3.1712,3.1597,3.1511,3.1511,3.1511,3.1466,3.1227,3.0838,3.0362,2.9748,2.8951,2.8269,2.8021,2.7621,2.7203,2.6814,2.6709,2.6537,2.5933,2.5783,2.5783,2.5783,2.5783,2.5783,2.5783,2.5479,2.5187,2.5021,2.4325,2.3492,2.2672,2.2385,2.211,2.1688,2.1623,2.1492,2.118,2.1155,2.1033,2.0724,2.0699,2.0848,2.1155,2.1155,2.1313,2.1623,2.1313,2.1155,2.1169,2.1786,2.2205,2.2413,2.3367,2.3916,2.9863,3.0555,3.0982,3.189,3.2428,3.2752,3.2752,3.2567,3.2321,3.2074,3.1505,3.1305,3.2182,3.1782,3.2074,3.4368,3.4737,3.5153,3.6322,3.5799,3.511,3.4606,3.4331,3.4164,0.0,0.0,0.0,3.5261,3.5154,3.5291,3.5975,3.6068,3.6068,3.6005,3.6068,3.6053,3.6053,3.6037,3.6037,3.6053,3.6132,3.6178,3.6178,3.6178,3.6178,3.6178,3.6178,3.6178,3.6178,3.6178,3.5872,3.5399,3.5155,3.4364,3.3346,3.3133,3.2616,3.1996,3.1898,3.1784,3.1683,3.1683,3.1683,3.1683,3.1626,3.1326,3.0906,3.0582,2.9909,2.9175,2.8727,2.8263,2.7797,2.7185,2.7023,2.6904,2.6522,2.6428,2.6428,2.6428,2.6428,2.6428,2.6428,2.6428,2.6246,2.5688,2.5454,2.4891,2.3625,2.3452,2.3297,2.2855,2.2798,2.2608,2.2052,2.2014,2.1773,2.1229,2.1215,2.1337,2.1636,2.166,2.1789,2.2081,2.2034,2.2014,2.2014,2.2903,2.3339,2.3353,2.4293,2.4708,3.0309,3.1028,3.1844,3.3136,3.3429,3.3398,3.3398,3.2844,3.2151,3.1501,3.0797,3.0294,0.0,0.0,3.0274,3.2921,3.3413,3.4183,3.6245,3.5984,3.5538,0.0,0.0,0.0,0.0,0.0,0.0,3.5991,0.0,3.5337,3.6006,3.6148,3.6148,3.6037,3.6148,3.6211,3.6211,3.6085,3.6085,3.6211,3.6414,3.6492,3.6492,3.6492,3.6492,3.6492,3.6492,3.6492,3.6492,3.6492,3.6383,3.6134,3.5492,3.479,3.4014,3.3476,3.2747,3.207,3.2025,3.2025,3.1996,3.1996,3.1996,3.1968,3.1841,3.1813,3.1649,3.0803,3.0565,3.0223,2.9037,2.8652,2.8442,2.7809,2.7615,2.76,2.76,2.76,2.76,2.76,2.7625,2.7625,2.7625,2.7625,2.7423,2.6852,2.7255,2.6781,2.4533,2.4237,2.4198,2.417,2.4195,2.3904,2.3251,2.3195,2.2917,2.2231,2.2203,2.2226,2.225,2.225,2.225,2.2273,2.2874,2.3195,2.3195,2.4411,2.5003,2.5017,2.5556,2.5797,3.1705,3.2767,3.3796,3.4135,3.3798,3.3398,3.3398,3.249,3.1459,3.0797,2.971,2.8919,2.8919,0.0,0.0,3.229,3.355,0.0,3.6953,3.7092,0.0,0.0,0.0,3.7245,3.6706,3.6691,0.0,0.0,3.6014,3.5661,3.6321,3.6383,3.6429,3.6367,3.6429,3.6414,3.6414,3.6398,3.6398,3.6414,3.6492,3.6492,3.6492,3.6492,3.6492,3.6492,3.6492,3.6492,3.6492,3.6492,3.646,3.6399,3.623,3.5753,3.5047,3.4401,3.3681,3.2962,3.2471,3.2178,3.1996,3.1996,3.1996,3.1996,3.1968,3.194,3.191,3.1684,3.1192,3.0641,3.031,2.9432,2.8562,2.8382,2.7974,2.76,2.76,2.76,2.76,2.76,2.7675,2.7765,2.7765,2.7815,2.7855,2.769,2.7715,2.7325,2.613,2.5963,2.5761,2.5274,2.5215,2.5013,2.4491,2.4452,2.4195,2.3628,2.359,2.3765,2.4158,2.4197,2.435,2.4705,2.4534,2.4452,2.4428,2.4816,2.5003,2.5017,2.5556,2.5577,3.3057,3.412,3.4874,3.4582,3.4197,3.3629,3.2721,3.1705,3.0612,2.9325,2.8258,0.0,2.7465,0.0,0.0,0.0,0.0,0.0,3.6769,3.7307,3.7615,0.0,3.8277,0.0,3.7984,3.7938,3.7938,0.0,3.6692,3.6091,3.6476,3.6492,3.6492,3.6492,3.6492,3.6492,3.6492,3.6492,3.6492,3.6492,3.6492,3.6492,3.6492,3.6492,3.6492,3.6492,0.0,3.6492,3.6492,3.6492,3.6492,3.6492,3.6492,3.6076,3.546,3.509,3.4305,3.3352,3.2967,3.2548,3.2178,3.2178,3.2178,3.2163,3.2122,3.2094,3.2066,3.2025,3.1667,3.1276,3.0945,3.0271,2.9497,2.8925,2.8488,2.8137,2.7826,2.779,2.779,2.779,2.784,2.7905,2.7905,2.7955,2.7995,2.7995,2.793,2.7705,2.7278,2.7095,2.6871,2.6512,2.6467,2.6251,2.5687,2.5648,2.5394,2.4805,2.4752,2.4888,2.5197,2.5197,2.5316,2.5591,2.5621,2.5648,2.5648,2.5981,2.6144,2.6158,2.6454,2.6443,3.4253,3.5163,3.5596,3.5004,3.4785,3.418,3.2006,3.0917,2.978,2.7696,0.0,2.6211,2.605,0.0,2.7934,2.994,0.0,3.3921,3.6168,3.7076,3.7784,3.8554,3.8723,3.8785,3.8785,3.8692,3.8646,3.8646,3.7384,3.663,3.663,3.6538,3.6492,3.6492,3.6492,3.6492,3.6492,3.6492,3.6492,3.6492,3.6492,3.6492,3.6492,3.6492,3.6492,3.6492,3.6492,0.0,3.6492,3.6492,3.6492,3.6492,3.6492,3.6138,3.5599,3.5522,3.4722,3.366,3.3583,3.309,3.2505,3.2428,3.2398,3.237,3.2274,3.2219,3.2191,3.2094,3.2038,3.1888,3.1311,3.1083,3.0706,2.9538,2.9128,2.8855,2.8278,2.8056,2.7995,2.7995,2.8005,2.8029,2.8029,2.8044,2.8054,2.8054,2.8044,2.8029,2.8029,2.7815,2.765,2.765,2.765,2.7425,2.6855,2.6795,2.6531,2.5937,2.5893,2.5893,2.5869,2.5869,2.5869,2.5869,2.6437,2.6722,2.6722,2.7315,2.76,2.76,2.76,2.7575,3.503,3.6135,3.701,3.6798,3.6327,3.5241,3.2651,3.1099,0.0,0.0,0.0,2.5333,2.4743,2.5703,0.0,2.9233,0.0,0.0,0.0,0.0,3.7954,0.0,0.0,0.0,0.0,0.0,0.0,0.0,0.0,3.7323,3.7323,3.6799,3.6492,3.6492,3.6492,3.6492,3.6492,3.6492,3.6492,3.6492,3.6492,3.6492,3.6492,3.6492,3.6492,3.6492,3.6492,0.0,3.6492,3.6492,3.6492,3.6492,3.6492,3.6415,3.6245,3.5722,3.5367,3.5075,3.452,3.3814,3.3136,3.2567,3.2398,3.2398,3.237,3.237,3.237,3.2342,3.2247,3.2148,3.2025,3.1488,3.0934,3.0706,2.9811,2.8976,2.8855,2.8399,2.7995,2.7995,2.8079,2.8162,2.8162,2.825,2.8339,2.8339,2.825,2.8162,2.8162,2.8029,2.793,2.793,2.793,2.7885,2.7764,2.7764,2.7654,2.7434,2.7419,2.737,2.7255,2.7255,2.7255,2.7255,2.736,2.742,2.742,2.754,2.76,2.76,2.76,2.7331,3.5761,3.687,3.7684,3.6885,3.6114,3.4717,3.1395,0.0,0.0,0.0,0.0,2.4797,2.4906,0.0,0.0,0.0,0.0,0.0,0.0,0.0,0.0,0.0,0.0,0.0,0.0,0.0,0.0,0.0,0.0,3.7877,3.7523,3.6861,3.6492,3.6492,3.6492,3.6492,3.6492,3.6492,3.6492,3.6492,3.6492,3.6492,3.6492,3.6492,3.6492,3.6492,3.6492,0.0,3.6492,3.6492,3.6492,3.6492,3.6492,3.6492,3.6445,3.6122,3.5784,3.546,3.5136,3.4291,3.3352,3.3013,3.2675,3.2398,3.2398,3.2398,3.2398,3.2398,3.2342,3.2287,3.2287,3.2029,3.1653,3.1301,3.0448,2.973,2.973,2.9195,2.8736,2.8736,2.8495,2.8299,2.8299,2.8348,2.8411,2.8411,2.8348,2.8299,2.8299,2.825,2.8152,2.8005,2.7995,2.7995,2.7995,2.7995,2.7955,2.7905,2.7905,2.788,2.7815,2.7815,2.7815,2.7815,2.774,2.77,2.77,2.7625,2.76,2.76,2.76,2.7433,3.6174,3.7311,3.7981,3.6859,3.596,3.4333,3.0399,2.8932,0.0,0.0,2.4779,2.4759,2.5389,0.0,0.0,0.0,0.0,0.0,0.0,0.0,0.0,0.0,0.0,0.0,0.0,0.0,0.0,0.0,0.0,0.0,3.7323,3.6784,3.6492,3.6492,3.6492,3.6492,3.6492,3.6492,3.6492,3.6492,3.6492,3.6492,3.6492,3.6492,3.6492,3.6492,3.6492,0.0,0.0,3.6492,3.6492,3.6492,3.6492,3.6492,3.6492,3.6492,3.6153,3.5691,3.5691,3.4891,3.3829,3.3675,3.3075,3.2398,3.2398,3.2398,3.2398,3.2398,3.2398,3.2398,3.2398,3.2398,3.2213,3.1551,3.0997,3.0555,3.0432,2.9986,2.9602,2.9602,2.9064,2.8611,2.8611,2.8504,2.8411,2.8411,2.8411,2.8411,2.8411,2.8411,2.8339,2.8103,2.8094,2.8094,2.8094,2.8094,2.8054,2.8054,2.8029,2.8029,2.7995,2.7995,2.7995,2.7995,2.7905,2.784,2.784,2.774,2.7675,2.765,2.765,2.77,3.606,3.719,3.8065,3.7808,3.7172,3.5547,3.1423,0.0,0.0,2.5994,2.5408,2.5408,2.5484,2.5578,0.0,0.0,0.0,0.0,0.0,0.0,0.0,0.0,0.0,0.0,0.0,0.0,0.0,0.0,0.0,0.0,3.6661,3.6522,3.6492,3.6492,3.6492,3.6492,3.6492,3.6492,3.6492,3.6492,3.6492,3.6492,3.6492,3.6492,3.6492,3.6492,3.6492,0.0,0.0,3.6492,3.6492,3.6492,3.6492,3.6492,3.6492,3.6492,3.6445,3.6399,3.6399,3.5907,3.5213,3.4597,3.3503,3.2398,3.2398,3.2398,3.2398,3.2398,3.2398,3.2398,3.2398,3.2398,3.2213,3.1551,3.1336,3.1136,3.0525,3.034,3.0309,3.0309,2.9756,2.9294,2.9294,2.8812,2.8411,2.8411,2.8411,2.8411,2.8411,2.8411,2.8387,2.8363,2.8363,2.8363,2.8363,2.8363,2.8299,2.8186,2.8186,2.8128,2.802,2.7995,2.7995,2.7995,2.798,2.798,2.798,2.7955,2.7905,2.779,2.779,2.8046,3.5769,3.702,3.7858,3.7368,3.6338,3.457,3.135,0.0,2.8257,2.627,2.567,2.5652,2.6123,2.6016,2.6051,2.6604,2.6779,2.7676,0.0,0.0,0.0,0.0,0.0,0.0,0.0,0.0,0.0,0.0,0.0,0.0,3.6569,3.6492,3.6492,3.6492,3.6492,3.6492,3.6492,3.6492,3.6492,3.6492,3.6492,3.6492,3.6492,3.6492,3.6492,3.6492,3.6492,0.0,0.0,3.6492,3.6492,3.6492,3.6492,3.6492,3.6492,3.6492,3.6492,3.6492,3.6492,3.6045,3.5475,3.5198,3.4137,3.2921,3.2521,3.2398,3.2398,3.2398,3.2398,3.2398,3.2398,3.2398,3.2321,3.2059,3.1982,3.1921,3.1659,3.1289,3.0997,3.0997,3.0474,3.0002,3.0002,2.9771,2.9587,2.9587,2.9587,2.9587,2.9587,2.9587,2.9433,2.9058,2.8642,2.8411,2.8411,2.8411,2.8372,2.8323,2.8323,2.8299,2.8241,2.8241,2.8241,2.8241,2.8152,2.8128,2.8128,2.8439,2.8586,2.8536,2.894,2.9247,3.5262,3.658,3.7449,3.6931,3.5644,3.3849,0.0,0.0,2.8152,2.6597,2.6052,2.6016,2.6607,2.647,2.628,2.628,2.6323,2.7114,2.9139,0.0,0.0,0.0,0.0,0.0,0.0,0.0,0.0,0.0,0.0,0.0,3.6553,3.6492,3.6492,3.6492,3.6492,3.6492,3.6492,3.6492,3.6492,3.6492,3.6492,3.6492,3.6492,3.6492,3.6492,3.6492,3.6492,0.0,0.0,3.6492,3.6492,3.6492,3.6492,3.6492,3.6492,3.6492,3.6492,3.6492,3.6492,3.6184,3.5753,3.5568,3.4814,3.3891,3.3213,3.2721,3.2398,3.2398,3.2398,3.2398,3.2398,3.2398,3.2398,3.2398,3.2398,3.2398,3.2398,3.2013,3.169,3.169,3.1151,3.0705,3.0705,3.0525,3.0402,3.0402,3.0402,3.0402,3.0402,3.0402,3.0217,2.974,2.9264,2.8842,2.8442,2.8596,2.8611,2.8411,2.8596,2.8704,2.8704,2.8904,2.8996,2.8996,2.8897,2.8857,2.8857,2.922,2.9398,2.9362,2.9829,3.0148,3.4569,3.5793,3.6812,3.6795,3.5644,3.3914,0.0,3.004,2.857,2.7012,2.6691,2.6691,2.6691,2.6691,2.6691,2.6691,2.6915,2.8094,3.0968,0.0,0.0,0.0,0.0,0.0,0.0,0.0,0.0,0.0,0.0,0.0,3.6553,3.6492,3.6492,3.6492,3.6492,3.6492,3.6492,3.6492,3.6492,3.6492,3.6492,3.6492,3.6492,3.6492,3.6492,0.0,0.0,0.0,0.0,3.6492,3.6492,3.6492,3.6492,3.6492,3.6492,3.6492,3.6492,3.6492,3.6492,3.6492,3.6368,3.5737,3.5506,3.5367,3.469,3.3519,3.2398,3.2398,3.2398,3.2398,3.2398,3.2398,3.2398,3.2398,3.2398,3.2398,3.2398,3.2382,3.2382,3.2382,3.1844,3.1393,3.1393,3.0843,3.0402,3.0402,3.0402,3.0402,3.0402,3.0402,3.0402,3.0386,3.0386,2.9833,2.8519,2.9027,2.9095,2.8442,2.9002,2.9371,2.9371,3.0017,3.0371,3.0371,3.0371,3.0386,3.0386,3.0386,3.0334,3.0173,3.0188,3.0476,3.1853,3.266,3.2987,3.2987,3.2222,3.1173,2.9974,2.8907,2.7909,2.6894,2.6691,2.6691,2.6691,2.6691,2.7046,2.8096,2.8325,0.0,0.0,0.0,0.0,0.0,0.0,0.0,0.0,0.0,0.0,0.0,0.0,0.0,3.7754,3.6937,3.6492,3.6492,3.6492,3.6492,3.6492,3.6492,3.6492,3.6492,3.6492,3.6723,3.7134,3.7134,3.7342,0.0,0.0,0.0,0.0,3.7722,3.7722,3.7722,3.7722,3.7722,3.7663,3.7268,3.7134,3.7074,3.6631,3.6492,3.6461,3.6245,3.5861,3.5475,3.526,3.4183,3.2982,3.2521,3.2398,3.2398,3.2398,3.2398,3.2398,3.2398,3.2398,3.2398,3.2398,3.2398,3.2398,3.2398,3.2213,3.2074,3.2074,3.1905,3.1767,3.1767,3.1767,3.1767,3.1767,3.1767,3.1582,3.1136,3.149,3.1228,2.9879,2.9956,2.9986,2.9771,2.9956,3.0079,3.0079,3.0279,3.0402,3.0402,3.0402,3.0402,3.0402,3.0859,3.1294,3.1712,3.1712,3.1793,0.0,3.0806,3.121,3.123,3.0668,2.9922,2.9179,2.8383,2.7621,2.6928,2.6742,2.6725,2.6758,2.6742,2.6996,2.7977,2.8366,0.0,0.0,0.0,0.0,0.0,0.0,0.0,0.0,0.0,0.0,0.0,0.0,0.0,3.8311,3.7592,3.7193,3.7193,3.6952,3.6831,3.6831,3.7058,3.7193,3.7193,3.7193,3.7371,3.7738,3.7738,3.7953,0.0,0.0,0.0,0.0,3.8306,3.8306,3.8306,3.8306,3.8306,3.825,3.7883,3.7738,3.7679,3.7312,3.7193,3.7193,3.7193,3.691,3.6501,3.625,3.4883,3.326,3.2582,3.2398,3.2398,3.2398,3.2398,3.2398,3.2398,3.2398,3.2398,3.2398,3.2398,3.2398,3.2398,3.2398,3.2398,3.2398,3.2398,3.2398,3.2398,3.2398,3.2398,3.2398,3.2398,3.2228,3.1813,3.2136,3.2059,3.1243,3.0936,3.0663,3.0417,3.0632,3.0782,3.0782,3.1028,3.114,3.114,3.114,3.114,3.1166,3.1567,3.1982,3.2398,3.2398,3.2398,0.0,2.9692,3.0755,3.0796,3.03,2.9619,2.8925,2.8248,0.0,2.7012,2.6809,2.6792,2.7029,2.6877,2.6826,2.7063,0.0,0.0,0.0,0.0,0.0,0.0,0.0,0.0,0.0,0.0,0.0,0.0,0.0,0.0,3.8463,3.8351,3.8306,3.8362,3.7825,3.7506,3.746,3.801,3.8306,3.8306,3.8306,3.8306,3.8362,3.8362,3.839,0.0,0.0,0.0,0.0,3.8418,3.8418,3.8418,3.8418,3.8418,3.8418,3.8362,3.8362,3.8379,3.8306,3.8306,3.8306,3.8306,3.8306,3.8177,3.7491,3.5606,3.3524,3.2798,3.2597,3.2582,3.2535,3.252,3.252,3.252,3.252,3.252,3.252,3.252,3.252,3.252,3.2465,3.2465,3.2465,3.2425,3.2398,3.2398,3.2398,3.2398,3.2398,3.2398,3.2398,3.2398,3.2398,3.2398,3.2398,3.184,3.1197,3.0571,3.1136,3.1459,3.1459,3.2059,3.2398,3.2398,3.2398,3.2398,3.2398,3.2398,3.2398,3.2398,3.2398,3.2398,2.4731,0.0,2.6164,2.6228,2.6568,2.6807,0.0,2.6842,2.713,2.6943,0.0,2.73,2.851,2.7742,2.7862,0.0,0.0,0.0,0.0,0.0,0.0,0.0,0.0,0.0,0.0,0.0,0.0,0.0,0.0,3.9339,3.9653,3.8794,3.8518,3.8974,3.8838,3.8562,3.8096,3.8238,3.8306,3.8306,3.8306,3.8546,3.8974,3.8974,3.9242,0.0,0.0,0.0,3.9679,3.9679,3.9679,3.9679,3.9679,3.9679,3.9627,3.9162,3.8974,3.892,3.8463,3.8306,3.8306,3.8306,3.8306,3.8177,3.7491,3.6874,3.614,3.4877,3.4509,3.4338,3.3758,3.3614,3.3614,3.3614,3.3614,3.3614,3.3614,3.3614,3.3614,3.3614,3.3277,3.3013,3.3013,3.2668,3.2398,3.2398,3.2398,3.2398,3.2398,3.2398,3.2398,3.2398,3.2398,3.2398,3.2398,3.2244,3.209,3.1936,3.2074,3.2151,3.2151,3.2305,3.2398,3.2398,3.2398,3.2398,3.2398,3.2398,3.2398,3.2398,3.2398,3.2398,2.3192,2.4411,2.5817,2.6236,2.663,2.6975,2.7282,0.0,0.0,0.0,0.0,2.7263,2.8134,0.0,0.0,0.0,0.0,0.0,0.0,0.0,0.0,0.0,0.0,0.0,0.0,0.0,0.0,0.0,0.0,3.9952,4.0288,3.9662,3.9463,3.9782,3.9799,3.9454,3.8712,3.8984,3.9119,3.9119,3.9119,3.9295,3.9618,3.9618,3.9799,0.0,0.0,0.0,4.0096,4.0096,4.0096,4.0096,4.0096,4.0096,4.0045,3.9722,3.9618,3.9566,3.9242,3.9119,3.9119,3.9119,3.9119,3.9053,3.8682,3.8593,3.8173,3.6248,3.5441,3.5059,3.466,3.4295,3.4011,3.4011,3.4011,3.4011,3.4011,3.4011,3.4011,3.4011,3.3767,3.3563,3.3563,3.3345,3.3135,3.3135,3.3135,3.3135,3.3135,3.3135,3.3135,3.3135,3.2895,3.2776,3.2776,3.2547,3.2398,3.2398,3.2398,3.2398,3.2398,3.2398,3.2398,3.2398,3.2398,3.2398,3.2398,3.2398,3.2398,3.2398,3.2398,3.2398,2.2897,2.505,2.7279,2.7548,2.779,2.8117,2.8665,0.0,0.0,0.0,0.0,0.0,0.0,0.0,0.0,0.0,0.0,0.0,0.0,0.0,0.0,0.0,0.0,0.0,0.0,0.0,0.0,0.0,0.0,4.051,4.051,4.051,4.051,4.051,4.051,4.0154,3.9418,3.9901,4.0146,4.0146,4.0146,4.0146,4.0146,4.0146,4.0146,4.0146,0.0,0.0,4.0146,4.0146,4.0146,4.0146,4.0146,4.0146,4.0163,4.0138,4.0121,4.0146,4.0146,4.0146,4.0146,4.0146,4.0146,4.0146,4.0146,4.0146,3.9724,3.7553,3.6413,3.5764,3.564,3.5027,3.4447,3.4423,3.4341,3.4243,3.4243,3.4243,3.4243,3.4243,3.4185,3.4136,3.4136,3.4061,3.4011,3.4011,3.4011,3.4011,3.4011,3.4011,3.4011,3.4011,3.3588,3.3313,3.3313,3.2895,3.2641,3.2641,3.2492,3.2398,3.2398,3.2398,3.2398,3.2398,3.2398,3.2398,3.2398,3.2398,3.2398,3.2398,3.2398,3.2398,2.4284,2.6371,2.7578,2.5114,2.5975,2.7252,2.6639,0.0,0.0,0.0,0.0,0.0,0.0,0.0,0.0,0.0,0.0,0.0,0.0,0.0,0.0,0.0,0.0,0.0,0.0,0.0,0.0,0.0,0.0,4.051,4.051,4.051,4.051,4.051,4.051,4.0444,4.0296,4.0395,4.0436,4.0436,4.0436,4.0436,4.0436,4.0436,4.0436,4.0436,0.0,4.0436,4.0436,4.0436,4.0436,4.0436,4.0436,4.0436,4.0419,4.0313,4.0337,4.0436,4.0436,4.0436,4.0436,4.0436,4.0436,4.0436,4.0436,4.0436,4.036,3.9982,3.924,3.8417,3.7679,3.7003,3.6494,3.64,3.5849,3.5339,3.5339,3.5339,3.5339,3.5339,3.4998,3.4673,3.4673,3.4309,3.4011,3.4011,3.4011,3.4011,3.4011,3.4011,3.4011,3.4011,3.3935,3.3885,3.3885,3.3793,3.3742,3.3742,3.2911,3.2398,3.2398,3.2398,3.2398,3.2398,3.2398,3.2398,3.2398,3.2398,3.2398,3.2398,3.2398,3.2398,2.356,2.5419,2.6919,2.5937,2.804,3.0213,2.9816,0.0,0.0,0.0,0.0,0.0,0.0,0.0,0.0,0.0,0.0,0.0,0.0,0.0,0.0,0.0,0.0,0.0,0.0,0.0,0.0,0.0,0.0,0.0,4.0728,4.0728,4.0728,4.0728,4.0728,4.0728,4.0728,4.0728,4.0655,4.051,4.051,4.051,4.051,4.051,4.051,4.051,0.0,4.051,4.051,4.051,4.051,4.051,4.051,4.051,4.0493,4.0436,4.0436,4.051,4.051,4.051,4.051,4.051,4.051,4.051,4.051,4.051,4.051,4.051,3.9931,3.9211,3.8823,3.8216,3.7677,3.7631,3.6996,3.639,3.6361,3.6017,3.5706,3.5622,3.5402,3.5224,3.5224,3.5021,3.4864,3.4864,3.4864,3.4864,3.4864,3.4864,3.4864,3.4864,3.4601,3.4431,3.4431,3.4185,3.4011,3.4011,3.3266,3.2841,3.2841,3.2547,3.2398,3.2398,3.2398,3.2398,3.2398,3.2398,3.2398,3.2398,3.2398,3.2398,2.3129,2.4781,2.6575,2.7351,0.0,3.199,3.2524,0.0,0.0,0.0,0.0,0.0,0.0,0.0,0.0,0.0,0.0,0.0,0.0,0.0,0.0,0.0,0.0,0.0,0.0,0.0,0.0,0.0,0.0,0.0,4.0912,4.0912,4.0912,4.0912,4.0912,4.0912,4.0912,4.0912,4.0799,4.0583,4.0583,4.0583,4.0583,4.0583,4.0583,4.0583,4.0583,4.0583,4.0583,4.0583,4.0583,4.0583,4.0583,4.0583,4.0558,4.0583,4.0583,4.0558,4.0583,4.0583,4.0583,4.0583,4.0583,4.0583,4.0583,4.0583,4.0583,4.0583,4.0196,3.9744,3.9655,3.9132,3.8584,3.8578,3.7957,3.7337,3.7075,3.6542,3.6021,3.5745,3.5689,3.5689,3.5644,3.5667,3.5689,3.5644,3.5644,3.5644,3.5644,3.5622,3.56,3.56,3.5224,3.4998,3.4998,3.4601,3.4382,3.4382,3.3751,3.3407,3.3407,3.3002,3.2776,3.2776,3.2776,3.2695,3.2602,3.2602,3.252,3.2398,3.2398,3.2398,2.4453,2.6006,2.7385,2.8144,2.8523,0.0,3.1403,3.0731,0.0,3.1507,0.0,0.0,0.0,0.0,0.0,0.0,0.0,0.0,0.0,0.0,0.0,0.0,0.0,0.0,0.0,0.0,0.0,0.0,0.0,0.0,4.0912,4.0912,4.0912,4.0912,4.0912,4.0912,4.0912,4.0912,4.0888,4.0871,4.0871,4.0871,4.0871,4.0871,4.0871,4.0871,4.0871,4.0871,4.0871,4.0871,4.0871,4.0871,4.0871,4.0793,4.0697,4.084,4.0793,4.0697,4.084,4.0871,4.0871,4.0871,4.0871,4.0871,4.0871,4.0871,4.0871,4.0871,4.0836,4.0731,4.0497,3.9973,3.9478,3.9354,3.8766,3.8008,3.7251,3.7046,3.6807,3.6112,3.5975,3.5932,3.5817,3.5905,3.5932,3.5817,3.5795,3.5795,3.5795,3.5667,3.56,3.56,3.5577,3.5554,3.5554,3.5509,3.547,3.547,3.4512,3.3944,3.3944,3.391,3.3885,3.3885,3.3885,3.364,3.3145,3.3145,3.2895,3.2398,3.2398,3.2398,2.3405,2.5402,2.7471,2.8213,2.9472,0.0,0.0,3.3128,3.4042,3.5111,0.0,0.0,0.0,0.0,0.0,0.0,0.0,0.0,0.0,0.0,0.0,0.0,0.0,0.0,0.0,0.0,0.0,0.0,0.0,0.0,0.0,4.0912,4.0912,4.0912,4.0912,4.0912,4.0912,4.0912,4.0912,4.0912,4.0912,4.0912,4.0912,4.0912,4.0912,4.0912,4.0912,4.0912,4.0912,4.0912,4.0912,4.0912,4.0912,4.0864,4.084,4.0888,4.0864,4.084,4.0888,4.0912,4.0912,4.0912,4.0912,4.0912,4.0912,4.0912,4.0912,4.0912,4.0912,4.0888,4.0776,4.0569,4.041,4.0339,3.9754,3.9095,3.8734,3.8265,3.7792,3.7484,3.7018,3.6671,3.6626,3.6278,3.5975,3.5932,3.591,3.591,3.591,3.5866,3.5822,3.5728,3.5644,3.5622,3.5728,3.5711,3.5756,3.5844,3.4998,3.4504,3.4504,3.4185,3.4011,3.4011,3.4011,3.3742,3.3182,3.3625,3.3564,3.3029,3.3475,3.3719,2.3422,2.5143,2.7213,2.8437,0.0,0.0,3.3231,3.5007,3.6594,0.0,0.0,0.0,0.0,0.0,0.0,0.0,0.0,0.0,0.0,0.0,0.0,0.0,0.0,0.0,0.0,0.0,0.0,0.0,0.0,0.0,0.0,4.0912,4.0912,4.0912,4.0912,4.0912,4.0912,4.0912,4.0912,4.0912,4.0912,4.0912,4.0912,4.0912,4.0912,4.0912,4.0912,4.0912,4.0912,4.0912,4.0912,4.0912,4.0912,4.0912,4.0912,4.0912,4.0912,4.0912,4.0912,4.0912,4.0912,4.0912,4.0912,4.0912,4.0912,4.0912,4.0912,4.0912,4.0912,4.0912,4.0912,4.0912,4.0912,4.0912,4.0498,4.0008,3.9715,3.921,3.8734,3.8437,3.7951,3.7552,3.7529,3.7146,3.6825,3.6764,3.6576,3.649,3.673,3.6532,3.6415,3.6581,3.6508,3.6486,3.6576,3.6576,3.6621,3.6732,3.6224,3.5686,3.5201,3.484,3.4748,3.4979,3.4979,3.4832,3.4565,3.5023,3.4867,3.416,3.4688,3.4823,2.4988,2.5525,2.6663,0.0,0.0,0.0,3.4352,3.5783,3.6749,0.0,0.0,0.0,0.0,0.0,0.0,0.0,0.0,0.0,0.0,0.0,0.0,0.0,0.0,0.0,0.0,0.0,0.0,0.0,0.0,0.0,0.0,4.0912,4.0912,4.0912,4.0912,4.0912,4.0912,4.0912,4.0912,4.0912,4.0912,4.0912,4.0912,4.0912,4.0912,4.0912,4.0912,4.0912,4.0912,4.0912,4.0912,4.0912,4.0912,4.0912,4.0912,4.0912,4.0912,4.0912,4.0912,4.0912,4.0912,4.0912,4.0912,4.0912,4.0912,4.0912,4.0912,4.0912,4.0912,4.0912,4.0912,4.0912,4.0912,4.0912,4.0912,4.0687,3.9871,3.9715,3.9491,3.875,3.8612,3.8572,3.8442,3.851,3.8555,3.8425,3.7784,3.7578,3.8316,3.7655,3.7427,3.8236,3.8305,3.8305,3.8305,3.8305,3.8305,3.8305,3.8305,3.7621,3.6083,3.6014,3.6373,3.7098,3.7098,3.7233,3.7498,3.7515,3.6936,3.5807,3.5824,3.551,2.4026,2.5887,0.0,0.0,0.0,0.0,0.0,3.6577,0.0,0.0,0.0,0.0,0.0,0.0,0.0,0.0,0.0,0.0,0.0,0.0,0.0,0.0,0.0,0.0,0.0,0.0,0.0,0.0,0.0,0.0,0.0,4.0912,4.0912,4.0912,4.0912,4.0912,4.0912,4.0912,4.0912,4.0912,4.0912,4.0912,4.0912,4.0912,4.0912,4.0912,4.0912,4.0912,4.0912,4.0912,4.0912,4.0912,4.0912,4.0912,4.0912,4.0912,4.0912,4.0912,4.0912,4.0912,4.0912,4.0912,4.0912,4.0912,4.0912,4.0912,4.0912,4.0912,4.0912,4.0912,4.0912,4.0912,4.0912,4.0912,4.0912,4.0843,4.0601,4.0549,4.0498,4.0273,3.975,3.937,3.9307,3.8917,3.8594,3.8532,3.8343,3.8291,3.8498,3.8213,3.8111,3.8334,3.8334,3.8311,3.8368,3.8368,3.8414,3.8499,3.8522,3.8225,3.7638,3.7621,3.7724,3.794,3.794,3.78,3.7498,3.7952,3.7834,3.7155,3.7633,3.7519,2.4732,2.6764,0.0,0.0,0.0,0.0,0.0,0.0,0.0,0.0,0.0,0.0,0.0,0.0,0.0,0.0,0.0,0.0,0.0,0.0,0.0,0.0,0.0,0.0,0.0,0.0,0.0,0.0,0.0,0.0,0.0,4.0912,4.0912,4.0912,4.0912,4.0912,4.0912,4.0912,4.0912,4.0912,4.0912,4.0912,4.0912,4.0912,4.0912,4.0912,4.0912,4.0912,4.0912,4.0912,4.0912,4.0912,4.0912,4.0912,4.0912,4.0912,4.0912,4.0912,4.0912,4.0912,4.0912,4.0912,4.0912,4.0912,4.0912,4.0912,4.0912,4.0912,4.0912,4.0912,4.0912,4.0912,4.0912,4.0912,4.0912,4.0912,4.0912,4.0912,4.0912,4.0912,4.0515,4.0164,4.0164,3.9802,3.9514,3.9514,3.9514,3.941,3.9077,3.9256,3.9382,3.9382,3.9347,3.9364,3.9399,3.9382,3.9422,3.9514,3.9514,3.9462,3.9335,3.8734,3.8563,3.8854,3.8854,3.8835,3.8853,3.9263,3.9177,3.8607,3.903,3.8924,2.6419,0.0,0.0,0.0,0.0,0.0,0.0,0.0,0.0,0.0,0.0,0.0,0.0,0.0,0.0,0.0,0.0,0.0,0.0,0.0,0.0,0.0,0.0,0.0,0.0,0.0,0.0,0.0,0.0,0.0,0.0,4.0912,4.0912,4.0912,4.0912,4.0912,4.0912,4.0912,4.0912,4.0912,4.0912,4.0912,4.0912,4.0912,4.0912,4.0912,4.0912,4.0912,4.0912,4.0912,4.0912,4.0912,4.0912,4.0912,4.0912,4.0912,4.0912,4.0912,4.0912,4.0912,4.0912,4.0912,4.0912,4.0912,4.0912,4.0912,4.0912,4.0912,4.0912,4.0912,4.0912,4.0912,4.0912,4.0912,4.0912,4.0912,4.0912,4.0912,4.0912,4.0912,4.0912,4.0912,4.0912,4.0912,4.0912,4.0912,4.0912,4.0653,3.9888,4.0463,4.0912,4.0912,4.0912,4.0912,4.0912,4.0912,4.0912,4.0912,4.0912,4.0912,4.0912,3.9566,3.9112,3.9802,3.9802,4.0187,4.0912,4.0912,4.0638,4.0078,4.0078,3.9791,0.0,2.7833,0.0,0.0,0.0,0.0,0.0,0.0,0.0,0.0,0.0,0.0,0.0,0.0,0.0,0.0,0.0,0.0,0.0,0.0,0.0,0.0,0.0,0.0,0.0,0.0,0.0,0.0,0.0,0.0,4.0912,4.0912,4.0912,4.0912,4.0912,4.0912,4.0912,4.0912,4.0912,0.0,4.0912,4.0912,4.0912,4.0912,4.0912,4.0912,4.0912,4.0912,4.0912,4.0912,4.0912,4.0912,4.0912,4.0912,4.0912,4.0912,4.0912,4.0912,4.0912,4.0912,4.0912,4.0912,4.0912,4.0912,4.0912,4.0912,4.0912,4.0912,4.0912,4.0912,4.0912,4.0912,4.0912,4.0912,4.0912,4.0912,4.0912,4.0912,4.0912,4.0912,4.0912,4.0912,4.0912,4.0912,4.0912,4.0912,4.0912,4.0843,4.067,4.0791,4.0912,4.0912,4.0912,4.0912,4.0912,4.0912,4.0912,4.0912,4.0912,4.0912,4.0912,4.0584,4.048,4.0653,4.0653,4.0739,4.0912,4.0912,4.0823,4.071,4.071,4.0385,0.0,0.0,0.0,0.0,0.0,0.0,0.0,0.0,0.0,0.0,0.0,0.0,0.0,0.0,0.0,0.0,0.0,0.0,0.0,0.0,0.0,0.0,0.0,0.0,0.0,0.0,0.0,0.0,0.0,4.0912,4.0912,4.0912,4.0912,4.0912,4.0912,4.0912,4.0912,4.0912,4.0912,4.0912,4.0912,4.0912,4.0912,4.0912,4.0912,4.0912,4.0912,4.0912,4.0912,4.0912,4.0912,4.0912,4.0912,4.0912,4.0912,4.0912,4.0912,4.0912,4.0912,4.0912,4.0912,4.0912,4.0912,4.0912,4.0912,4.0912,4.0912,4.0912,4.0912,4.0912,4.0912,4.0912,4.0912,4.0912,4.0912,4.0912,4.0912,4.0912,4.0912,4.0912,4.0912,4.0912,4.0912,4.0912,4.0912,4.0912,4.0912,4.0912,4.0912,4.0912,4.0912,4.0912,4.0912,4.0912,4.0912,4.0912,4.0912,4.0912,4.0912,4.0912,4.0912,4.0912,4.0912,4.0912,4.0912,4.0912,4.0912,4.0912,4.0912,4.0912,4.0912,4.0734,0.0,0.0,0.0,0.0,0.0,0.0,0.0,0.0,0.0,0.0,0.0,0.0,0.0,0.0,0.0,0.0,0.0,0.0,0.0,0.0,0.0,0.0,0.0,0.0,0.0,0.0,0.0,0.0,0.0,4.0912,4.0912,4.0912,4.0912,4.0912,4.0912,4.0912,4.0912,4.0912,4.0912,4.0912,4.0912,4.0912,4.0912,4.0912,4.0912,4.0912,4.0912,4.0912,4.0912,4.0912,4.0912,4.0912,4.0912,4.0912,4.0912,4.0912,4.0912,4.0912,4.0912,4.0912,4.0912,4.0912,4.0912,4.0912,4.0912,4.0912,4.0912,4.0912,4.0912,4.0912,4.0912,4.0912,4.0912,4.0912,4.0912,4.0912,4.0912,4.0912,4.0912,4.0912,4.0912,4.0912,4.0912,4.0912,4.0912,4.0912,4.0912,4.0912,4.0912,4.0912,4.0912,4.0912,4.0912,4.0912,4.0912,4.0912,4.0912,4.0912,4.0912,4.0912,4.0912,4.0912,4.0912,4.0912,4.0912,4.0912,4.0912,4.0912,4.0912,4.0912,4.0912,4.0912,0.0,0.0,0.0,0.0,0.0,0.0,0.0,0.0,0.0,0.0,0.0,0.0,0.0,0.0,0.0,0.0,0.0,0.0,0.0,0.0,0.0,0.0,0.0,0.0,0.0,0.0,0.0,0.0,4.0912,4.0912,4.0912,4.0912,4.0912,4.0912,4.0912,4.0912,4.0912,4.0912,4.0912,4.0912,4.0912,4.0912,4.0912,4.0912,4.0912,4.0912,4.0912,4.0912,4.0912,4.0912,4.0912,4.0912,4.0912,4.0912,4.0912,4.0912,4.0912,4.0912,4.0912,4.0912,4.0912,4.0912,4.0912,4.0912,4.0912,4.0912,4.0912,4.0912,4.0912,4.0912,4.0912,4.0912,4.0912,4.0912,4.0912,4.0912,4.0912,4.0912,4.0912,4.0912,4.0912,4.0912,4.0912,4.0912,4.0912,4.0912,4.0912,4.0912,4.0912,4.0912,4.0912,4.0912,4.0912,4.0912,4.0912,4.0912,4.0912,4.0912,4.0912,4.0912,4.0912,4.0912,4.0912,4.0912,4.0912,4.0912,4.0912,4.0912,4.0912,4.0912,4.0912,4.0912,2.31,0.0,0.0,0.0,0.0,0.0,0.0,0.0,0.0,0.0,0.0,0.0,0.0,0.0,0.0,0.0,0.0,0.0,0.0,0.0,0.0,0.0,0.0,0.0,0.0,0.0,0.0,0.0,4.0912,4.0912,4.0912,4.0912,4.0912,4.0912,4.0912,4.0912,4.0912,4.0912,4.0912,4.0912,4.0912,4.0912,4.0912,4.0912,4.0912,4.0912,4.0912,4.0912,4.0912,4.0912,4.0912,4.0912,4.0912,4.0912,4.0912,4.0912,4.0912,4.0912,4.0912,4.0912,4.0912,4.0912,4.0912,4.0912,4.0912,4.0912,4.0912,4.0912,4.0912,4.0912,4.0912,4.0912,4.0912,4.0912,4.0912,4.0912,4.0912,4.0912,4.0912,4.0912,4.0912,4.0912,4.0912,4.0912,4.0912,4.0912,4.0912,4.0912,4.0912,4.0912,4.0912,4.0912,4.0912,4.0912,4.0912,4.0912,4.0912,4.0912,4.0912,4.0912,4.0912,4.0912,4.0912,4.0912,4.0912,4.0912,4.0912,4.0912,4.0912,4.0912,4.0912,4.0912,0.0,0.0,0.0,0.0,0.0,0.0,0.0,0.0,0.0,0.0,0.0,0.0,0.0,0.0,0.0,0.0,0.0,0.0,0.0,0.0,0.0,0.0,0.0,0.0,0.0,0.0,0.0,0.0,4.0601,4.0687,4.0894,4.0912,4.0912,4.0912,4.0912,4.0912,4.0912,4.0912,4.0912,4.0912,4.0912,4.0912,4.0912,4.0912,4.0912,4.0912,4.0912,4.0912,4.0912,4.0912,4.0912,4.0912,4.0912,4.0912,4.0912,4.0912,4.0912,4.0912,4.0912,4.0912,4.0912,4.0912,4.0912,4.0912,4.0912,4.0912,4.0912,4.0912,4.0912,4.0912,4.0912,4.0912,4.0912,4.0912,4.0912,4.0912,4.0912,4.0912,4.0912,4.0912,4.0912,4.0912,4.0912,4.0912,4.0912,4.0912,4.0912,4.0912,4.0912,4.0912,4.0912,4.0912,4.0912,4.0912,4.0912,4.0912,4.0912,4.0912,4.0912,4.0912,4.0912,4.0912,4.0912,4.0912,4.0912,4.0912,4.0912,4.0912,4.0912,4.0912,4.0912,4.0912,0.0,0.0,0.0,0.0,0.0,0.0,0.0,0.0,0.0,0.0,0.0,0.0,0.0,0.0,0.0,0.0,0.0,0.0,0.0,0.0,0.0,0.0,0.0,0.0,0.0,0.0,0.0,0.0,3.975,4.0095,4.086,4.0912,4.0912,4.0912,4.0912,4.0912,4.0912,4.0912,4.0912,4.0912,4.0912,4.0912,4.0912,4.0912,4.0912,4.0912,4.0912,4.0912,4.0912,4.0912,4.0912,4.0912,4.0912,4.0912,4.0912,4.0912,4.0912,4.0912,4.0912,4.0912,4.0912,4.0912,4.0912,4.0912,4.0912,4.0912,4.0912,4.0912,4.0912,4.0912,4.0912,4.0912,4.0912,4.0912,4.0912,4.0912,4.0912,4.0912,4.0912,4.0912,4.0912,4.0912,4.0912,4.0912,4.0912,4.0912,4.0912,4.0912,4.0912,4.0912,4.0912,4.0912,4.0912,4.0912,4.0912,4.0912,4.0912,4.0912,4.0912,4.0912,4.0912,4.0912,4.0912,4.0912,4.0912,4.0912,4.0912,4.0912,4.0912,4.0912,4.0912,4.0912,0.0,0.0,0.0,0.0,0.0,0.0,0.0,0.0,0.0,0.0,0.0,0.0,0.0,0.0,0.0,0.0,0.0,0.0,0.0,0.0,0.0,0.0,0.0,0.0,0.0,0.0,0.0,0.0,0.0,3.9819,4.0095,4.0636,4.0912,4.0912,4.0912,4.0912,4.0912,4.0912,4.0912,4.0912,4.0912,4.0912,4.0912,4.0912,4.0912,4.0912,4.0912,4.0912,4.0912,4.0912,4.0912,4.0912,4.0912,4.0912,4.0912,4.0912,4.0912,4.0912,4.0912,4.0912,4.0912,4.0912,4.0912,4.0912,4.0912,4.0912,4.0912,4.0912,4.0912,4.0912,4.0912,4.0912,4.0912,4.0912,4.0912,4.0912,4.0912,4.0912,4.0912,4.0912,4.0912,4.0912,4.0912,4.0912,4.0912,4.0912,4.0912,4.0912,4.0912,4.0912,4.0912,4.0912,4.0912,4.0912,4.0912,4.0912,4.0912,4.0912,4.0912,4.0912,4.0912,4.0912,4.0912,4.0912,4.0912,4.0912,4.0912,4.0912,4.0912,4.0912,4.0912,4.0912,0.0,0.0,0.0,0.0,0.0,0.0,0.0,0.0,0.0,0.0,0.0,0.0,0.0,0.0,0.0,0.0,0.0,0.0,0.0,0.0,0.0,0.0,0.0,0.0,0.0,0.0,0.0,0.0,0.0,0.0,3.9319,4.006,4.0636,4.0894,4.0912,4.0912,4.0912,4.0912,4.0912,4.0912,4.0912,4.0912,4.0912,4.0912,4.0912,4.0912,4.0912,4.0912,4.0912,4.0912,4.0912,4.0912,4.0912,4.0912,4.0912,4.0912,4.0912,4.0912,4.0912,4.0912,4.0912,4.0912,4.0912,4.0912,4.0912,4.0912,4.0912,4.0912,4.0912,4.0912,4.0912,4.0912,4.0912,4.0912,4.0912,4.0912,4.0912,4.0912,4.0912,4.0912,4.0912,4.0912,4.0912,4.0912,4.0912,4.0912,4.0912,4.0912,4.0912,4.0912,4.0912,4.0912,4.0912,4.0912,4.0912,4.0912,4.0912,4.0912,4.0912,4.0912,4.0912,4.0912,4.0912,4.0912,4.0912,4.0912,4.0912,4.0912,4.0912,4.0912,4.0912,4.0912,0.0,0.0,0.0,0.0,0.0,0.0,0.0,0.0,0.0,0.0,0.0,0.0,0.0,0.0,0.0,0.0,0.0,0.0,0.0,0.0,0.0,0.0,0.0,0.0,0.0,0.0,0.0,0.0,3.7495,3.7823,3.8525,3.9267,4.0026,4.0843,4.086,4.0877,4.0912,4.0912,4.0912,4.0912,4.0912,4.0912,4.0912,4.0912,4.0912,4.0912,4.0912,4.0912,4.0912,4.0912,4.0912,4.0912,4.0912,4.0912,4.0912,4.0912,4.0912,4.0912,4.0912,4.0912,4.0912,4.0912,4.0912,4.0912,4.0912,4.0912,4.0912,4.0912,4.0912,4.0912,4.0912,4.0912,4.0912,4.0912,4.0912,4.0912,4.0912,4.0912,4.0912,4.0912,4.0912,4.0912,4.0912,4.0912,4.0912,4.0912,4.0912,4.0912,4.0912,4.0912,4.0912,4.0912,4.0912,4.0912,4.0912,4.0912,4.0912,4.0912,4.0912,4.0912,4.0912,4.0912,4.0912,4.0912,4.0912,4.0912,4.0912,4.0912,4.0912,4.0912,4.0912,4.0912,1.7886,0.0,0.0,0.0,0.0,0.0,0.0,0.0,0.0,0.0,0.0,0.0,0.0,0.0,0.0,0.0,0.0,0.0,0.0,0.0,0.0,0.0,0.0,0.0,0.0,0.0,0.0,0.0,3.7163,3.7599,3.7806,3.8491,3.925,4.0008,4.0026,4.0302,4.0894,4.0912,4.0912,4.0912,4.0912,4.0912,4.0912,4.0912,4.0912,4.0912,4.0912,4.0912,4.0912,4.0912,4.0912,4.0912,4.0912,4.0912,4.0912,4.0912,4.0912,4.0912,4.0912,4.0912,4.0912,4.0912,4.0912,4.0912,4.0912,4.0912,4.0912,4.0912,4.0912,4.0912,4.0912,4.0912,4.0912,4.0912,4.0912,4.0912,4.0912,4.0912,4.0912,4.0912,4.0912,4.0912,4.0912,4.0912,4.0912,4.0912,4.0912,4.0912,4.0912,4.0912,4.0912,4.0912,4.0912,4.0912,4.0912,4.0912,4.0912,4.0912,4.0912,4.0912,4.0912,4.0912,4.0912,4.0912,4.0912,4.0912,4.0912,4.0912,4.0912,4.0912,4.0912,4.0912,0.0,0.0,0.0,0.0,0.0,0.0,0.0,2.7417,0.0,0.0,0.0,0.0,0.0,0.0,0.0,0.0,0.0,0.0,0.0,0.0,0.0,0.0,0.0,0.0,0.0,3.6301,3.6301,3.6301,3.6732,3.715,3.7478,3.7909,3.8496,3.9215,3.9526,3.9922,4.0388,4.0739,4.0912,4.0912,4.0912,4.0912,4.0912,4.0912,4.0912,4.0912,4.0912,4.0912,4.0912,4.0912,4.0912,4.0912,4.0912,4.0912,4.0912,4.0912,4.0912,4.0912,4.0912,4.0912,4.0912,4.0912,4.0912,4.0912,4.0912,4.0912,4.0912,4.0912,4.0912,4.0912,4.0912,4.0912,4.0912,4.0912,4.0912,4.0912,4.0912,4.0912,4.0912,4.0912,4.0912,4.0912,4.0912,4.0912,4.0912,4.0912,4.0912,4.0912,4.0912,4.0912,4.0912,4.0912,4.0912,4.0912,4.0912,4.0912,4.0912,4.0912,4.0912,4.0912,4.0912,4.0912,4.0912,4.0912,4.0912,4.0912,4.0912,4.0912,4.0912,4.0912,4.0912,4.0912,0.0,0.0,0.0,0.0,0.0,0.0,2.7887,2.7497,0.0,0.0,0.0,0.0,0.0,0.0,0.0,0.0,0.0,0.0,0.0,0.0,0.0,0.0,0.0,0.0,3.6339,3.6322,3.6322,3.6322,3.6322,3.6632,3.7361,3.7374,3.7719,3.8439,3.9112,3.9526,3.9698,4.0411,4.0825,4.0912,4.0912,4.0912,4.0912,4.0912,4.0912,4.0912,4.0912,4.0912,4.0912,4.0912,4.0912,4.0912,4.0912,4.0912,4.0912,4.0912,4.0912,4.0912,4.0912,4.0912,4.0912,4.0912,4.0912,4.0912,4.0912,4.0912,4.0912,4.0912,4.0912,4.0912,4.0912,4.0912,4.0912,4.0912,4.0912,4.0912,4.0912,4.0912,4.0912,4.0912,4.0912,4.0912,4.0912,4.0912,4.0912,4.0912,4.0912,4.0912,4.0912,4.0912,4.0912,4.0912,4.0912,4.0912,4.0912,4.0912,4.0912,4.0912,4.0912,4.0912,4.0912,4.0912,4.0912,4.0912,4.0912,4.0912,4.0912,4.0912,4.0912,4.0912,4.0912,4.0912,2.4363,2.5477,2.6604,0.0,0.0,0.0,0.0,2.5337,0.0,0.0,0.0,0.0,0.0,0.0,0.0,0.0,0.0,0.0,0.0,0.0,0.0,0.0,0.0,0.0,3.6464,3.6444,3.6444,3.6444,3.6444,3.6534,3.669,3.6585,3.6887,3.7702,3.7858,3.8491,3.9681,3.9853,4.025,4.0912,4.0912,4.0912,4.0912,4.0912,4.0912,4.0912,4.0912,4.0912,4.0912,4.0912,4.0912,4.0912,4.0912,4.0912,4.0912,4.0912,4.0912,4.0912,4.0912,4.0912,4.0912,4.0912,4.0912,4.0912,4.0912,4.0912,4.0912,4.0912,4.0912,4.0912,4.0912,4.0912,4.0912,4.0912,4.0912,4.0912,4.0912,4.0912,4.0912,4.0912,4.0912,4.0912,4.0912,4.0912,4.0912,4.0912,4.0912,4.0912,4.0912,4.0912,4.0912,4.0912,4.0912,4.0912,4.0912,4.0912,4.0912,4.0912,4.0912,4.0912,4.0912,4.0912,4.0912,4.0912,4.0912,4.0912,4.0912,4.0912,4.0912,4.0912,4.0912,4.0912,0.0,0.0,2.789,2.6965,0.0,0.0,0.0,0.0,2.6333,0.0,0.0,0.0,0.0,0.0,0.0,0.0,0.0,0.0,0.0,0.0,0.0,0.0,0.0,0.0,3.5454,3.5763,3.6125,3.6568,3.6602,3.6602,3.6602,3.6523,3.6676,3.7092,3.7455,3.801,3.8733,3.9534,4.0106,4.0522,4.0833,4.1,4.1,4.0935,4.0912,4.0894,4.0959,4.1,4.1006,4.1035,4.1041,4.1041,4.0942,4.0912,4.0912,4.0912,4.0912,4.0912,4.0912,4.0912,4.0912,4.0912,4.0912,4.0912,4.0912,4.0912,4.0912,4.0912,4.0912,4.0912,4.0912,4.0912,4.0912,4.0912,4.0912,4.0912,4.0912,4.0912,4.0912,4.0912,4.0912,4.0912,4.0912,4.0912,4.0912,4.0912,4.0912,4.0912,4.0912,4.0912,4.0912,4.0912,4.0912,4.0912,4.0912,4.0912,4.0912,4.0912,4.0912,4.0912,4.0912,4.0912,4.0912,4.0912,4.0912,4.0912,4.0912,4.0912,4.0912,4.0912,4.0912,4.0912,0.0,0.0,0.0,0.0,0.0,2.8953,0.0,0.0,0.0,2.8771,0.0,0.0,0.0,0.0,0.0,0.0,0.0,0.0,0.0,0.0,0.0,0.0,0.0,0.0,0.0,3.4536,3.5196,3.618,3.6148,3.6182,3.6478,3.6615,3.6702,3.6702,3.7293,3.7655,3.7794,3.9186,3.9951,4.0125,4.0781,4.114,4.1117,4.1029,4.0965,4.0965,4.1076,4.114,4.1123,4.118,4.1209,4.1186,4.1018,4.0965,4.0965,4.0942,4.0935,4.0935,4.0912,4.0912,4.0912,4.0912,4.0912,4.0912,4.0912,4.0912,4.0912,4.0912,4.0912,4.0912,4.0912,4.0912,4.0912,4.0912,4.0912,4.0912,4.0912,4.0912,4.0912,4.0912,4.0912,4.0912,4.0912,4.0912,4.0912,4.0912,4.0912,4.0912,4.0912,4.0912,4.0912,4.0912,4.0912,4.0912,4.0912,4.0912,4.0912,4.0912,4.0912,4.0912,4.0912,4.0912,4.0912,4.0912,4.0912,4.0912,4.0912,4.0912,4.0912,4.0912,4.0912,4.0912,0.0,0.0,0.0,0.0,3.1437,0.0,0.0,0.0,2.8292,2.6888,0.0,0.0,0.0,0.0,0.0,0.0,0.0,0.0,0.0,0.0,0.0,0.0,0.0,0.0,0.0,3.282,3.3081,3.4544,3.4115,3.4361,3.5743,3.6397,3.6702,3.6702,3.6771,3.7154,3.7794,3.8668,3.9451,4.0108,4.0838,4.1186,4.1186,4.1163,4.1163,4.1163,4.1186,4.1186,4.1186,4.1209,4.1209,4.1209,4.1186,4.1163,4.1163,4.1099,4.107,4.1047,4.0935,4.0912,4.0912,4.0912,4.0912,4.0912,4.0912,4.0912,4.0912,4.0912,4.0912,4.0912,4.0912,4.0912,4.0912,4.0912,4.0912,4.0912,4.0912,4.0912,4.0912,4.0912,4.0912,4.0912,4.0912,4.0912,4.0912,4.0912,4.0912,4.0912,4.0912,4.0912,4.0912,4.0912,4.0912,4.0912,4.0912,4.0912,4.0912,4.0912,4.0912,4.0912,4.0912,4.0912,4.0912,4.0912,4.0912,4.0912,4.0912,4.0912,4.0912,4.0912,4.0912,4.0912,0.0,0.0,0.0,0.0,0.0,0.0,0.0,0.0,2.8527,0.0,0.0,0.0,0.0,0.0,0.0,0.0,0.0,0.0,0.0,0.0,0.0,0.0,0.0,0.0,0.0,0.0,0.0,0.0,3.3212,3.3668,3.5647,3.6029,3.6394,3.6869,3.6869,3.7026,3.7321,3.8545,3.9332,3.9643,4.0764,4.1318,4.1318,4.1232,4.1209,4.1192,4.1295,4.1318,4.1318,4.1408,4.1431,4.1431,4.1431,4.134,4.1209,4.1157,4.1175,4.1152,4.1088,4.1088,4.1088,4.1088,4.1088,4.1088,4.1088,4.1088,4.1088,4.1088,4.1088,4.1088,4.1088,4.1088,4.1065,4.1035,4.1029,4.1035,4.1169,4.1099,4.1029,4.1023,4.0959,4.0912,4.0912,4.0912,4.0912,4.0912,4.0912,4.0912,4.0912,4.0912,4.0912,4.0912,4.0912,4.0912,4.0912,4.0912,4.0912,4.0912,4.0912,4.0912,4.0912,4.0912,4.0912,4.0912,4.0912,4.0912,4.0912,4.0912,4.0912,4.0912,4.0912,4.0912,3.2908,0.0,0.0,0.0,0.0,0.0,0.0,0.0,0.0,0.0,0.0,0.0,0.0,0.0,0.0,0.0,0.0,0.0,0.0,0.0,0.0,0.0,0.0,0.0,0.0,0.0,0.0,0.0,0.0,3.2634,3.5355,3.5687,3.618,3.6972,3.7007,3.7007,3.7007,3.8532,3.9284,3.9319,4.0758,4.1448,4.1448,4.1363,4.13,4.1318,4.1408,4.1448,4.1471,4.156,4.1604,4.1604,4.1604,4.1475,4.1318,4.1255,4.1255,4.1255,4.1209,4.1209,4.1209,4.1209,4.1209,4.1209,4.1209,4.1209,4.1209,4.1209,4.1209,4.1209,4.1209,4.1209,4.1186,4.1134,4.1129,4.1175,4.1307,4.1261,4.1146,4.107,4.0959,4.0912,4.0912,4.0912,4.0912,4.0912,4.0912,4.0912,4.0912,4.0912,4.0912,4.0912,4.0912,4.0912,4.0912,4.0912,4.0912,4.0912,4.0912,4.0912,4.0912,4.0912,4.0912,4.0912,4.0935,4.0959,4.0959,4.0965,4.0989,4.0989,4.0942,4.0935,0.0,0.0,0.0,3.2611,0.0,0.0,0.0,0.0,3.1255,0.0,0.0,0.0,0.0,0.0,0.0,0.0,0.0,0.0,0.0,0.0,0.0,0.0,0.0,0.0,0.0,0.0,0.0,0.0,0.0,0.0,3.453,3.5425,3.618,3.6972,3.7007,3.7007,3.7007,3.8532,3.9284,3.9319,4.0845,4.1604,4.1604,4.1582,4.1582,4.1582,4.1582,4.1604,4.1604,4.1604,4.1604,4.1604,4.1604,4.1604,4.1582,4.1448,4.1403,4.138,4.1255,4.1209,4.1209,4.1209,4.1209,4.1209,4.1209,4.1209,4.1209,4.1209,4.1209,4.1209,4.1209,4.1209,4.1209,4.1209,4.1209,4.1209,4.1209,4.1312,4.1301,4.0982,4.0912,4.0912,4.0912,4.0912,4.0912,4.0912,4.0912,4.0912,4.0912,4.0912,4.0912,4.0912,4.0912,4.0912,4.0912,4.0912,4.0912,4.0912,4.0912,4.0912,4.0912,4.0912,4.0912,4.0912,4.1023,4.1093,4.1093,4.1157,4.1186,4.1186,4.1123,4.1006,0.0,0.0,3.6816,3.4079,0.0,0.0,0.0,0.0,0.0,0.0,0.0,0.0,0.0,0.0,0.0,0.0,0.0,0.0,0.0,0.0,0.0,0.0,0.0,0.0,0.0,0.0,0.0,0.0,2.8686,0.0,0.0,3.4635,3.5425,3.618,3.6726,3.7007,3.7007,3.8532,3.9284,3.9319,4.0867,4.1604,4.1604,4.1604,4.1604,4.1604,4.1604,4.1604,4.1604,4.1604,4.1604,4.1604,4.1604,4.1604,4.1604,4.156,4.1538,4.1538,4.1475,4.1453,4.1453,4.1453,4.1453,4.1453,4.1453,4.1453,4.1453,4.1453,4.1453,4.1453,4.1453,4.1453,4.1453,4.1453,4.1453,4.1453,4.1453,4.1426,4.1375,4.1244,4.1157,4.1088,4.1035,4.1035,4.0989,4.0894,4.0912,4.0912,4.0912,4.0912,4.0912,4.0912,4.0912,4.0912,4.0912,4.0912,4.0912,4.0912,4.0912,4.0935,4.1023,4.1047,4.1053,4.1111,4.1134,4.1175,4.1175,4.1186,4.1209,4.1209,4.1267,4.1221,3.6866,3.7281,0.0,3.52,3.4674,0.0,3.1589,0.0,0.0,0.0,0.0,0.0,0.0,0.0,0.0,0.0,0.0,0.0,0.0,0.0,0.0,0.0,0.0,0.0,0.0,0.0,2.6992,2.8767,0.0,0.0,0.0,0.0,3.5077,3.5964,3.676,3.7108,3.7007,3.8801,3.964,3.9532,4.1068,4.1809,4.1809,4.167,4.1604,4.1604,4.1604,4.1604,4.1604,4.1604,4.1604,4.1604,4.1604,4.1604,4.1604,4.1604,4.1604,4.1604,4.1604,4.1604,4.1604,4.1604,4.1604,4.1604,4.1604,4.1604,4.1604,4.1604,4.1604,4.1604,4.1604,4.1604,4.1604,4.1604,4.1604,4.1604,4.1604,4.1538,4.1448,4.1403,4.134,4.1249,4.1157,4.1134,4.1111,4.1035,4.1035,4.1076,4.1076,4.1035,4.1012,4.1012,4.1012,4.1012,4.1012,4.1012,4.1012,4.1012,4.1012,4.1059,4.1146,4.1146,4.1152,4.1209,4.1255,4.1255,4.1255,4.1318,4.1346,4.1346,4.1431,4.1408]}]]